<?xml version="1.0" encoding="UTF-8" standalone="no" ?>
<gpx xmlns="http://www.topografix.com/GPX/1/1" xmlns:xsi="http://www.w3.org/2001/XMLSchema-instance" xsi:schemaLocation="http://www.topografix.com/GPX/1/1 http://www.topografix.com/GPX/1/1/gpx.xsd" version="1.1" creator="VisuGPX - https://www.visugpx.com">
  <metadata>
    <name>Promenade autour de boutancourt et flize</name>
    <desc><![CDATA[Promenade autour de boutancourt et flize]]></desc>
  </metadata>
  <trk>
    <name><![CDATA[LOG 19/01/11 11:45]]></name>
    <desc><![CDATA[Max. speed: 35.7km/h, avg. speed: 11.3km/h, distance: 12.129km, up: 486m, down: 494m, total time: 01:04:13]]></desc>
    <trkseg>
      <trkpt lat="49.69417" lon="4.76745">
        <ele>159.4</ele>
        <time>2011-01-19T09:39:50Z</time>
      </trkpt>
      <trkpt lat="49.69417" lon="4.76745">
        <ele>159.45</ele>
        <time>2011-01-19T09:39:52Z</time>
      </trkpt>
      <trkpt lat="49.69417" lon="4.76745">
        <ele>159.44</ele>
        <time>2011-01-19T09:39:54Z</time>
      </trkpt>
      <trkpt lat="49.69418" lon="4.76745">
        <ele>159.395</ele>
        <time>2011-01-19T09:39:56Z</time>
      </trkpt>
      <trkpt lat="49.69419" lon="4.76745">
        <ele>159.397</ele>
        <time>2011-01-19T09:39:58Z</time>
      </trkpt>
      <trkpt lat="49.69419" lon="4.76745">
        <ele>159.397</ele>
        <time>2011-01-19T09:39:59Z</time>
      </trkpt>
      <trkpt lat="49.69419" lon="4.76745">
        <ele>159.384</ele>
        <time>2011-01-19T09:40:01Z</time>
      </trkpt>
      <trkpt lat="49.69419" lon="4.76745">
        <ele>159.377</ele>
        <time>2011-01-19T09:40:03Z</time>
      </trkpt>
      <trkpt lat="49.69419" lon="4.76745">
        <ele>159.38</ele>
        <time>2011-01-19T09:40:04Z</time>
      </trkpt>
      <trkpt lat="49.69419" lon="4.76745">
        <ele>159.39</ele>
        <time>2011-01-19T09:40:05Z</time>
      </trkpt>
      <trkpt lat="49.6942" lon="4.76744">
        <ele>159.65</ele>
        <time>2011-01-19T09:40:07Z</time>
      </trkpt>
      <trkpt lat="49.6942" lon="4.76743">
        <ele>159.78</ele>
        <time>2011-01-19T09:40:08Z</time>
      </trkpt>
      <trkpt lat="49.6942" lon="4.76743">
        <ele>159.91</ele>
        <time>2011-01-19T09:40:09Z</time>
      </trkpt>
      <trkpt lat="49.69421" lon="4.76742">
        <ele>160.15</ele>
        <time>2011-01-19T09:40:11Z</time>
      </trkpt>
      <trkpt lat="49.69421" lon="4.76741">
        <ele>160.4</ele>
        <time>2011-01-19T09:40:13Z</time>
      </trkpt>
      <trkpt lat="49.6942" lon="4.76741">
        <ele>160.54</ele>
        <time>2011-01-19T09:40:14Z</time>
      </trkpt>
      <trkpt lat="49.6942" lon="4.76741">
        <ele>160.76</ele>
        <time>2011-01-19T09:40:16Z</time>
      </trkpt>
      <trkpt lat="49.6942" lon="4.76741">
        <ele>160.84</ele>
        <time>2011-01-19T09:40:18Z</time>
      </trkpt>
      <trkpt lat="49.6942" lon="4.76741">
        <ele>160.9</ele>
        <time>2011-01-19T09:40:20Z</time>
      </trkpt>
      <trkpt lat="49.6942" lon="4.76741">
        <ele>160.95</ele>
        <time>2011-01-19T09:40:21Z</time>
      </trkpt>
      <trkpt lat="49.6942" lon="4.76741">
        <ele>161.02</ele>
        <time>2011-01-19T09:40:23Z</time>
      </trkpt>
      <trkpt lat="49.6942" lon="4.76741">
        <ele>161.04</ele>
        <time>2011-01-19T09:40:24Z</time>
      </trkpt>
      <trkpt lat="49.6942" lon="4.76741">
        <ele>161.02</ele>
        <time>2011-01-19T09:40:26Z</time>
      </trkpt>
      <trkpt lat="49.6942" lon="4.76741">
        <ele>161</ele>
        <time>2011-01-19T09:40:28Z</time>
      </trkpt>
      <trkpt lat="49.6942" lon="4.76741">
        <ele>161</ele>
        <time>2011-01-19T09:40:29Z</time>
      </trkpt>
      <trkpt lat="49.6942" lon="4.76741">
        <ele>161</ele>
        <time>2011-01-19T09:40:31Z</time>
      </trkpt>
      <trkpt lat="49.6942" lon="4.76741">
        <ele>160.98</ele>
        <time>2011-01-19T09:40:33Z</time>
      </trkpt>
      <trkpt lat="49.6942" lon="4.76741">
        <ele>160.97</ele>
        <time>2011-01-19T09:40:34Z</time>
      </trkpt>
      <trkpt lat="49.6942" lon="4.76741">
        <ele>160.95</ele>
        <time>2011-01-19T09:40:35Z</time>
      </trkpt>
      <trkpt lat="49.6942" lon="4.76741">
        <ele>160.939</ele>
        <time>2011-01-19T09:40:36Z</time>
      </trkpt>
      <trkpt lat="49.6942" lon="4.76741">
        <ele>160.929</ele>
        <time>2011-01-19T09:40:37Z</time>
      </trkpt>
      <trkpt lat="49.6942" lon="4.76741">
        <ele>160.91</ele>
        <time>2011-01-19T09:40:39Z</time>
      </trkpt>
      <trkpt lat="49.6942" lon="4.76741">
        <ele>160.9</ele>
        <time>2011-01-19T09:40:40Z</time>
      </trkpt>
      <trkpt lat="49.6942" lon="4.76741">
        <ele>160.9</ele>
        <time>2011-01-19T09:40:42Z</time>
      </trkpt>
      <trkpt lat="49.6942" lon="4.7674">
        <ele>161.17</ele>
        <time>2011-01-19T09:40:44Z</time>
      </trkpt>
      <trkpt lat="49.6942" lon="4.7674">
        <ele>161.58</ele>
        <time>2011-01-19T09:40:45Z</time>
      </trkpt>
      <trkpt lat="49.6942" lon="4.7674">
        <ele>161.79</ele>
        <time>2011-01-19T09:40:46Z</time>
      </trkpt>
      <trkpt lat="49.69419" lon="4.76741">
        <ele>162.05</ele>
        <time>2011-01-19T09:40:48Z</time>
      </trkpt>
      <trkpt lat="49.69417" lon="4.76741">
        <ele>162.6</ele>
        <time>2011-01-19T09:40:50Z</time>
      </trkpt>
      <trkpt lat="49.69417" lon="4.76741">
        <ele>162.891</ele>
        <time>2011-01-19T09:40:52Z</time>
      </trkpt>
      <trkpt lat="49.69417" lon="4.76741">
        <ele>163.062</ele>
        <time>2011-01-19T09:40:53Z</time>
      </trkpt>
      <trkpt lat="49.69418" lon="4.7674">
        <ele>163.395</ele>
        <time>2011-01-19T09:40:55Z</time>
      </trkpt>
      <trkpt lat="49.69418" lon="4.7674">
        <ele>163.646</ele>
        <time>2011-01-19T09:40:56Z</time>
      </trkpt>
      <trkpt lat="49.69418" lon="4.7674">
        <ele>164.15</ele>
        <time>2011-01-19T09:40:58Z</time>
      </trkpt>
      <trkpt lat="49.69418" lon="4.7674">
        <ele>164.492</ele>
        <time>2011-01-19T09:40:59Z</time>
      </trkpt>
      <trkpt lat="49.69418" lon="4.7674">
        <ele>164.804</ele>
        <time>2011-01-19T09:41:00Z</time>
      </trkpt>
      <trkpt lat="49.69419" lon="4.76739">
        <ele>165.19</ele>
        <time>2011-01-19T09:41:02Z</time>
      </trkpt>
      <trkpt lat="49.69419" lon="4.76739">
        <ele>165.52</ele>
        <time>2011-01-19T09:41:03Z</time>
      </trkpt>
      <trkpt lat="49.69417" lon="4.76738">
        <ele>165.7</ele>
        <time>2011-01-19T09:41:05Z</time>
      </trkpt>
      <trkpt lat="49.69413" lon="4.76738">
        <ele>165.86</ele>
        <time>2011-01-19T09:41:07Z</time>
      </trkpt>
      <trkpt lat="49.69412" lon="4.76738">
        <ele>165.77</ele>
        <time>2011-01-19T09:41:08Z</time>
      </trkpt>
      <trkpt lat="49.69408" lon="4.76738">
        <ele>165.49</ele>
        <time>2011-01-19T09:41:10Z</time>
      </trkpt>
      <trkpt lat="49.69406" lon="4.76738">
        <ele>165.29</ele>
        <time>2011-01-19T09:41:11Z</time>
      </trkpt>
      <trkpt lat="49.69402" lon="4.76739">
        <ele>165.06</ele>
        <time>2011-01-19T09:41:13Z</time>
      </trkpt>
      <trkpt lat="49.69399" lon="4.76739">
        <ele>165.01</ele>
        <time>2011-01-19T09:41:14Z</time>
      </trkpt>
      <trkpt lat="49.69397" lon="4.7674">
        <ele>164.95</ele>
        <time>2011-01-19T09:41:15Z</time>
      </trkpt>
      <trkpt lat="49.69391" lon="4.7674">
        <ele>164.79</ele>
        <time>2011-01-19T09:41:17Z</time>
      </trkpt>
      <trkpt lat="49.69385" lon="4.76741">
        <ele>164.87</ele>
        <time>2011-01-19T09:41:19Z</time>
      </trkpt>
      <trkpt lat="49.6938" lon="4.76741">
        <ele>164.93</ele>
        <time>2011-01-19T09:41:20Z</time>
      </trkpt>
      <trkpt lat="49.69372" lon="4.76743">
        <ele>165.26</ele>
        <time>2011-01-19T09:41:22Z</time>
      </trkpt>
      <trkpt lat="49.69362" lon="4.76744">
        <ele>165.59</ele>
        <time>2011-01-19T09:41:23Z</time>
      </trkpt>
      <trkpt lat="49.69355" lon="4.76744">
        <ele>165.98</ele>
        <time>2011-01-19T09:41:25Z</time>
      </trkpt>
      <trkpt lat="49.69349" lon="4.76743">
        <ele>166.29</ele>
        <time>2011-01-19T09:41:27Z</time>
      </trkpt>
      <trkpt lat="49.6934" lon="4.76744">
        <ele>166.45</ele>
        <time>2011-01-19T09:41:29Z</time>
      </trkpt>
      <trkpt lat="49.69329" lon="4.76746">
        <ele>166.49</ele>
        <time>2011-01-19T09:41:31Z</time>
      </trkpt>
      <trkpt lat="49.69317" lon="4.76748">
        <ele>166.47</ele>
        <time>2011-01-19T09:41:33Z</time>
      </trkpt>
      <trkpt lat="49.69306" lon="4.76749">
        <ele>166.45</ele>
        <time>2011-01-19T09:41:35Z</time>
      </trkpt>
      <trkpt lat="49.69295" lon="4.7675">
        <ele>166.41</ele>
        <time>2011-01-19T09:41:37Z</time>
      </trkpt>
      <trkpt lat="49.69284" lon="4.76751">
        <ele>166.38</ele>
        <time>2011-01-19T09:41:39Z</time>
      </trkpt>
      <trkpt lat="49.69272" lon="4.76753">
        <ele>166.393</ele>
        <time>2011-01-19T09:41:41Z</time>
      </trkpt>
      <trkpt lat="49.69259" lon="4.76755">
        <ele>166.423</ele>
        <time>2011-01-19T09:41:43Z</time>
      </trkpt>
      <trkpt lat="49.69246" lon="4.76757">
        <ele>166.413</ele>
        <time>2011-01-19T09:41:45Z</time>
      </trkpt>
      <trkpt lat="49.69241" lon="4.76758">
        <ele>166.393</ele>
        <time>2011-01-19T09:41:46Z</time>
      </trkpt>
      <trkpt lat="49.69229" lon="4.76759">
        <ele>166.311</ele>
        <time>2011-01-19T09:41:48Z</time>
      </trkpt>
      <trkpt lat="49.69216" lon="4.76759">
        <ele>166.14</ele>
        <time>2011-01-19T09:41:50Z</time>
      </trkpt>
      <trkpt lat="49.69203" lon="4.7676">
        <ele>165.92</ele>
        <time>2011-01-19T09:41:52Z</time>
      </trkpt>
      <trkpt lat="49.6919" lon="4.76761">
        <ele>165.508</ele>
        <time>2011-01-19T09:41:54Z</time>
      </trkpt>
      <trkpt lat="49.69178" lon="4.76762">
        <ele>164.934</ele>
        <time>2011-01-19T09:41:56Z</time>
      </trkpt>
      <trkpt lat="49.69173" lon="4.76762">
        <ele>164.556</ele>
        <time>2011-01-19T09:41:57Z</time>
      </trkpt>
      <trkpt lat="49.69161" lon="4.76764">
        <ele>163.914</ele>
        <time>2011-01-19T09:41:59Z</time>
      </trkpt>
      <trkpt lat="49.69151" lon="4.76765">
        <ele>163.399</ele>
        <time>2011-01-19T09:42:01Z</time>
      </trkpt>
      <trkpt lat="49.69145" lon="4.76764">
        <ele>163.184</ele>
        <time>2011-01-19T09:42:02Z</time>
      </trkpt>
      <trkpt lat="49.69134" lon="4.7676">
        <ele>162.793</ele>
        <time>2011-01-19T09:42:04Z</time>
      </trkpt>
      <trkpt lat="49.69124" lon="4.76751">
        <ele>162.525</ele>
        <time>2011-01-19T09:42:06Z</time>
      </trkpt>
      <trkpt lat="49.69119" lon="4.76746">
        <ele>162.44</ele>
        <time>2011-01-19T09:42:07Z</time>
      </trkpt>
      <trkpt lat="49.69108" lon="4.76736">
        <ele>162.234</ele>
        <time>2011-01-19T09:42:09Z</time>
      </trkpt>
      <trkpt lat="49.69098" lon="4.76726">
        <ele>161.975</ele>
        <time>2011-01-19T09:42:10Z</time>
      </trkpt>
      <trkpt lat="49.6909" lon="4.76717">
        <ele>161.739</ele>
        <time>2011-01-19T09:42:12Z</time>
      </trkpt>
      <trkpt lat="49.69083" lon="4.76708">
        <ele>161.594</ele>
        <time>2011-01-19T09:42:14Z</time>
      </trkpt>
      <trkpt lat="49.69075" lon="4.76698">
        <ele>161.461</ele>
        <time>2011-01-19T09:42:16Z</time>
      </trkpt>
      <trkpt lat="49.6907" lon="4.76692">
        <ele>161.411</ele>
        <time>2011-01-19T09:42:17Z</time>
      </trkpt>
      <trkpt lat="49.69062" lon="4.76682">
        <ele>161.296</ele>
        <time>2011-01-19T09:42:19Z</time>
      </trkpt>
      <trkpt lat="49.69054" lon="4.76673">
        <ele>161.04</ele>
        <time>2011-01-19T09:42:21Z</time>
      </trkpt>
      <trkpt lat="49.69051" lon="4.76669">
        <ele>160.928</ele>
        <time>2011-01-19T09:42:22Z</time>
      </trkpt>
      <trkpt lat="49.69047" lon="4.76663">
        <ele>160.874</ele>
        <time>2011-01-19T09:42:23Z</time>
      </trkpt>
      <trkpt lat="49.69045" lon="4.7666">
        <ele>161.007</ele>
        <time>2011-01-19T09:42:24Z</time>
      </trkpt>
      <trkpt lat="49.69043" lon="4.76655">
        <ele>161.13</ele>
        <time>2011-01-19T09:42:26Z</time>
      </trkpt>
      <trkpt lat="49.69041" lon="4.76651">
        <ele>161.164</ele>
        <time>2011-01-19T09:42:27Z</time>
      </trkpt>
      <trkpt lat="49.69038" lon="4.76648">
        <ele>161.191</ele>
        <time>2011-01-19T09:42:28Z</time>
      </trkpt>
      <trkpt lat="49.69035" lon="4.76641">
        <ele>161.262</ele>
        <time>2011-01-19T09:42:30Z</time>
      </trkpt>
      <trkpt lat="49.69034" lon="4.76638">
        <ele>161.307</ele>
        <time>2011-01-19T09:42:31Z</time>
      </trkpt>
      <trkpt lat="49.6903" lon="4.76631">
        <ele>161.015</ele>
        <time>2011-01-19T09:42:32Z</time>
      </trkpt>
      <trkpt lat="49.69025" lon="4.76626">
        <ele>160.42</ele>
        <time>2011-01-19T09:42:34Z</time>
      </trkpt>
      <trkpt lat="49.69023" lon="4.76624">
        <ele>160.3</ele>
        <time>2011-01-19T09:42:35Z</time>
      </trkpt>
      <trkpt lat="49.69018" lon="4.76619">
        <ele>160.143</ele>
        <time>2011-01-19T09:42:37Z</time>
      </trkpt>
      <trkpt lat="49.69011" lon="4.76613">
        <ele>160.093</ele>
        <time>2011-01-19T09:42:39Z</time>
      </trkpt>
      <trkpt lat="49.69005" lon="4.76605">
        <ele>160.1</ele>
        <time>2011-01-19T09:42:40Z</time>
      </trkpt>
      <trkpt lat="49.69" lon="4.76598">
        <ele>160.198</ele>
        <time>2011-01-19T09:42:42Z</time>
      </trkpt>
      <trkpt lat="49.68998" lon="4.76592">
        <ele>160.381</ele>
        <time>2011-01-19T09:42:44Z</time>
      </trkpt>
      <trkpt lat="49.68996" lon="4.76584">
        <ele>160.643</ele>
        <time>2011-01-19T09:42:46Z</time>
      </trkpt>
      <trkpt lat="49.68991" lon="4.76578">
        <ele>161.103</ele>
        <time>2011-01-19T09:42:47Z</time>
      </trkpt>
      <trkpt lat="49.68987" lon="4.76576">
        <ele>161.903</ele>
        <time>2011-01-19T09:42:49Z</time>
      </trkpt>
      <trkpt lat="49.68984" lon="4.76575">
        <ele>162.63</ele>
        <time>2011-01-19T09:42:50Z</time>
      </trkpt>
      <trkpt lat="49.6898" lon="4.76573">
        <ele>162.43</ele>
        <time>2011-01-19T09:42:52Z</time>
      </trkpt>
      <trkpt lat="49.68975" lon="4.76568">
        <ele>162.29</ele>
        <time>2011-01-19T09:42:53Z</time>
      </trkpt>
      <trkpt lat="49.68973" lon="4.76565">
        <ele>162.34</ele>
        <time>2011-01-19T09:42:54Z</time>
      </trkpt>
      <trkpt lat="49.68968" lon="4.76559">
        <ele>162.41</ele>
        <time>2011-01-19T09:42:56Z</time>
      </trkpt>
      <trkpt lat="49.68967" lon="4.76555">
        <ele>162.48</ele>
        <time>2011-01-19T09:42:57Z</time>
      </trkpt>
      <trkpt lat="49.68963" lon="4.76549">
        <ele>162.7</ele>
        <time>2011-01-19T09:42:58Z</time>
      </trkpt>
      <trkpt lat="49.68959" lon="4.76545">
        <ele>162.87</ele>
        <time>2011-01-19T09:43:00Z</time>
      </trkpt>
      <trkpt lat="49.68956" lon="4.76542">
        <ele>162.95</ele>
        <time>2011-01-19T09:43:02Z</time>
      </trkpt>
      <trkpt lat="49.68952" lon="4.76539">
        <ele>162.26</ele>
        <time>2011-01-19T09:43:03Z</time>
      </trkpt>
      <trkpt lat="49.6895" lon="4.76538">
        <ele>161.89</ele>
        <time>2011-01-19T09:43:05Z</time>
      </trkpt>
      <trkpt lat="49.68948" lon="4.76537">
        <ele>161.15</ele>
        <time>2011-01-19T09:43:06Z</time>
      </trkpt>
      <trkpt lat="49.68945" lon="4.76537">
        <ele>160.47</ele>
        <time>2011-01-19T09:43:08Z</time>
      </trkpt>
      <trkpt lat="49.68942" lon="4.76537">
        <ele>160.288</ele>
        <time>2011-01-19T09:43:09Z</time>
      </trkpt>
      <trkpt lat="49.6894" lon="4.76538">
        <ele>160.23</ele>
        <time>2011-01-19T09:43:10Z</time>
      </trkpt>
      <trkpt lat="49.68936" lon="4.7654">
        <ele>160.17</ele>
        <time>2011-01-19T09:43:12Z</time>
      </trkpt>
      <trkpt lat="49.68932" lon="4.76542">
        <ele>160.201</ele>
        <time>2011-01-19T09:43:14Z</time>
      </trkpt>
      <trkpt lat="49.6893" lon="4.76542">
        <ele>160.225</ele>
        <time>2011-01-19T09:43:15Z</time>
      </trkpt>
      <trkpt lat="49.68927" lon="4.76544">
        <ele>160.302</ele>
        <time>2011-01-19T09:43:17Z</time>
      </trkpt>
      <trkpt lat="49.68924" lon="4.76548">
        <ele>160.39</ele>
        <time>2011-01-19T09:43:19Z</time>
      </trkpt>
      <trkpt lat="49.68922" lon="4.7655">
        <ele>160.4</ele>
        <time>2011-01-19T09:43:20Z</time>
      </trkpt>
      <trkpt lat="49.68919" lon="4.76553">
        <ele>160.47</ele>
        <time>2011-01-19T09:43:22Z</time>
      </trkpt>
      <trkpt lat="49.68917" lon="4.76554">
        <ele>160.556</ele>
        <time>2011-01-19T09:43:23Z</time>
      </trkpt>
      <trkpt lat="49.68914" lon="4.76555">
        <ele>160.916</ele>
        <time>2011-01-19T09:43:24Z</time>
      </trkpt>
      <trkpt lat="49.68913" lon="4.76557">
        <ele>161.472</ele>
        <time>2011-01-19T09:43:26Z</time>
      </trkpt>
      <trkpt lat="49.68911" lon="4.76559">
        <ele>162.25</ele>
        <time>2011-01-19T09:43:28Z</time>
      </trkpt>
      <trkpt lat="49.6891" lon="4.76561">
        <ele>162.86</ele>
        <time>2011-01-19T09:43:29Z</time>
      </trkpt>
      <trkpt lat="49.68906" lon="4.76562">
        <ele>165.98</ele>
        <time>2011-01-19T09:43:31Z</time>
      </trkpt>
      <trkpt lat="49.68903" lon="4.76563">
        <ele>166.634</ele>
        <time>2011-01-19T09:43:33Z</time>
      </trkpt>
      <trkpt lat="49.68902" lon="4.76563">
        <ele>166.801</ele>
        <time>2011-01-19T09:43:34Z</time>
      </trkpt>
      <trkpt lat="49.68898" lon="4.76564">
        <ele>167.142</ele>
        <time>2011-01-19T09:43:35Z</time>
      </trkpt>
      <trkpt lat="49.68895" lon="4.76566">
        <ele>167.433</ele>
        <time>2011-01-19T09:43:36Z</time>
      </trkpt>
      <trkpt lat="49.68891" lon="4.76569">
        <ele>167.56</ele>
        <time>2011-01-19T09:43:38Z</time>
      </trkpt>
      <trkpt lat="49.68888" lon="4.76573">
        <ele>167.61</ele>
        <time>2011-01-19T09:43:40Z</time>
      </trkpt>
      <trkpt lat="49.68886" lon="4.76576">
        <ele>167.636</ele>
        <time>2011-01-19T09:43:42Z</time>
      </trkpt>
      <trkpt lat="49.68884" lon="4.76579">
        <ele>167.72</ele>
        <time>2011-01-19T09:43:44Z</time>
      </trkpt>
      <trkpt lat="49.68881" lon="4.7658">
        <ele>167.712</ele>
        <time>2011-01-19T09:43:46Z</time>
      </trkpt>
      <trkpt lat="49.68878" lon="4.76581">
        <ele>167.9</ele>
        <time>2011-01-19T09:43:48Z</time>
      </trkpt>
      <trkpt lat="49.68876" lon="4.76582">
        <ele>167.986</ele>
        <time>2011-01-19T09:43:49Z</time>
      </trkpt>
      <trkpt lat="49.68873" lon="4.76585">
        <ele>168.05</ele>
        <time>2011-01-19T09:43:51Z</time>
      </trkpt>
      <trkpt lat="49.68871" lon="4.76588">
        <ele>167.67</ele>
        <time>2011-01-19T09:43:53Z</time>
      </trkpt>
      <trkpt lat="49.68869" lon="4.7659">
        <ele>166.93</ele>
        <time>2011-01-19T09:43:55Z</time>
      </trkpt>
      <trkpt lat="49.68868" lon="4.7659">
        <ele>166.67</ele>
        <time>2011-01-19T09:43:56Z</time>
      </trkpt>
      <trkpt lat="49.68867" lon="4.7659">
        <ele>166.51</ele>
        <time>2011-01-19T09:43:57Z</time>
      </trkpt>
      <trkpt lat="49.68864" lon="4.76592">
        <ele>166.61</ele>
        <time>2011-01-19T09:43:59Z</time>
      </trkpt>
      <trkpt lat="49.68863" lon="4.76594">
        <ele>166.75</ele>
        <time>2011-01-19T09:44:00Z</time>
      </trkpt>
      <trkpt lat="49.6886" lon="4.76599">
        <ele>167.01</ele>
        <time>2011-01-19T09:44:02Z</time>
      </trkpt>
      <trkpt lat="49.68859" lon="4.76604">
        <ele>167.81</ele>
        <time>2011-01-19T09:44:04Z</time>
      </trkpt>
      <trkpt lat="49.68858" lon="4.76605">
        <ele>168.21</ele>
        <time>2011-01-19T09:44:05Z</time>
      </trkpt>
      <trkpt lat="49.68856" lon="4.76605">
        <ele>168.94</ele>
        <time>2011-01-19T09:44:07Z</time>
      </trkpt>
      <trkpt lat="49.68854" lon="4.76604">
        <ele>169.2</ele>
        <time>2011-01-19T09:44:08Z</time>
      </trkpt>
      <trkpt lat="49.6885" lon="4.766">
        <ele>169.67</ele>
        <time>2011-01-19T09:44:10Z</time>
      </trkpt>
      <trkpt lat="49.68845" lon="4.76596">
        <ele>170.37</ele>
        <time>2011-01-19T09:44:12Z</time>
      </trkpt>
      <trkpt lat="49.6884" lon="4.76596">
        <ele>170.69</ele>
        <time>2011-01-19T09:44:14Z</time>
      </trkpt>
      <trkpt lat="49.68837" lon="4.766">
        <ele>171.04</ele>
        <time>2011-01-19T09:44:16Z</time>
      </trkpt>
      <trkpt lat="49.68837" lon="4.76605">
        <ele>171.36</ele>
        <time>2011-01-19T09:44:18Z</time>
      </trkpt>
      <trkpt lat="49.68835" lon="4.76607">
        <ele>171.71</ele>
        <time>2011-01-19T09:44:20Z</time>
      </trkpt>
      <trkpt lat="49.68832" lon="4.76609">
        <ele>171.73</ele>
        <time>2011-01-19T09:44:22Z</time>
      </trkpt>
      <trkpt lat="49.68828" lon="4.76614">
        <ele>171.43</ele>
        <time>2011-01-19T09:44:24Z</time>
      </trkpt>
      <trkpt lat="49.68827" lon="4.76616">
        <ele>171.24</ele>
        <time>2011-01-19T09:44:25Z</time>
      </trkpt>
      <trkpt lat="49.68825" lon="4.76621">
        <ele>170.76</ele>
        <time>2011-01-19T09:44:27Z</time>
      </trkpt>
      <trkpt lat="49.68823" lon="4.76623">
        <ele>170.47</ele>
        <time>2011-01-19T09:44:28Z</time>
      </trkpt>
      <trkpt lat="49.68819" lon="4.76629">
        <ele>169.75</ele>
        <time>2011-01-19T09:44:30Z</time>
      </trkpt>
      <trkpt lat="49.68815" lon="4.76636">
        <ele>169.12</ele>
        <time>2011-01-19T09:44:32Z</time>
      </trkpt>
      <trkpt lat="49.68811" lon="4.76642">
        <ele>168.9</ele>
        <time>2011-01-19T09:44:34Z</time>
      </trkpt>
      <trkpt lat="49.6881" lon="4.76644">
        <ele>168.68</ele>
        <time>2011-01-19T09:44:35Z</time>
      </trkpt>
      <trkpt lat="49.68807" lon="4.76648">
        <ele>168.43</ele>
        <time>2011-01-19T09:44:37Z</time>
      </trkpt>
      <trkpt lat="49.68805" lon="4.7665">
        <ele>168.37</ele>
        <time>2011-01-19T09:44:38Z</time>
      </trkpt>
      <trkpt lat="49.688" lon="4.76653">
        <ele>167.99</ele>
        <time>2011-01-19T09:44:40Z</time>
      </trkpt>
      <trkpt lat="49.68793" lon="4.76657">
        <ele>167.34</ele>
        <time>2011-01-19T09:44:42Z</time>
      </trkpt>
      <trkpt lat="49.68786" lon="4.76661">
        <ele>166.844</ele>
        <time>2011-01-19T09:44:44Z</time>
      </trkpt>
      <trkpt lat="49.68783" lon="4.76663">
        <ele>166.682</ele>
        <time>2011-01-19T09:44:45Z</time>
      </trkpt>
      <trkpt lat="49.68775" lon="4.76669">
        <ele>165.95</ele>
        <time>2011-01-19T09:44:47Z</time>
      </trkpt>
      <trkpt lat="49.68771" lon="4.76673">
        <ele>165.438</ele>
        <time>2011-01-19T09:44:48Z</time>
      </trkpt>
      <trkpt lat="49.68765" lon="4.76682">
        <ele>164.35</ele>
        <time>2011-01-19T09:44:50Z</time>
      </trkpt>
      <trkpt lat="49.68763" lon="4.76686">
        <ele>163.964</ele>
        <time>2011-01-19T09:44:51Z</time>
      </trkpt>
      <trkpt lat="49.68758" lon="4.76692">
        <ele>163.465</ele>
        <time>2011-01-19T09:44:53Z</time>
      </trkpt>
      <trkpt lat="49.68752" lon="4.767">
        <ele>163.163</ele>
        <time>2011-01-19T09:44:54Z</time>
      </trkpt>
      <trkpt lat="49.68746" lon="4.76709">
        <ele>162.943</ele>
        <time>2011-01-19T09:44:56Z</time>
      </trkpt>
      <trkpt lat="49.68742" lon="4.76715">
        <ele>162.882</ele>
        <time>2011-01-19T09:44:57Z</time>
      </trkpt>
      <trkpt lat="49.68735" lon="4.76726">
        <ele>162.67</ele>
        <time>2011-01-19T09:44:59Z</time>
      </trkpt>
      <trkpt lat="49.68728" lon="4.76734">
        <ele>162.6</ele>
        <time>2011-01-19T09:45:01Z</time>
      </trkpt>
      <trkpt lat="49.68724" lon="4.76739">
        <ele>162.496</ele>
        <time>2011-01-19T09:45:03Z</time>
      </trkpt>
      <trkpt lat="49.6872" lon="4.7674">
        <ele>162.546</ele>
        <time>2011-01-19T09:45:04Z</time>
      </trkpt>
      <trkpt lat="49.68717" lon="4.7674">
        <ele>162.616</ele>
        <time>2011-01-19T09:45:05Z</time>
      </trkpt>
      <trkpt lat="49.68711" lon="4.7674">
        <ele>162.779</ele>
        <time>2011-01-19T09:45:07Z</time>
      </trkpt>
      <trkpt lat="49.68708" lon="4.7674">
        <ele>162.92</ele>
        <time>2011-01-19T09:45:08Z</time>
      </trkpt>
      <trkpt lat="49.68705" lon="4.76741">
        <ele>163.126</ele>
        <time>2011-01-19T09:45:09Z</time>
      </trkpt>
      <trkpt lat="49.68701" lon="4.76744">
        <ele>164.006</ele>
        <time>2011-01-19T09:45:11Z</time>
      </trkpt>
      <trkpt lat="49.68699" lon="4.76744">
        <ele>164.432</ele>
        <time>2011-01-19T09:45:12Z</time>
      </trkpt>
      <trkpt lat="49.68697" lon="4.76746">
        <ele>165.15</ele>
        <time>2011-01-19T09:45:14Z</time>
      </trkpt>
      <trkpt lat="49.68693" lon="4.76748">
        <ele>165.66</ele>
        <time>2011-01-19T09:45:16Z</time>
      </trkpt>
      <trkpt lat="49.68688" lon="4.76749">
        <ele>166.564</ele>
        <time>2011-01-19T09:45:18Z</time>
      </trkpt>
      <trkpt lat="49.68686" lon="4.76751">
        <ele>166.851</ele>
        <time>2011-01-19T09:45:19Z</time>
      </trkpt>
      <trkpt lat="49.68683" lon="4.76752">
        <ele>167.121</ele>
        <time>2011-01-19T09:45:20Z</time>
      </trkpt>
      <trkpt lat="49.68678" lon="4.76754">
        <ele>167.479</ele>
        <time>2011-01-19T09:45:22Z</time>
      </trkpt>
      <trkpt lat="49.68673" lon="4.76755">
        <ele>167.669</ele>
        <time>2011-01-19T09:45:23Z</time>
      </trkpt>
      <trkpt lat="49.68666" lon="4.76755">
        <ele>167.67</ele>
        <time>2011-01-19T09:45:25Z</time>
      </trkpt>
      <trkpt lat="49.68662" lon="4.76756">
        <ele>167.66</ele>
        <time>2011-01-19T09:45:27Z</time>
      </trkpt>
      <trkpt lat="49.68659" lon="4.76757">
        <ele>167.89</ele>
        <time>2011-01-19T09:45:28Z</time>
      </trkpt>
      <trkpt lat="49.68655" lon="4.76755">
        <ele>168.73</ele>
        <time>2011-01-19T09:45:30Z</time>
      </trkpt>
      <trkpt lat="49.68651" lon="4.76755">
        <ele>169.37</ele>
        <time>2011-01-19T09:45:32Z</time>
      </trkpt>
      <trkpt lat="49.68646" lon="4.76755">
        <ele>169.96</ele>
        <time>2011-01-19T09:45:34Z</time>
      </trkpt>
      <trkpt lat="49.68641" lon="4.76757">
        <ele>170.31</ele>
        <time>2011-01-19T09:45:36Z</time>
      </trkpt>
      <trkpt lat="49.68636" lon="4.76758">
        <ele>170.443</ele>
        <time>2011-01-19T09:45:38Z</time>
      </trkpt>
      <trkpt lat="49.68635" lon="4.76759">
        <ele>170.469</ele>
        <time>2011-01-19T09:45:39Z</time>
      </trkpt>
      <trkpt lat="49.68632" lon="4.76761">
        <ele>170.488</ele>
        <time>2011-01-19T09:45:40Z</time>
      </trkpt>
      <trkpt lat="49.68627" lon="4.76763">
        <ele>170.57</ele>
        <time>2011-01-19T09:45:41Z</time>
      </trkpt>
      <trkpt lat="49.68625" lon="4.76764">
        <ele>170.7</ele>
        <time>2011-01-19T09:45:42Z</time>
      </trkpt>
      <trkpt lat="49.68621" lon="4.76766">
        <ele>171.093</ele>
        <time>2011-01-19T09:45:44Z</time>
      </trkpt>
      <trkpt lat="49.68618" lon="4.76768">
        <ele>171.79</ele>
        <time>2011-01-19T09:45:45Z</time>
      </trkpt>
      <trkpt lat="49.68616" lon="4.76769">
        <ele>171.95</ele>
        <time>2011-01-19T09:45:46Z</time>
      </trkpt>
      <trkpt lat="49.68611" lon="4.76771">
        <ele>172.21</ele>
        <time>2011-01-19T09:45:48Z</time>
      </trkpt>
      <trkpt lat="49.68608" lon="4.76773">
        <ele>171.85</ele>
        <time>2011-01-19T09:45:49Z</time>
      </trkpt>
      <trkpt lat="49.68605" lon="4.76775">
        <ele>171.557</ele>
        <time>2011-01-19T09:45:50Z</time>
      </trkpt>
      <trkpt lat="49.68599" lon="4.76778">
        <ele>171.178</ele>
        <time>2011-01-19T09:45:52Z</time>
      </trkpt>
      <trkpt lat="49.68596" lon="4.7678">
        <ele>171.06</ele>
        <time>2011-01-19T09:45:53Z</time>
      </trkpt>
      <trkpt lat="49.68593" lon="4.76782">
        <ele>170.964</ele>
        <time>2011-01-19T09:45:54Z</time>
      </trkpt>
      <trkpt lat="49.68587" lon="4.76785">
        <ele>170.86</ele>
        <time>2011-01-19T09:45:56Z</time>
      </trkpt>
      <trkpt lat="49.6858" lon="4.76789">
        <ele>170.678</ele>
        <time>2011-01-19T09:45:58Z</time>
      </trkpt>
      <trkpt lat="49.68576" lon="4.76791">
        <ele>170.622</ele>
        <time>2011-01-19T09:45:59Z</time>
      </trkpt>
      <trkpt lat="49.68571" lon="4.76797">
        <ele>170.496</ele>
        <time>2011-01-19T09:46:00Z</time>
      </trkpt>
      <trkpt lat="49.68566" lon="4.76803">
        <ele>170.309</ele>
        <time>2011-01-19T09:46:02Z</time>
      </trkpt>
      <trkpt lat="49.6856" lon="4.76808">
        <ele>169.785</ele>
        <time>2011-01-19T09:46:04Z</time>
      </trkpt>
      <trkpt lat="49.68556" lon="4.76809">
        <ele>169.483</ele>
        <time>2011-01-19T09:46:05Z</time>
      </trkpt>
      <trkpt lat="49.6855" lon="4.7681">
        <ele>169.14</ele>
        <time>2011-01-19T09:46:07Z</time>
      </trkpt>
      <trkpt lat="49.68543" lon="4.76809">
        <ele>168.445</ele>
        <time>2011-01-19T09:46:09Z</time>
      </trkpt>
      <trkpt lat="49.68538" lon="4.76807">
        <ele>167.565</ele>
        <time>2011-01-19T09:46:10Z</time>
      </trkpt>
      <trkpt lat="49.68535" lon="4.76804">
        <ele>166.816</ele>
        <time>2011-01-19T09:46:12Z</time>
      </trkpt>
      <trkpt lat="49.68529" lon="4.76803">
        <ele>166.848</ele>
        <time>2011-01-19T09:46:14Z</time>
      </trkpt>
      <trkpt lat="49.68524" lon="4.76803">
        <ele>167.436</ele>
        <time>2011-01-19T09:46:15Z</time>
      </trkpt>
      <trkpt lat="49.68518" lon="4.76803">
        <ele>168</ele>
        <time>2011-01-19T09:46:17Z</time>
      </trkpt>
      <trkpt lat="49.68514" lon="4.76804">
        <ele>168.24</ele>
        <time>2011-01-19T09:46:19Z</time>
      </trkpt>
      <trkpt lat="49.68503" lon="4.76811">
        <ele>168.78</ele>
        <time>2011-01-19T09:46:21Z</time>
      </trkpt>
      <trkpt lat="49.68497" lon="4.76819">
        <ele>168.842</ele>
        <time>2011-01-19T09:46:22Z</time>
      </trkpt>
      <trkpt lat="49.68495" lon="4.76822">
        <ele>168.729</ele>
        <time>2011-01-19T09:46:23Z</time>
      </trkpt>
      <trkpt lat="49.68487" lon="4.76834">
        <ele>167.945</ele>
        <time>2011-01-19T09:46:25Z</time>
      </trkpt>
      <trkpt lat="49.6848" lon="4.76842">
        <ele>167.468</ele>
        <time>2011-01-19T09:46:27Z</time>
      </trkpt>
      <trkpt lat="49.68472" lon="4.76851">
        <ele>167.083</ele>
        <time>2011-01-19T09:46:29Z</time>
      </trkpt>
      <trkpt lat="49.68468" lon="4.76859">
        <ele>166.744</ele>
        <time>2011-01-19T09:46:31Z</time>
      </trkpt>
      <trkpt lat="49.68464" lon="4.76865">
        <ele>166.651</ele>
        <time>2011-01-19T09:46:33Z</time>
      </trkpt>
      <trkpt lat="49.68463" lon="4.76867">
        <ele>166.857</ele>
        <time>2011-01-19T09:46:34Z</time>
      </trkpt>
      <trkpt lat="49.6846" lon="4.76871">
        <ele>167.84</ele>
        <time>2011-01-19T09:46:35Z</time>
      </trkpt>
      <trkpt lat="49.68457" lon="4.76874">
        <ele>168.763</ele>
        <time>2011-01-19T09:46:37Z</time>
      </trkpt>
      <trkpt lat="49.68453" lon="4.76873">
        <ele>169.88</ele>
        <time>2011-01-19T09:46:39Z</time>
      </trkpt>
      <trkpt lat="49.68448" lon="4.7687">
        <ele>170.746</ele>
        <time>2011-01-19T09:46:40Z</time>
      </trkpt>
      <trkpt lat="49.68445" lon="4.76868">
        <ele>171.233</ele>
        <time>2011-01-19T09:46:41Z</time>
      </trkpt>
      <trkpt lat="49.68439" lon="4.76864">
        <ele>172.076</ele>
        <time>2011-01-19T09:46:43Z</time>
      </trkpt>
      <trkpt lat="49.68433" lon="4.7686">
        <ele>172.839</ele>
        <time>2011-01-19T09:46:44Z</time>
      </trkpt>
      <trkpt lat="49.68427" lon="4.76859">
        <ele>173.414</ele>
        <time>2011-01-19T09:46:46Z</time>
      </trkpt>
      <trkpt lat="49.68422" lon="4.76857">
        <ele>173.428</ele>
        <time>2011-01-19T09:46:47Z</time>
      </trkpt>
      <trkpt lat="49.68416" lon="4.76855">
        <ele>173.294</ele>
        <time>2011-01-19T09:46:49Z</time>
      </trkpt>
      <trkpt lat="49.68408" lon="4.76851">
        <ele>173.105</ele>
        <time>2011-01-19T09:46:51Z</time>
      </trkpt>
      <trkpt lat="49.68401" lon="4.76844">
        <ele>172.793</ele>
        <time>2011-01-19T09:46:53Z</time>
      </trkpt>
      <trkpt lat="49.68398" lon="4.7684">
        <ele>172.589</ele>
        <time>2011-01-19T09:46:54Z</time>
      </trkpt>
      <trkpt lat="49.68391" lon="4.76834">
        <ele>172.256</ele>
        <time>2011-01-19T09:46:56Z</time>
      </trkpt>
      <trkpt lat="49.68384" lon="4.7683">
        <ele>172.219</ele>
        <time>2011-01-19T09:46:58Z</time>
      </trkpt>
      <trkpt lat="49.68377" lon="4.76828">
        <ele>172.153</ele>
        <time>2011-01-19T09:47:00Z</time>
      </trkpt>
      <trkpt lat="49.68374" lon="4.76826">
        <ele>172.131</ele>
        <time>2011-01-19T09:47:01Z</time>
      </trkpt>
      <trkpt lat="49.68367" lon="4.76821">
        <ele>172.5</ele>
        <time>2011-01-19T09:47:03Z</time>
      </trkpt>
      <trkpt lat="49.68361" lon="4.76817">
        <ele>173.22</ele>
        <time>2011-01-19T09:47:04Z</time>
      </trkpt>
      <trkpt lat="49.68356" lon="4.76812">
        <ele>173.5</ele>
        <time>2011-01-19T09:47:06Z</time>
      </trkpt>
      <trkpt lat="49.68354" lon="4.76811">
        <ele>173.3</ele>
        <time>2011-01-19T09:47:07Z</time>
      </trkpt>
      <trkpt lat="49.68351" lon="4.76806">
        <ele>173.503</ele>
        <time>2011-01-19T09:47:09Z</time>
      </trkpt>
      <trkpt lat="49.68347" lon="4.76801">
        <ele>173.786</ele>
        <time>2011-01-19T09:47:10Z</time>
      </trkpt>
      <trkpt lat="49.68341" lon="4.76797">
        <ele>174.022</ele>
        <time>2011-01-19T09:47:12Z</time>
      </trkpt>
      <trkpt lat="49.68338" lon="4.76793">
        <ele>173.804</ele>
        <time>2011-01-19T09:47:13Z</time>
      </trkpt>
      <trkpt lat="49.68333" lon="4.76785">
        <ele>173.61</ele>
        <time>2011-01-19T09:47:15Z</time>
      </trkpt>
      <trkpt lat="49.68331" lon="4.76781">
        <ele>173.788</ele>
        <time>2011-01-19T09:47:16Z</time>
      </trkpt>
      <trkpt lat="49.68328" lon="4.76775">
        <ele>174.725</ele>
        <time>2011-01-19T09:47:17Z</time>
      </trkpt>
      <trkpt lat="49.68326" lon="4.76772">
        <ele>175.494</ele>
        <time>2011-01-19T09:47:18Z</time>
      </trkpt>
      <trkpt lat="49.68324" lon="4.76767">
        <ele>176.956</ele>
        <time>2011-01-19T09:47:20Z</time>
      </trkpt>
      <trkpt lat="49.68322" lon="4.76763">
        <ele>177.65</ele>
        <time>2011-01-19T09:47:21Z</time>
      </trkpt>
      <trkpt lat="49.68318" lon="4.76755">
        <ele>179.856</ele>
        <time>2011-01-19T09:47:23Z</time>
      </trkpt>
      <trkpt lat="49.68315" lon="4.7675">
        <ele>180.846</ele>
        <time>2011-01-19T09:47:24Z</time>
      </trkpt>
      <trkpt lat="49.68312" lon="4.76745">
        <ele>181.457</ele>
        <time>2011-01-19T09:47:25Z</time>
      </trkpt>
      <trkpt lat="49.68307" lon="4.76735">
        <ele>182.138</ele>
        <time>2011-01-19T09:47:27Z</time>
      </trkpt>
      <trkpt lat="49.68301" lon="4.76725">
        <ele>181.998</ele>
        <time>2011-01-19T09:47:28Z</time>
      </trkpt>
      <trkpt lat="49.68292" lon="4.76717">
        <ele>181.556</ele>
        <time>2011-01-19T09:47:30Z</time>
      </trkpt>
      <trkpt lat="49.68289" lon="4.76716">
        <ele>181.265</ele>
        <time>2011-01-19T09:47:31Z</time>
      </trkpt>
      <trkpt lat="49.68285" lon="4.76714">
        <ele>180.928</ele>
        <time>2011-01-19T09:47:32Z</time>
      </trkpt>
      <trkpt lat="49.68274" lon="4.76711">
        <ele>180.234</ele>
        <time>2011-01-19T09:47:34Z</time>
      </trkpt>
      <trkpt lat="49.68268" lon="4.76709">
        <ele>179.943</ele>
        <time>2011-01-19T09:47:36Z</time>
      </trkpt>
      <trkpt lat="49.68259" lon="4.76707">
        <ele>179.13</ele>
        <time>2011-01-19T09:47:37Z</time>
      </trkpt>
      <trkpt lat="49.68255" lon="4.76707">
        <ele>178.826</ele>
        <time>2011-01-19T09:47:38Z</time>
      </trkpt>
      <trkpt lat="49.68247" lon="4.76706">
        <ele>178.112</ele>
        <time>2011-01-19T09:47:40Z</time>
      </trkpt>
      <trkpt lat="49.68243" lon="4.76706">
        <ele>177.288</ele>
        <time>2011-01-19T09:47:41Z</time>
      </trkpt>
      <trkpt lat="49.68236" lon="4.76706">
        <ele>175.721</ele>
        <time>2011-01-19T09:47:43Z</time>
      </trkpt>
      <trkpt lat="49.68231" lon="4.76707">
        <ele>174.424</ele>
        <time>2011-01-19T09:47:45Z</time>
      </trkpt>
      <trkpt lat="49.68228" lon="4.76707">
        <ele>174.125</ele>
        <time>2011-01-19T09:47:46Z</time>
      </trkpt>
      <trkpt lat="49.68225" lon="4.76707">
        <ele>174.297</ele>
        <time>2011-01-19T09:47:47Z</time>
      </trkpt>
      <trkpt lat="49.68222" lon="4.76706">
        <ele>174.581</ele>
        <time>2011-01-19T09:47:48Z</time>
      </trkpt>
      <trkpt lat="49.68214" lon="4.76704">
        <ele>175.13</ele>
        <time>2011-01-19T09:47:49Z</time>
      </trkpt>
      <trkpt lat="49.68211" lon="4.76703">
        <ele>175.57</ele>
        <time>2011-01-19T09:47:50Z</time>
      </trkpt>
      <trkpt lat="49.68203" lon="4.76701">
        <ele>176.42</ele>
        <time>2011-01-19T09:47:52Z</time>
      </trkpt>
      <trkpt lat="49.68196" lon="4.767">
        <ele>177.05</ele>
        <time>2011-01-19T09:47:54Z</time>
      </trkpt>
      <trkpt lat="49.68189" lon="4.767">
        <ele>177.15</ele>
        <time>2011-01-19T09:47:56Z</time>
      </trkpt>
      <trkpt lat="49.68181" lon="4.76702">
        <ele>177.24</ele>
        <time>2011-01-19T09:47:58Z</time>
      </trkpt>
      <trkpt lat="49.68174" lon="4.76707">
        <ele>176.84</ele>
        <time>2011-01-19T09:48:00Z</time>
      </trkpt>
      <trkpt lat="49.68169" lon="4.7671">
        <ele>176.42</ele>
        <time>2011-01-19T09:48:02Z</time>
      </trkpt>
      <trkpt lat="49.68162" lon="4.76713">
        <ele>176.108</ele>
        <time>2011-01-19T09:48:04Z</time>
      </trkpt>
      <trkpt lat="49.68155" lon="4.76716">
        <ele>176.019</ele>
        <time>2011-01-19T09:48:06Z</time>
      </trkpt>
      <trkpt lat="49.68149" lon="4.76719">
        <ele>175.766</ele>
        <time>2011-01-19T09:48:08Z</time>
      </trkpt>
      <trkpt lat="49.68147" lon="4.7672">
        <ele>175.889</ele>
        <time>2011-01-19T09:48:09Z</time>
      </trkpt>
      <trkpt lat="49.68143" lon="4.76721">
        <ele>176.618</ele>
        <time>2011-01-19T09:48:10Z</time>
      </trkpt>
      <trkpt lat="49.68141" lon="4.76721">
        <ele>177.306</ele>
        <time>2011-01-19T09:48:11Z</time>
      </trkpt>
      <trkpt lat="49.68139" lon="4.76721">
        <ele>178.186</ele>
        <time>2011-01-19T09:48:12Z</time>
      </trkpt>
      <trkpt lat="49.68137" lon="4.7672">
        <ele>178.925</ele>
        <time>2011-01-19T09:48:14Z</time>
      </trkpt>
      <trkpt lat="49.68134" lon="4.7672">
        <ele>179.464</ele>
        <time>2011-01-19T09:48:16Z</time>
      </trkpt>
      <trkpt lat="49.68129" lon="4.76722">
        <ele>180.458</ele>
        <time>2011-01-19T09:48:17Z</time>
      </trkpt>
      <trkpt lat="49.68127" lon="4.76723">
        <ele>180.7</ele>
        <time>2011-01-19T09:48:18Z</time>
      </trkpt>
      <trkpt lat="49.68123" lon="4.76725">
        <ele>180.906</ele>
        <time>2011-01-19T09:48:20Z</time>
      </trkpt>
      <trkpt lat="49.68121" lon="4.76727">
        <ele>180.966</ele>
        <time>2011-01-19T09:48:21Z</time>
      </trkpt>
      <trkpt lat="49.68117" lon="4.76729">
        <ele>180.921</ele>
        <time>2011-01-19T09:48:22Z</time>
      </trkpt>
      <trkpt lat="49.68115" lon="4.7673">
        <ele>180.911</ele>
        <time>2011-01-19T09:48:23Z</time>
      </trkpt>
      <trkpt lat="49.6811" lon="4.76732">
        <ele>180.74</ele>
        <time>2011-01-19T09:48:25Z</time>
      </trkpt>
      <trkpt lat="49.68105" lon="4.76735">
        <ele>180.278</ele>
        <time>2011-01-19T09:48:27Z</time>
      </trkpt>
      <trkpt lat="49.68098" lon="4.76738">
        <ele>179.789</ele>
        <time>2011-01-19T09:48:29Z</time>
      </trkpt>
      <trkpt lat="49.68094" lon="4.7674">
        <ele>179.664</ele>
        <time>2011-01-19T09:48:30Z</time>
      </trkpt>
      <trkpt lat="49.68087" lon="4.76742">
        <ele>179.313</ele>
        <time>2011-01-19T09:48:32Z</time>
      </trkpt>
      <trkpt lat="49.68083" lon="4.76744">
        <ele>179.057</ele>
        <time>2011-01-19T09:48:33Z</time>
      </trkpt>
      <trkpt lat="49.68074" lon="4.76746">
        <ele>178.688</ele>
        <time>2011-01-19T09:48:35Z</time>
      </trkpt>
      <trkpt lat="49.68069" lon="4.76748">
        <ele>178.8</ele>
        <time>2011-01-19T09:48:36Z</time>
      </trkpt>
      <trkpt lat="49.68058" lon="4.76752">
        <ele>178.949</ele>
        <time>2011-01-19T09:48:38Z</time>
      </trkpt>
      <trkpt lat="49.68052" lon="4.76755">
        <ele>178.924</ele>
        <time>2011-01-19T09:48:39Z</time>
      </trkpt>
      <trkpt lat="49.68046" lon="4.76757">
        <ele>178.84</ele>
        <time>2011-01-19T09:48:40Z</time>
      </trkpt>
      <trkpt lat="49.68036" lon="4.76761">
        <ele>178.705</ele>
        <time>2011-01-19T09:48:42Z</time>
      </trkpt>
      <trkpt lat="49.68027" lon="4.76763">
        <ele>178.69</ele>
        <time>2011-01-19T09:48:43Z</time>
      </trkpt>
      <trkpt lat="49.68017" lon="4.76765">
        <ele>178.64</ele>
        <time>2011-01-19T09:48:45Z</time>
      </trkpt>
      <trkpt lat="49.68008" lon="4.76766">
        <ele>178.3</ele>
        <time>2011-01-19T09:48:47Z</time>
      </trkpt>
      <trkpt lat="49.68003" lon="4.76766">
        <ele>178.08</ele>
        <time>2011-01-19T09:48:48Z</time>
      </trkpt>
      <trkpt lat="49.67995" lon="4.76765">
        <ele>177.861</ele>
        <time>2011-01-19T09:48:50Z</time>
      </trkpt>
      <trkpt lat="49.67984" lon="4.76765">
        <ele>177.412</ele>
        <time>2011-01-19T09:48:52Z</time>
      </trkpt>
      <trkpt lat="49.67972" lon="4.76766">
        <ele>176.461</ele>
        <time>2011-01-19T09:48:54Z</time>
      </trkpt>
      <trkpt lat="49.67963" lon="4.76767">
        <ele>175.472</ele>
        <time>2011-01-19T09:48:55Z</time>
      </trkpt>
      <trkpt lat="49.67959" lon="4.76767">
        <ele>174.868</ele>
        <time>2011-01-19T09:48:56Z</time>
      </trkpt>
      <trkpt lat="49.67951" lon="4.76767">
        <ele>174.09</ele>
        <time>2011-01-19T09:48:58Z</time>
      </trkpt>
      <trkpt lat="49.67941" lon="4.76768">
        <ele>173.76</ele>
        <time>2011-01-19T09:49:00Z</time>
      </trkpt>
      <trkpt lat="49.6793" lon="4.76767">
        <ele>173.52</ele>
        <time>2011-01-19T09:49:02Z</time>
      </trkpt>
      <trkpt lat="49.67924" lon="4.76767">
        <ele>173.32</ele>
        <time>2011-01-19T09:49:03Z</time>
      </trkpt>
      <trkpt lat="49.67915" lon="4.76765">
        <ele>172.95</ele>
        <time>2011-01-19T09:49:05Z</time>
      </trkpt>
      <trkpt lat="49.6791" lon="4.76764">
        <ele>172.79</ele>
        <time>2011-01-19T09:49:06Z</time>
      </trkpt>
      <trkpt lat="49.67897" lon="4.76761">
        <ele>172.434</ele>
        <time>2011-01-19T09:49:07Z</time>
      </trkpt>
      <trkpt lat="49.6789" lon="4.76759">
        <ele>172.42</ele>
        <time>2011-01-19T09:49:08Z</time>
      </trkpt>
      <trkpt lat="49.67875" lon="4.76756">
        <ele>172.488</ele>
        <time>2011-01-19T09:49:10Z</time>
      </trkpt>
      <trkpt lat="49.6787" lon="4.76754">
        <ele>172.661</ele>
        <time>2011-01-19T09:49:11Z</time>
      </trkpt>
      <trkpt lat="49.67859" lon="4.76749">
        <ele>172.816</ele>
        <time>2011-01-19T09:49:13Z</time>
      </trkpt>
      <trkpt lat="49.67849" lon="4.76741">
        <ele>172.86</ele>
        <time>2011-01-19T09:49:15Z</time>
      </trkpt>
      <trkpt lat="49.67842" lon="4.76736">
        <ele>172.823</ele>
        <time>2011-01-19T09:49:16Z</time>
      </trkpt>
      <trkpt lat="49.67827" lon="4.76725">
        <ele>172.719</ele>
        <time>2011-01-19T09:49:18Z</time>
      </trkpt>
      <trkpt lat="49.6782" lon="4.7672">
        <ele>172.64</ele>
        <time>2011-01-19T09:49:19Z</time>
      </trkpt>
      <trkpt lat="49.67806" lon="4.7671">
        <ele>171.775</ele>
        <time>2011-01-19T09:49:21Z</time>
      </trkpt>
      <trkpt lat="49.67795" lon="4.76697">
        <ele>170.08</ele>
        <time>2011-01-19T09:49:22Z</time>
      </trkpt>
      <trkpt lat="49.67786" lon="4.76685">
        <ele>169.2</ele>
        <time>2011-01-19T09:49:24Z</time>
      </trkpt>
      <trkpt lat="49.67781" lon="4.76679">
        <ele>168.84</ele>
        <time>2011-01-19T09:49:25Z</time>
      </trkpt>
      <trkpt lat="49.67772" lon="4.76668">
        <ele>168.05</ele>
        <time>2011-01-19T09:49:27Z</time>
      </trkpt>
      <trkpt lat="49.67766" lon="4.76661">
        <ele>167.64</ele>
        <time>2011-01-19T09:49:28Z</time>
      </trkpt>
      <trkpt lat="49.6776" lon="4.76654">
        <ele>167.23</ele>
        <time>2011-01-19T09:49:29Z</time>
      </trkpt>
      <trkpt lat="49.67748" lon="4.76641">
        <ele>166.7</ele>
        <time>2011-01-19T09:49:31Z</time>
      </trkpt>
      <trkpt lat="49.67738" lon="4.76627">
        <ele>166.39</ele>
        <time>2011-01-19T09:49:32Z</time>
      </trkpt>
      <trkpt lat="49.6773" lon="4.76614">
        <ele>166.1</ele>
        <time>2011-01-19T09:49:34Z</time>
      </trkpt>
      <trkpt lat="49.67725" lon="4.76607">
        <ele>165.9</ele>
        <time>2011-01-19T09:49:35Z</time>
      </trkpt>
      <trkpt lat="49.67721" lon="4.76601">
        <ele>165.73</ele>
        <time>2011-01-19T09:49:36Z</time>
      </trkpt>
      <trkpt lat="49.67709" lon="4.76585">
        <ele>165.304</ele>
        <time>2011-01-19T09:49:38Z</time>
      </trkpt>
      <trkpt lat="49.67702" lon="4.76578">
        <ele>164.963</ele>
        <time>2011-01-19T09:49:40Z</time>
      </trkpt>
      <trkpt lat="49.67692" lon="4.7657">
        <ele>164.632</ele>
        <time>2011-01-19T09:49:41Z</time>
      </trkpt>
      <trkpt lat="49.67689" lon="4.76567">
        <ele>164.55</ele>
        <time>2011-01-19T09:49:42Z</time>
      </trkpt>
      <trkpt lat="49.67682" lon="4.76556">
        <ele>164.564</ele>
        <time>2011-01-19T09:49:44Z</time>
      </trkpt>
      <trkpt lat="49.67677" lon="4.76545">
        <ele>164.577</ele>
        <time>2011-01-19T09:49:46Z</time>
      </trkpt>
      <trkpt lat="49.67671" lon="4.7653">
        <ele>164.565</ele>
        <time>2011-01-19T09:49:48Z</time>
      </trkpt>
      <trkpt lat="49.6767" lon="4.76523">
        <ele>164.559</ele>
        <time>2011-01-19T09:49:49Z</time>
      </trkpt>
      <trkpt lat="49.67668" lon="4.76511">
        <ele>164.568</ele>
        <time>2011-01-19T09:49:51Z</time>
      </trkpt>
      <trkpt lat="49.67667" lon="4.76503">
        <ele>164.869</ele>
        <time>2011-01-19T09:49:53Z</time>
      </trkpt>
      <trkpt lat="49.67664" lon="4.765">
        <ele>165.204</ele>
        <time>2011-01-19T09:49:54Z</time>
      </trkpt>
      <trkpt lat="49.67657" lon="4.765">
        <ele>166.369</ele>
        <time>2011-01-19T09:49:56Z</time>
      </trkpt>
      <trkpt lat="49.67652" lon="4.76501">
        <ele>167.062</ele>
        <time>2011-01-19T09:49:57Z</time>
      </trkpt>
      <trkpt lat="49.67641" lon="4.76503">
        <ele>168.459</ele>
        <time>2011-01-19T09:49:58Z</time>
      </trkpt>
      <trkpt lat="49.67636" lon="4.76502">
        <ele>169.039</ele>
        <time>2011-01-19T09:49:59Z</time>
      </trkpt>
      <trkpt lat="49.67628" lon="4.76496">
        <ele>169.93</ele>
        <time>2011-01-19T09:50:01Z</time>
      </trkpt>
      <trkpt lat="49.67621" lon="4.76483">
        <ele>170.757</ele>
        <time>2011-01-19T09:50:03Z</time>
      </trkpt>
      <trkpt lat="49.67618" lon="4.76471">
        <ele>171.258</ele>
        <time>2011-01-19T09:50:05Z</time>
      </trkpt>
      <trkpt lat="49.67612" lon="4.76449">
        <ele>171.465</ele>
        <time>2011-01-19T09:50:07Z</time>
      </trkpt>
      <trkpt lat="49.67608" lon="4.76439">
        <ele>171.704</ele>
        <time>2011-01-19T09:50:09Z</time>
      </trkpt>
      <trkpt lat="49.67604" lon="4.76433">
        <ele>172.324</ele>
        <time>2011-01-19T09:50:10Z</time>
      </trkpt>
      <trkpt lat="49.67599" lon="4.76428">
        <ele>172.946</ele>
        <time>2011-01-19T09:50:12Z</time>
      </trkpt>
      <trkpt lat="49.67594" lon="4.76423">
        <ele>175.746</ele>
        <time>2011-01-19T09:50:14Z</time>
      </trkpt>
      <trkpt lat="49.67588" lon="4.76417">
        <ele>176.825</ele>
        <time>2011-01-19T09:50:16Z</time>
      </trkpt>
      <trkpt lat="49.67584" lon="4.76415">
        <ele>177.41</ele>
        <time>2011-01-19T09:50:17Z</time>
      </trkpt>
      <trkpt lat="49.6758" lon="4.76413">
        <ele>177.96</ele>
        <time>2011-01-19T09:50:18Z</time>
      </trkpt>
      <trkpt lat="49.67572" lon="4.76409">
        <ele>179.22</ele>
        <time>2011-01-19T09:50:19Z</time>
      </trkpt>
      <trkpt lat="49.6757" lon="4.76407">
        <ele>179.81</ele>
        <time>2011-01-19T09:50:20Z</time>
      </trkpt>
      <trkpt lat="49.67565" lon="4.76398">
        <ele>181.65</ele>
        <time>2011-01-19T09:50:22Z</time>
      </trkpt>
      <trkpt lat="49.67564" lon="4.76394">
        <ele>182.33</ele>
        <time>2011-01-19T09:50:23Z</time>
      </trkpt>
      <trkpt lat="49.67559" lon="4.76381">
        <ele>183.85</ele>
        <time>2011-01-19T09:50:25Z</time>
      </trkpt>
      <trkpt lat="49.67557" lon="4.76374">
        <ele>184.58</ele>
        <time>2011-01-19T09:50:26Z</time>
      </trkpt>
      <trkpt lat="49.67551" lon="4.76357">
        <ele>185.79</ele>
        <time>2011-01-19T09:50:28Z</time>
      </trkpt>
      <trkpt lat="49.67542" lon="4.76341">
        <ele>187</ele>
        <time>2011-01-19T09:50:30Z</time>
      </trkpt>
      <trkpt lat="49.6754" lon="4.76338">
        <ele>187.31</ele>
        <time>2011-01-19T09:50:31Z</time>
      </trkpt>
      <trkpt lat="49.67536" lon="4.76332">
        <ele>187.71</ele>
        <time>2011-01-19T09:50:33Z</time>
      </trkpt>
      <trkpt lat="49.67531" lon="4.76325">
        <ele>187.6</ele>
        <time>2011-01-19T09:50:34Z</time>
      </trkpt>
      <trkpt lat="49.67526" lon="4.76314">
        <ele>187.43</ele>
        <time>2011-01-19T09:50:36Z</time>
      </trkpt>
      <trkpt lat="49.67523" lon="4.76308">
        <ele>187.35</ele>
        <time>2011-01-19T09:50:37Z</time>
      </trkpt>
      <trkpt lat="49.67519" lon="4.76298">
        <ele>187.47</ele>
        <time>2011-01-19T09:50:39Z</time>
      </trkpt>
      <trkpt lat="49.67513" lon="4.7629">
        <ele>187.73</ele>
        <time>2011-01-19T09:50:41Z</time>
      </trkpt>
      <trkpt lat="49.6751" lon="4.76288">
        <ele>187.95</ele>
        <time>2011-01-19T09:50:42Z</time>
      </trkpt>
      <trkpt lat="49.67506" lon="4.76285">
        <ele>188.19</ele>
        <time>2011-01-19T09:50:43Z</time>
      </trkpt>
      <trkpt lat="49.675" lon="4.76275">
        <ele>188.65</ele>
        <time>2011-01-19T09:50:44Z</time>
      </trkpt>
      <trkpt lat="49.67497" lon="4.76269">
        <ele>188.89</ele>
        <time>2011-01-19T09:50:45Z</time>
      </trkpt>
      <trkpt lat="49.67492" lon="4.7626">
        <ele>189.38</ele>
        <time>2011-01-19T09:50:47Z</time>
      </trkpt>
      <trkpt lat="49.67489" lon="4.76255">
        <ele>189.53</ele>
        <time>2011-01-19T09:50:48Z</time>
      </trkpt>
      <trkpt lat="49.67484" lon="4.76248">
        <ele>189.55</ele>
        <time>2011-01-19T09:50:49Z</time>
      </trkpt>
      <trkpt lat="49.67476" lon="4.76239">
        <ele>189.57</ele>
        <time>2011-01-19T09:50:51Z</time>
      </trkpt>
      <trkpt lat="49.67468" lon="4.7623">
        <ele>189.78</ele>
        <time>2011-01-19T09:50:53Z</time>
      </trkpt>
      <trkpt lat="49.67464" lon="4.76226">
        <ele>189.91</ele>
        <time>2011-01-19T09:50:54Z</time>
      </trkpt>
      <trkpt lat="49.67456" lon="4.76221">
        <ele>190.16</ele>
        <time>2011-01-19T09:50:56Z</time>
      </trkpt>
      <trkpt lat="49.67454" lon="4.76219">
        <ele>190.28</ele>
        <time>2011-01-19T09:50:57Z</time>
      </trkpt>
      <trkpt lat="49.67448" lon="4.76216">
        <ele>190.236</ele>
        <time>2011-01-19T09:50:59Z</time>
      </trkpt>
      <trkpt lat="49.67443" lon="4.76206">
        <ele>190.466</ele>
        <time>2011-01-19T09:51:00Z</time>
      </trkpt>
      <trkpt lat="49.67441" lon="4.76201">
        <ele>190.438</ele>
        <time>2011-01-19T09:51:02Z</time>
      </trkpt>
      <trkpt lat="49.67436" lon="4.76185">
        <ele>190.435</ele>
        <time>2011-01-19T09:51:04Z</time>
      </trkpt>
      <trkpt lat="49.67431" lon="4.76178">
        <ele>190.72</ele>
        <time>2011-01-19T09:51:05Z</time>
      </trkpt>
      <trkpt lat="49.67426" lon="4.76171">
        <ele>191.14</ele>
        <time>2011-01-19T09:51:07Z</time>
      </trkpt>
      <trkpt lat="49.67419" lon="4.76161">
        <ele>191.48</ele>
        <time>2011-01-19T09:51:09Z</time>
      </trkpt>
      <trkpt lat="49.67414" lon="4.76153">
        <ele>192.01</ele>
        <time>2011-01-19T09:51:11Z</time>
      </trkpt>
      <trkpt lat="49.6741" lon="4.7614">
        <ele>192.04</ele>
        <time>2011-01-19T09:51:13Z</time>
      </trkpt>
      <trkpt lat="49.67404" lon="4.76126">
        <ele>191.459</ele>
        <time>2011-01-19T09:51:15Z</time>
      </trkpt>
      <trkpt lat="49.67401" lon="4.76119">
        <ele>191.128</ele>
        <time>2011-01-19T09:51:16Z</time>
      </trkpt>
      <trkpt lat="49.67395" lon="4.76105">
        <ele>190.293</ele>
        <time>2011-01-19T09:51:18Z</time>
      </trkpt>
      <trkpt lat="49.67389" lon="4.76095">
        <ele>189.302</ele>
        <time>2011-01-19T09:51:20Z</time>
      </trkpt>
      <trkpt lat="49.67386" lon="4.76091">
        <ele>188.766</ele>
        <time>2011-01-19T09:51:21Z</time>
      </trkpt>
      <trkpt lat="49.67376" lon="4.76087">
        <ele>187.411</ele>
        <time>2011-01-19T09:51:22Z</time>
      </trkpt>
      <trkpt lat="49.67367" lon="4.76085">
        <ele>185.928</ele>
        <time>2011-01-19T09:51:24Z</time>
      </trkpt>
      <trkpt lat="49.67356" lon="4.76083">
        <ele>184.191</ele>
        <time>2011-01-19T09:51:25Z</time>
      </trkpt>
      <trkpt lat="49.67349" lon="4.7608">
        <ele>182.393</ele>
        <time>2011-01-19T09:51:27Z</time>
      </trkpt>
      <trkpt lat="49.67341" lon="4.76078">
        <ele>180.61</ele>
        <time>2011-01-19T09:51:28Z</time>
      </trkpt>
      <trkpt lat="49.67332" lon="4.76076">
        <ele>179.138</ele>
        <time>2011-01-19T09:51:30Z</time>
      </trkpt>
      <trkpt lat="49.67323" lon="4.76072">
        <ele>177.941</ele>
        <time>2011-01-19T09:51:32Z</time>
      </trkpt>
      <trkpt lat="49.67318" lon="4.7607">
        <ele>177.4</ele>
        <time>2011-01-19T09:51:33Z</time>
      </trkpt>
      <trkpt lat="49.67309" lon="4.76065">
        <ele>176.833</ele>
        <time>2011-01-19T09:51:35Z</time>
      </trkpt>
      <trkpt lat="49.67305" lon="4.76062">
        <ele>176.568</ele>
        <time>2011-01-19T09:51:36Z</time>
      </trkpt>
      <trkpt lat="49.67297" lon="4.76058">
        <ele>175.892</ele>
        <time>2011-01-19T09:51:38Z</time>
      </trkpt>
      <trkpt lat="49.67289" lon="4.76055">
        <ele>175.348</ele>
        <time>2011-01-19T09:51:39Z</time>
      </trkpt>
      <trkpt lat="49.67278" lon="4.76053">
        <ele>174.13</ele>
        <time>2011-01-19T09:51:41Z</time>
      </trkpt>
      <trkpt lat="49.67275" lon="4.76052">
        <ele>173.93</ele>
        <time>2011-01-19T09:51:42Z</time>
      </trkpt>
      <trkpt lat="49.67269" lon="4.7605">
        <ele>173.45</ele>
        <time>2011-01-19T09:51:44Z</time>
      </trkpt>
      <trkpt lat="49.67262" lon="4.76047">
        <ele>173</ele>
        <time>2011-01-19T09:51:45Z</time>
      </trkpt>
      <trkpt lat="49.67254" lon="4.76045">
        <ele>173.1</ele>
        <time>2011-01-19T09:51:47Z</time>
      </trkpt>
      <trkpt lat="49.67246" lon="4.76042">
        <ele>173.52</ele>
        <time>2011-01-19T09:51:49Z</time>
      </trkpt>
      <trkpt lat="49.67242" lon="4.76041">
        <ele>173.8</ele>
        <time>2011-01-19T09:51:50Z</time>
      </trkpt>
      <trkpt lat="49.67239" lon="4.7604">
        <ele>173.99</ele>
        <time>2011-01-19T09:51:51Z</time>
      </trkpt>
      <trkpt lat="49.67232" lon="4.76038">
        <ele>174.38</ele>
        <time>2011-01-19T09:51:53Z</time>
      </trkpt>
      <trkpt lat="49.67228" lon="4.76037">
        <ele>174.58</ele>
        <time>2011-01-19T09:51:54Z</time>
      </trkpt>
      <trkpt lat="49.67218" lon="4.76032">
        <ele>174.602</ele>
        <time>2011-01-19T09:51:55Z</time>
      </trkpt>
      <trkpt lat="49.6721" lon="4.76029">
        <ele>174.272</ele>
        <time>2011-01-19T09:51:57Z</time>
      </trkpt>
      <trkpt lat="49.672" lon="4.76024">
        <ele>174.116</ele>
        <time>2011-01-19T09:51:59Z</time>
      </trkpt>
      <trkpt lat="49.67192" lon="4.76018">
        <ele>174.224</ele>
        <time>2011-01-19T09:52:01Z</time>
      </trkpt>
      <trkpt lat="49.67189" lon="4.76014">
        <ele>174.326</ele>
        <time>2011-01-19T09:52:02Z</time>
      </trkpt>
      <trkpt lat="49.67186" lon="4.76009">
        <ele>173.992</ele>
        <time>2011-01-19T09:52:04Z</time>
      </trkpt>
      <trkpt lat="49.67185" lon="4.76005">
        <ele>174.11</ele>
        <time>2011-01-19T09:52:06Z</time>
      </trkpt>
      <trkpt lat="49.67189" lon="4.76001">
        <ele>174.366</ele>
        <time>2011-01-19T09:52:08Z</time>
      </trkpt>
      <trkpt lat="49.67196" lon="4.75998">
        <ele>174.957</ele>
        <time>2011-01-19T09:52:10Z</time>
      </trkpt>
      <trkpt lat="49.672" lon="4.75995">
        <ele>175.152</ele>
        <time>2011-01-19T09:52:11Z</time>
      </trkpt>
      <trkpt lat="49.67209" lon="4.75987">
        <ele>175.79</ele>
        <time>2011-01-19T09:52:13Z</time>
      </trkpt>
      <trkpt lat="49.67219" lon="4.75978">
        <ele>176.77</ele>
        <time>2011-01-19T09:52:15Z</time>
      </trkpt>
      <trkpt lat="49.67227" lon="4.75971">
        <ele>177.81</ele>
        <time>2011-01-19T09:52:17Z</time>
      </trkpt>
      <trkpt lat="49.67232" lon="4.75966">
        <ele>178.24</ele>
        <time>2011-01-19T09:52:18Z</time>
      </trkpt>
      <trkpt lat="49.67237" lon="4.75961">
        <ele>178.67</ele>
        <time>2011-01-19T09:52:19Z</time>
      </trkpt>
      <trkpt lat="49.67247" lon="4.7595">
        <ele>179.59</ele>
        <time>2011-01-19T09:52:20Z</time>
      </trkpt>
      <trkpt lat="49.67251" lon="4.75944">
        <ele>180.07</ele>
        <time>2011-01-19T09:52:21Z</time>
      </trkpt>
      <trkpt lat="49.6726" lon="4.75932">
        <ele>180.767</ele>
        <time>2011-01-19T09:52:23Z</time>
      </trkpt>
      <trkpt lat="49.67271" lon="4.75917">
        <ele>181.768</ele>
        <time>2011-01-19T09:52:25Z</time>
      </trkpt>
      <trkpt lat="49.67277" lon="4.75908">
        <ele>182.528</ele>
        <time>2011-01-19T09:52:27Z</time>
      </trkpt>
      <trkpt lat="49.67283" lon="4.75897">
        <ele>182.988</ele>
        <time>2011-01-19T09:52:29Z</time>
      </trkpt>
      <trkpt lat="49.67287" lon="4.7589">
        <ele>183.29</ele>
        <time>2011-01-19T09:52:30Z</time>
      </trkpt>
      <trkpt lat="49.67293" lon="4.75878">
        <ele>183.13</ele>
        <time>2011-01-19T09:52:32Z</time>
      </trkpt>
      <trkpt lat="49.67299" lon="4.75859">
        <ele>182.672</ele>
        <time>2011-01-19T09:52:34Z</time>
      </trkpt>
      <trkpt lat="49.67302" lon="4.7585">
        <ele>182.43</ele>
        <time>2011-01-19T09:52:35Z</time>
      </trkpt>
      <trkpt lat="49.67308" lon="4.75828">
        <ele>182.034</ele>
        <time>2011-01-19T09:52:37Z</time>
      </trkpt>
      <trkpt lat="49.67313" lon="4.75811">
        <ele>181.886</ele>
        <time>2011-01-19T09:52:39Z</time>
      </trkpt>
      <trkpt lat="49.67315" lon="4.75795">
        <ele>182.169</ele>
        <time>2011-01-19T09:52:41Z</time>
      </trkpt>
      <trkpt lat="49.67316" lon="4.75788">
        <ele>182.42</ele>
        <time>2011-01-19T09:52:42Z</time>
      </trkpt>
      <trkpt lat="49.67318" lon="4.75774">
        <ele>183.25</ele>
        <time>2011-01-19T09:52:44Z</time>
      </trkpt>
      <trkpt lat="49.6732" lon="4.75761">
        <ele>184.15</ele>
        <time>2011-01-19T09:52:46Z</time>
      </trkpt>
      <trkpt lat="49.6732" lon="4.75755">
        <ele>184.6</ele>
        <time>2011-01-19T09:52:47Z</time>
      </trkpt>
      <trkpt lat="49.6732" lon="4.75749">
        <ele>185.07</ele>
        <time>2011-01-19T09:52:48Z</time>
      </trkpt>
      <trkpt lat="49.6732" lon="4.75736">
        <ele>185.78</ele>
        <time>2011-01-19T09:52:50Z</time>
      </trkpt>
      <trkpt lat="49.6732" lon="4.75722">
        <ele>186</ele>
        <time>2011-01-19T09:52:51Z</time>
      </trkpt>
      <trkpt lat="49.67319" lon="4.75705">
        <ele>185.511</ele>
        <time>2011-01-19T09:52:53Z</time>
      </trkpt>
      <trkpt lat="49.67318" lon="4.75697">
        <ele>184.873</ele>
        <time>2011-01-19T09:52:55Z</time>
      </trkpt>
      <trkpt lat="49.67318" lon="4.75689">
        <ele>184.168</ele>
        <time>2011-01-19T09:52:57Z</time>
      </trkpt>
      <trkpt lat="49.67319" lon="4.75685">
        <ele>183.84</ele>
        <time>2011-01-19T09:52:58Z</time>
      </trkpt>
      <trkpt lat="49.67319" lon="4.75678">
        <ele>183.65</ele>
        <time>2011-01-19T09:52:59Z</time>
      </trkpt>
      <trkpt lat="49.6732" lon="4.75666">
        <ele>183.56</ele>
        <time>2011-01-19T09:53:01Z</time>
      </trkpt>
      <trkpt lat="49.6732" lon="4.7566">
        <ele>183.59</ele>
        <time>2011-01-19T09:53:02Z</time>
      </trkpt>
      <trkpt lat="49.6732" lon="4.75649">
        <ele>183.72</ele>
        <time>2011-01-19T09:53:04Z</time>
      </trkpt>
      <trkpt lat="49.67321" lon="4.75641">
        <ele>183.893</ele>
        <time>2011-01-19T09:53:06Z</time>
      </trkpt>
      <trkpt lat="49.67321" lon="4.75636">
        <ele>183.958</ele>
        <time>2011-01-19T09:53:08Z</time>
      </trkpt>
      <trkpt lat="49.67321" lon="4.7563">
        <ele>182.983</ele>
        <time>2011-01-19T09:53:09Z</time>
      </trkpt>
      <trkpt lat="49.67322" lon="4.75624">
        <ele>180.746</ele>
        <time>2011-01-19T09:53:11Z</time>
      </trkpt>
      <trkpt lat="49.67323" lon="4.75621">
        <ele>179.435</ele>
        <time>2011-01-19T09:53:12Z</time>
      </trkpt>
      <trkpt lat="49.67323" lon="4.7562">
        <ele>177.964</ele>
        <time>2011-01-19T09:53:13Z</time>
      </trkpt>
      <trkpt lat="49.67323" lon="4.75618">
        <ele>174.996</ele>
        <time>2011-01-19T09:53:15Z</time>
      </trkpt>
      <trkpt lat="49.67323" lon="4.75618">
        <ele>173.792</ele>
        <time>2011-01-19T09:53:16Z</time>
      </trkpt>
      <trkpt lat="49.67322" lon="4.75617">
        <ele>171.267</ele>
        <time>2011-01-19T09:53:18Z</time>
      </trkpt>
      <trkpt lat="49.67321" lon="4.75615">
        <ele>169.267</ele>
        <time>2011-01-19T09:53:19Z</time>
      </trkpt>
      <trkpt lat="49.67321" lon="4.75614">
        <ele>168.557</ele>
        <time>2011-01-19T09:53:21Z</time>
      </trkpt>
      <trkpt lat="49.67321" lon="4.75614">
        <ele>168.15</ele>
        <time>2011-01-19T09:53:23Z</time>
      </trkpt>
      <trkpt lat="49.6732" lon="4.75615">
        <ele>168.09</ele>
        <time>2011-01-19T09:53:25Z</time>
      </trkpt>
      <trkpt lat="49.6732" lon="4.75615">
        <ele>168.01</ele>
        <time>2011-01-19T09:53:27Z</time>
      </trkpt>
      <trkpt lat="49.6732" lon="4.75615">
        <ele>167.98</ele>
        <time>2011-01-19T09:53:28Z</time>
      </trkpt>
      <trkpt lat="49.67319" lon="4.75614">
        <ele>167.82</ele>
        <time>2011-01-19T09:53:30Z</time>
      </trkpt>
      <trkpt lat="49.67319" lon="4.75612">
        <ele>167.72</ele>
        <time>2011-01-19T09:53:32Z</time>
      </trkpt>
      <trkpt lat="49.67319" lon="4.75612">
        <ele>167.678</ele>
        <time>2011-01-19T09:53:33Z</time>
      </trkpt>
      <trkpt lat="49.67319" lon="4.75611">
        <ele>167.725</ele>
        <time>2011-01-19T09:53:35Z</time>
      </trkpt>
      <trkpt lat="49.67319" lon="4.75611">
        <ele>167.7</ele>
        <time>2011-01-19T09:53:37Z</time>
      </trkpt>
      <trkpt lat="49.67319" lon="4.75611">
        <ele>167.78</ele>
        <time>2011-01-19T09:53:38Z</time>
      </trkpt>
      <trkpt lat="49.67319" lon="4.75611">
        <ele>167.9</ele>
        <time>2011-01-19T09:53:40Z</time>
      </trkpt>
      <trkpt lat="49.67319" lon="4.75611">
        <ele>168.2</ele>
        <time>2011-01-19T09:53:42Z</time>
      </trkpt>
      <trkpt lat="49.67319" lon="4.75611">
        <ele>168.3</ele>
        <time>2011-01-19T09:53:43Z</time>
      </trkpt>
      <trkpt lat="49.67319" lon="4.75611">
        <ele>168.3</ele>
        <time>2011-01-19T09:53:44Z</time>
      </trkpt>
      <trkpt lat="49.67319" lon="4.75611">
        <ele>168.3</ele>
        <time>2011-01-19T09:53:46Z</time>
      </trkpt>
      <trkpt lat="49.67319" lon="4.75611">
        <ele>168.3</ele>
        <time>2011-01-19T09:53:47Z</time>
      </trkpt>
      <trkpt lat="49.67319" lon="4.75611">
        <ele>168.2</ele>
        <time>2011-01-19T09:53:48Z</time>
      </trkpt>
      <trkpt lat="49.67319" lon="4.75611">
        <ele>168.2</ele>
        <time>2011-01-19T09:53:49Z</time>
      </trkpt>
      <trkpt lat="49.67319" lon="4.75611">
        <ele>168.2</ele>
        <time>2011-01-19T09:53:51Z</time>
      </trkpt>
      <trkpt lat="49.67319" lon="4.75611">
        <ele>168.2</ele>
        <time>2011-01-19T09:53:53Z</time>
      </trkpt>
      <trkpt lat="49.67319" lon="4.75611">
        <ele>168.194</ele>
        <time>2011-01-19T09:53:54Z</time>
      </trkpt>
      <trkpt lat="49.67319" lon="4.7561">
        <ele>168.189</ele>
        <time>2011-01-19T09:53:55Z</time>
      </trkpt>
      <trkpt lat="49.6732" lon="4.7561">
        <ele>168.24</ele>
        <time>2011-01-19T09:53:56Z</time>
      </trkpt>
      <trkpt lat="49.67321" lon="4.75609">
        <ele>168.514</ele>
        <time>2011-01-19T09:53:58Z</time>
      </trkpt>
      <trkpt lat="49.67322" lon="4.7561">
        <ele>168.575</ele>
        <time>2011-01-19T09:53:59Z</time>
      </trkpt>
      <trkpt lat="49.67327" lon="4.75615">
        <ele>168.48</ele>
        <time>2011-01-19T09:54:00Z</time>
      </trkpt>
      <trkpt lat="49.67334" lon="4.75622">
        <ele>168.41</ele>
        <time>2011-01-19T09:54:02Z</time>
      </trkpt>
      <trkpt lat="49.6734" lon="4.75628">
        <ele>168.19</ele>
        <time>2011-01-19T09:54:04Z</time>
      </trkpt>
      <trkpt lat="49.67343" lon="4.7563">
        <ele>168.06</ele>
        <time>2011-01-19T09:54:05Z</time>
      </trkpt>
      <trkpt lat="49.67347" lon="4.75633">
        <ele>167.8</ele>
        <time>2011-01-19T09:54:07Z</time>
      </trkpt>
      <trkpt lat="49.6735" lon="4.75635">
        <ele>167.613</ele>
        <time>2011-01-19T09:54:08Z</time>
      </trkpt>
      <trkpt lat="49.67352" lon="4.75635">
        <ele>167.543</ele>
        <time>2011-01-19T09:54:10Z</time>
      </trkpt>
      <trkpt lat="49.67355" lon="4.75637">
        <ele>167.42</ele>
        <time>2011-01-19T09:54:11Z</time>
      </trkpt>
      <trkpt lat="49.67357" lon="4.75638">
        <ele>167.66</ele>
        <time>2011-01-19T09:54:12Z</time>
      </trkpt>
      <trkpt lat="49.67358" lon="4.7564">
        <ele>167.825</ele>
        <time>2011-01-19T09:54:13Z</time>
      </trkpt>
      <trkpt lat="49.67359" lon="4.75645">
        <ele>166.95</ele>
        <time>2011-01-19T09:54:14Z</time>
      </trkpt>
      <trkpt lat="49.6736" lon="4.75647">
        <ele>166.425</ele>
        <time>2011-01-19T09:54:15Z</time>
      </trkpt>
      <trkpt lat="49.67362" lon="4.75651">
        <ele>166.05</ele>
        <time>2011-01-19T09:54:17Z</time>
      </trkpt>
      <trkpt lat="49.67364" lon="4.75655">
        <ele>165.538</ele>
        <time>2011-01-19T09:54:19Z</time>
      </trkpt>
      <trkpt lat="49.67365" lon="4.75659">
        <ele>164.3</ele>
        <time>2011-01-19T09:54:20Z</time>
      </trkpt>
      <trkpt lat="49.67365" lon="4.75661">
        <ele>164.124</ele>
        <time>2011-01-19T09:54:21Z</time>
      </trkpt>
      <trkpt lat="49.67364" lon="4.75663">
        <ele>163.732</ele>
        <time>2011-01-19T09:54:23Z</time>
      </trkpt>
      <trkpt lat="49.67362" lon="4.75667">
        <ele>163.658</ele>
        <time>2011-01-19T09:54:24Z</time>
      </trkpt>
      <trkpt lat="49.67361" lon="4.75668">
        <ele>163.977</ele>
        <time>2011-01-19T09:54:25Z</time>
      </trkpt>
      <trkpt lat="49.67361" lon="4.75673">
        <ele>164.203</ele>
        <time>2011-01-19T09:54:27Z</time>
      </trkpt>
      <trkpt lat="49.67361" lon="4.75676">
        <ele>164.434</ele>
        <time>2011-01-19T09:54:28Z</time>
      </trkpt>
      <trkpt lat="49.67363" lon="4.75683">
        <ele>164.921</ele>
        <time>2011-01-19T09:54:30Z</time>
      </trkpt>
      <trkpt lat="49.67364" lon="4.75687">
        <ele>165.213</ele>
        <time>2011-01-19T09:54:31Z</time>
      </trkpt>
      <trkpt lat="49.67366" lon="4.75693">
        <ele>166.74</ele>
        <time>2011-01-19T09:54:33Z</time>
      </trkpt>
      <trkpt lat="49.67368" lon="4.75697">
        <ele>167.717</ele>
        <time>2011-01-19T09:54:34Z</time>
      </trkpt>
      <trkpt lat="49.67367" lon="4.75702">
        <ele>168.151</ele>
        <time>2011-01-19T09:54:35Z</time>
      </trkpt>
      <trkpt lat="49.67366" lon="4.75707">
        <ele>168.156</ele>
        <time>2011-01-19T09:54:37Z</time>
      </trkpt>
      <trkpt lat="49.67364" lon="4.75711">
        <ele>168.238</ele>
        <time>2011-01-19T09:54:39Z</time>
      </trkpt>
      <trkpt lat="49.67364" lon="4.75716">
        <ele>168.67</ele>
        <time>2011-01-19T09:54:40Z</time>
      </trkpt>
      <trkpt lat="49.67365" lon="4.75721">
        <ele>169.12</ele>
        <time>2011-01-19T09:54:42Z</time>
      </trkpt>
      <trkpt lat="49.67365" lon="4.75724">
        <ele>169.3</ele>
        <time>2011-01-19T09:54:43Z</time>
      </trkpt>
      <trkpt lat="49.67368" lon="4.75733">
        <ele>170.12</ele>
        <time>2011-01-19T09:54:45Z</time>
      </trkpt>
      <trkpt lat="49.67371" lon="4.75736">
        <ele>170.62</ele>
        <time>2011-01-19T09:54:47Z</time>
      </trkpt>
      <trkpt lat="49.67375" lon="4.75743">
        <ele>171.74</ele>
        <time>2011-01-19T09:54:49Z</time>
      </trkpt>
      <trkpt lat="49.67377" lon="4.75748">
        <ele>172.62</ele>
        <time>2011-01-19T09:54:50Z</time>
      </trkpt>
      <trkpt lat="49.67379" lon="4.75755">
        <ele>173.61</ele>
        <time>2011-01-19T09:54:52Z</time>
      </trkpt>
      <trkpt lat="49.6738" lon="4.75761">
        <ele>174.27</ele>
        <time>2011-01-19T09:54:54Z</time>
      </trkpt>
      <trkpt lat="49.6738" lon="4.75766">
        <ele>174.64</ele>
        <time>2011-01-19T09:54:55Z</time>
      </trkpt>
      <trkpt lat="49.67381" lon="4.7577">
        <ele>175.2</ele>
        <time>2011-01-19T09:54:57Z</time>
      </trkpt>
      <trkpt lat="49.67381" lon="4.75772">
        <ele>175.74</ele>
        <time>2011-01-19T09:54:58Z</time>
      </trkpt>
      <trkpt lat="49.67382" lon="4.75775">
        <ele>176.16</ele>
        <time>2011-01-19T09:54:59Z</time>
      </trkpt>
      <trkpt lat="49.67383" lon="4.75778">
        <ele>176.6</ele>
        <time>2011-01-19T09:55:00Z</time>
      </trkpt>
      <trkpt lat="49.67386" lon="4.75785">
        <ele>177.85</ele>
        <time>2011-01-19T09:55:01Z</time>
      </trkpt>
      <trkpt lat="49.67388" lon="4.7579">
        <ele>179.22</ele>
        <time>2011-01-19T09:55:03Z</time>
      </trkpt>
      <trkpt lat="49.6739" lon="4.75794">
        <ele>180.44</ele>
        <time>2011-01-19T09:55:05Z</time>
      </trkpt>
      <trkpt lat="49.67391" lon="4.75799">
        <ele>180.94</ele>
        <time>2011-01-19T09:55:06Z</time>
      </trkpt>
      <trkpt lat="49.67392" lon="4.75805">
        <ele>181.06</ele>
        <time>2011-01-19T09:55:08Z</time>
      </trkpt>
      <trkpt lat="49.67392" lon="4.7581">
        <ele>181.07</ele>
        <time>2011-01-19T09:55:10Z</time>
      </trkpt>
      <trkpt lat="49.67393" lon="4.75816">
        <ele>181.12</ele>
        <time>2011-01-19T09:55:11Z</time>
      </trkpt>
      <trkpt lat="49.67393" lon="4.75818">
        <ele>181.056</ele>
        <time>2011-01-19T09:55:12Z</time>
      </trkpt>
      <trkpt lat="49.67394" lon="4.75821">
        <ele>180.975</ele>
        <time>2011-01-19T09:55:13Z</time>
      </trkpt>
      <trkpt lat="49.67396" lon="4.75828">
        <ele>180.983</ele>
        <time>2011-01-19T09:55:15Z</time>
      </trkpt>
      <trkpt lat="49.67398" lon="4.75832">
        <ele>181.02</ele>
        <time>2011-01-19T09:55:16Z</time>
      </trkpt>
      <trkpt lat="49.674" lon="4.75836">
        <ele>181.175</ele>
        <time>2011-01-19T09:55:17Z</time>
      </trkpt>
      <trkpt lat="49.67403" lon="4.75842">
        <ele>181.65</ele>
        <time>2011-01-19T09:55:19Z</time>
      </trkpt>
      <trkpt lat="49.67406" lon="4.75848">
        <ele>182.9</ele>
        <time>2011-01-19T09:55:20Z</time>
      </trkpt>
      <trkpt lat="49.67406" lon="4.75851">
        <ele>183.5</ele>
        <time>2011-01-19T09:55:21Z</time>
      </trkpt>
      <trkpt lat="49.67407" lon="4.75855">
        <ele>183.8</ele>
        <time>2011-01-19T09:55:23Z</time>
      </trkpt>
      <trkpt lat="49.67408" lon="4.75861">
        <ele>183.9</ele>
        <time>2011-01-19T09:55:24Z</time>
      </trkpt>
      <trkpt lat="49.67408" lon="4.75864">
        <ele>183.786</ele>
        <time>2011-01-19T09:55:25Z</time>
      </trkpt>
      <trkpt lat="49.67409" lon="4.7587">
        <ele>183.633</ele>
        <time>2011-01-19T09:55:27Z</time>
      </trkpt>
      <trkpt lat="49.67409" lon="4.75873">
        <ele>183.633</ele>
        <time>2011-01-19T09:55:28Z</time>
      </trkpt>
      <trkpt lat="49.67409" lon="4.75876">
        <ele>183.678</ele>
        <time>2011-01-19T09:55:29Z</time>
      </trkpt>
      <trkpt lat="49.67408" lon="4.75883">
        <ele>183.6</ele>
        <time>2011-01-19T09:55:31Z</time>
      </trkpt>
      <trkpt lat="49.67408" lon="4.75885">
        <ele>183.7</ele>
        <time>2011-01-19T09:55:32Z</time>
      </trkpt>
      <trkpt lat="49.67408" lon="4.75889">
        <ele>183.8</ele>
        <time>2011-01-19T09:55:33Z</time>
      </trkpt>
      <trkpt lat="49.6741" lon="4.75896">
        <ele>184.044</ele>
        <time>2011-01-19T09:55:35Z</time>
      </trkpt>
      <trkpt lat="49.67411" lon="4.75904">
        <ele>184.694</ele>
        <time>2011-01-19T09:55:37Z</time>
      </trkpt>
      <trkpt lat="49.67412" lon="4.75909">
        <ele>185.242</ele>
        <time>2011-01-19T09:55:39Z</time>
      </trkpt>
      <trkpt lat="49.67414" lon="4.75914">
        <ele>186.04</ele>
        <time>2011-01-19T09:55:41Z</time>
      </trkpt>
      <trkpt lat="49.67414" lon="4.75917">
        <ele>186.492</ele>
        <time>2011-01-19T09:55:42Z</time>
      </trkpt>
      <trkpt lat="49.67416" lon="4.75923">
        <ele>188.252</ele>
        <time>2011-01-19T09:55:44Z</time>
      </trkpt>
      <trkpt lat="49.67417" lon="4.75926">
        <ele>189.338</ele>
        <time>2011-01-19T09:55:45Z</time>
      </trkpt>
      <trkpt lat="49.67419" lon="4.75934">
        <ele>191.51</ele>
        <time>2011-01-19T09:55:47Z</time>
      </trkpt>
      <trkpt lat="49.67423" lon="4.75942">
        <ele>193.08</ele>
        <time>2011-01-19T09:55:49Z</time>
      </trkpt>
      <trkpt lat="49.67427" lon="4.7595">
        <ele>194.32</ele>
        <time>2011-01-19T09:55:51Z</time>
      </trkpt>
      <trkpt lat="49.67428" lon="4.75954">
        <ele>194.7</ele>
        <time>2011-01-19T09:55:52Z</time>
      </trkpt>
      <trkpt lat="49.67432" lon="4.75958">
        <ele>194.6</ele>
        <time>2011-01-19T09:55:53Z</time>
      </trkpt>
      <trkpt lat="49.67435" lon="4.7596">
        <ele>194.23</ele>
        <time>2011-01-19T09:55:55Z</time>
      </trkpt>
      <trkpt lat="49.67436" lon="4.75961">
        <ele>194.22</ele>
        <time>2011-01-19T09:55:56Z</time>
      </trkpt>
      <trkpt lat="49.67439" lon="4.75965">
        <ele>194.563</ele>
        <time>2011-01-19T09:55:58Z</time>
      </trkpt>
      <trkpt lat="49.67443" lon="4.75969">
        <ele>195.379</ele>
        <time>2011-01-19T09:56:00Z</time>
      </trkpt>
      <trkpt lat="49.67445" lon="4.75971">
        <ele>195.896</ele>
        <time>2011-01-19T09:56:01Z</time>
      </trkpt>
      <trkpt lat="49.67446" lon="4.75974">
        <ele>196.395</ele>
        <time>2011-01-19T09:56:02Z</time>
      </trkpt>
      <trkpt lat="49.67449" lon="4.75979">
        <ele>197.461</ele>
        <time>2011-01-19T09:56:04Z</time>
      </trkpt>
      <trkpt lat="49.67451" lon="4.75984">
        <ele>198.292</ele>
        <time>2011-01-19T09:56:06Z</time>
      </trkpt>
      <trkpt lat="49.67453" lon="4.7599">
        <ele>199.02</ele>
        <time>2011-01-19T09:56:08Z</time>
      </trkpt>
      <trkpt lat="49.67456" lon="4.75995">
        <ele>199.58</ele>
        <time>2011-01-19T09:56:10Z</time>
      </trkpt>
      <trkpt lat="49.6746" lon="4.76">
        <ele>200.3</ele>
        <time>2011-01-19T09:56:12Z</time>
      </trkpt>
      <trkpt lat="49.67462" lon="4.76003">
        <ele>200.77</ele>
        <time>2011-01-19T09:56:13Z</time>
      </trkpt>
      <trkpt lat="49.67466" lon="4.76008">
        <ele>201.67</ele>
        <time>2011-01-19T09:56:15Z</time>
      </trkpt>
      <trkpt lat="49.67469" lon="4.76013">
        <ele>202.63</ele>
        <time>2011-01-19T09:56:17Z</time>
      </trkpt>
      <trkpt lat="49.67472" lon="4.76018">
        <ele>203.36</ele>
        <time>2011-01-19T09:56:19Z</time>
      </trkpt>
      <trkpt lat="49.67475" lon="4.76023">
        <ele>203.95</ele>
        <time>2011-01-19T09:56:21Z</time>
      </trkpt>
      <trkpt lat="49.67479" lon="4.76029">
        <ele>204.2</ele>
        <time>2011-01-19T09:56:23Z</time>
      </trkpt>
      <trkpt lat="49.67482" lon="4.76032">
        <ele>204.16</ele>
        <time>2011-01-19T09:56:24Z</time>
      </trkpt>
      <trkpt lat="49.67488" lon="4.76038">
        <ele>203.87</ele>
        <time>2011-01-19T09:56:26Z</time>
      </trkpt>
      <trkpt lat="49.67492" lon="4.76041">
        <ele>203.37</ele>
        <time>2011-01-19T09:56:28Z</time>
      </trkpt>
      <trkpt lat="49.67493" lon="4.76044">
        <ele>202.78</ele>
        <time>2011-01-19T09:56:30Z</time>
      </trkpt>
      <trkpt lat="49.67495" lon="4.76049">
        <ele>202.15</ele>
        <time>2011-01-19T09:56:32Z</time>
      </trkpt>
      <trkpt lat="49.67496" lon="4.76053">
        <ele>201.83</ele>
        <time>2011-01-19T09:56:33Z</time>
      </trkpt>
      <trkpt lat="49.675" lon="4.76062">
        <ele>201.41</ele>
        <time>2011-01-19T09:56:35Z</time>
      </trkpt>
      <trkpt lat="49.67505" lon="4.76072">
        <ele>201.37</ele>
        <time>2011-01-19T09:56:37Z</time>
      </trkpt>
      <trkpt lat="49.67507" lon="4.76078">
        <ele>201.36</ele>
        <time>2011-01-19T09:56:38Z</time>
      </trkpt>
      <trkpt lat="49.67514" lon="4.76094">
        <ele>201.42</ele>
        <time>2011-01-19T09:56:39Z</time>
      </trkpt>
      <trkpt lat="49.6752" lon="4.76108">
        <ele>201.49</ele>
        <time>2011-01-19T09:56:41Z</time>
      </trkpt>
      <trkpt lat="49.67528" lon="4.76124">
        <ele>201.59</ele>
        <time>2011-01-19T09:56:43Z</time>
      </trkpt>
      <trkpt lat="49.67537" lon="4.76141">
        <ele>202.12</ele>
        <time>2011-01-19T09:56:45Z</time>
      </trkpt>
      <trkpt lat="49.67543" lon="4.76154">
        <ele>202.84</ele>
        <time>2011-01-19T09:56:47Z</time>
      </trkpt>
      <trkpt lat="49.6755" lon="4.76165">
        <ele>203.9</ele>
        <time>2011-01-19T09:56:49Z</time>
      </trkpt>
      <trkpt lat="49.67555" lon="4.76176">
        <ele>205.1</ele>
        <time>2011-01-19T09:56:51Z</time>
      </trkpt>
      <trkpt lat="49.67561" lon="4.76185">
        <ele>206.46</ele>
        <time>2011-01-19T09:56:53Z</time>
      </trkpt>
      <trkpt lat="49.67566" lon="4.76191">
        <ele>207.088</ele>
        <time>2011-01-19T09:56:55Z</time>
      </trkpt>
      <trkpt lat="49.67573" lon="4.76198">
        <ele>207.463</ele>
        <time>2011-01-19T09:56:57Z</time>
      </trkpt>
      <trkpt lat="49.67576" lon="4.76202">
        <ele>207.388</ele>
        <time>2011-01-19T09:56:58Z</time>
      </trkpt>
      <trkpt lat="49.67582" lon="4.7621">
        <ele>206.975</ele>
        <time>2011-01-19T09:57:00Z</time>
      </trkpt>
      <trkpt lat="49.67586" lon="4.76217">
        <ele>206.3</ele>
        <time>2011-01-19T09:57:02Z</time>
      </trkpt>
      <trkpt lat="49.67591" lon="4.76225">
        <ele>205.822</ele>
        <time>2011-01-19T09:57:04Z</time>
      </trkpt>
      <trkpt lat="49.67593" lon="4.76228">
        <ele>205.75</ele>
        <time>2011-01-19T09:57:05Z</time>
      </trkpt>
      <trkpt lat="49.67595" lon="4.7623">
        <ele>205.46</ele>
        <time>2011-01-19T09:57:06Z</time>
      </trkpt>
      <trkpt lat="49.67598" lon="4.76232">
        <ele>204.99</ele>
        <time>2011-01-19T09:57:08Z</time>
      </trkpt>
      <trkpt lat="49.67599" lon="4.76234">
        <ele>204.6</ele>
        <time>2011-01-19T09:57:10Z</time>
      </trkpt>
      <trkpt lat="49.67603" lon="4.76239">
        <ele>204.23</ele>
        <time>2011-01-19T09:57:12Z</time>
      </trkpt>
      <trkpt lat="49.6761" lon="4.76247">
        <ele>203.56</ele>
        <time>2011-01-19T09:57:14Z</time>
      </trkpt>
      <trkpt lat="49.67618" lon="4.76255">
        <ele>202.77</ele>
        <time>2011-01-19T09:57:16Z</time>
      </trkpt>
      <trkpt lat="49.67625" lon="4.76263">
        <ele>202.17</ele>
        <time>2011-01-19T09:57:18Z</time>
      </trkpt>
      <trkpt lat="49.67628" lon="4.76267">
        <ele>201.9</ele>
        <time>2011-01-19T09:57:19Z</time>
      </trkpt>
      <trkpt lat="49.67634" lon="4.76277">
        <ele>201.41</ele>
        <time>2011-01-19T09:57:21Z</time>
      </trkpt>
      <trkpt lat="49.67641" lon="4.76287">
        <ele>201.28</ele>
        <time>2011-01-19T09:57:23Z</time>
      </trkpt>
      <trkpt lat="49.67646" lon="4.76295">
        <ele>201.478</ele>
        <time>2011-01-19T09:57:25Z</time>
      </trkpt>
      <trkpt lat="49.67648" lon="4.76298">
        <ele>201.711</ele>
        <time>2011-01-19T09:57:26Z</time>
      </trkpt>
      <trkpt lat="49.67654" lon="4.76307">
        <ele>202.044</ele>
        <time>2011-01-19T09:57:28Z</time>
      </trkpt>
      <trkpt lat="49.67659" lon="4.76317">
        <ele>202.444</ele>
        <time>2011-01-19T09:57:30Z</time>
      </trkpt>
      <trkpt lat="49.67661" lon="4.7632">
        <ele>202.778</ele>
        <time>2011-01-19T09:57:31Z</time>
      </trkpt>
      <trkpt lat="49.67664" lon="4.76331">
        <ele>203.356</ele>
        <time>2011-01-19T09:57:33Z</time>
      </trkpt>
      <trkpt lat="49.67667" lon="4.7634">
        <ele>203.87</ele>
        <time>2011-01-19T09:57:35Z</time>
      </trkpt>
      <trkpt lat="49.67671" lon="4.76348">
        <ele>204.72</ele>
        <time>2011-01-19T09:57:37Z</time>
      </trkpt>
      <trkpt lat="49.67676" lon="4.76358">
        <ele>205.72</ele>
        <time>2011-01-19T09:57:39Z</time>
      </trkpt>
      <trkpt lat="49.67678" lon="4.76363">
        <ele>206.11</ele>
        <time>2011-01-19T09:57:40Z</time>
      </trkpt>
      <trkpt lat="49.67681" lon="4.76373">
        <ele>206.97</ele>
        <time>2011-01-19T09:57:42Z</time>
      </trkpt>
      <trkpt lat="49.67683" lon="4.76377">
        <ele>207.53</ele>
        <time>2011-01-19T09:57:43Z</time>
      </trkpt>
      <trkpt lat="49.67687" lon="4.76386">
        <ele>208.56</ele>
        <time>2011-01-19T09:57:45Z</time>
      </trkpt>
      <trkpt lat="49.67689" lon="4.7639">
        <ele>209.03</ele>
        <time>2011-01-19T09:57:46Z</time>
      </trkpt>
      <trkpt lat="49.67694" lon="4.76399">
        <ele>210.23</ele>
        <time>2011-01-19T09:57:48Z</time>
      </trkpt>
      <trkpt lat="49.67696" lon="4.76402">
        <ele>210.85</ele>
        <time>2011-01-19T09:57:49Z</time>
      </trkpt>
      <trkpt lat="49.67699" lon="4.76408">
        <ele>211.98</ele>
        <time>2011-01-19T09:57:51Z</time>
      </trkpt>
      <trkpt lat="49.67702" lon="4.76413">
        <ele>212.66</ele>
        <time>2011-01-19T09:57:53Z</time>
      </trkpt>
      <trkpt lat="49.67706" lon="4.76419">
        <ele>212.83</ele>
        <time>2011-01-19T09:57:55Z</time>
      </trkpt>
      <trkpt lat="49.67709" lon="4.76423">
        <ele>212.63</ele>
        <time>2011-01-19T09:57:56Z</time>
      </trkpt>
      <trkpt lat="49.67716" lon="4.76431">
        <ele>211.52</ele>
        <time>2011-01-19T09:57:58Z</time>
      </trkpt>
      <trkpt lat="49.67725" lon="4.76439">
        <ele>210.08</ele>
        <time>2011-01-19T09:58:00Z</time>
      </trkpt>
      <trkpt lat="49.67734" lon="4.76446">
        <ele>208.47</ele>
        <time>2011-01-19T09:58:02Z</time>
      </trkpt>
      <trkpt lat="49.67743" lon="4.76454">
        <ele>206.94</ele>
        <time>2011-01-19T09:58:04Z</time>
      </trkpt>
      <trkpt lat="49.67747" lon="4.76457">
        <ele>206.26</ele>
        <time>2011-01-19T09:58:05Z</time>
      </trkpt>
      <trkpt lat="49.6775" lon="4.76461">
        <ele>205.69</ele>
        <time>2011-01-19T09:58:06Z</time>
      </trkpt>
      <trkpt lat="49.67753" lon="4.76465">
        <ele>204.86</ele>
        <time>2011-01-19T09:58:08Z</time>
      </trkpt>
      <trkpt lat="49.67754" lon="4.76467">
        <ele>204.64</ele>
        <time>2011-01-19T09:58:09Z</time>
      </trkpt>
      <trkpt lat="49.67756" lon="4.76469">
        <ele>204.5</ele>
        <time>2011-01-19T09:58:10Z</time>
      </trkpt>
      <trkpt lat="49.67758" lon="4.76471">
        <ele>204.4</ele>
        <time>2011-01-19T09:58:12Z</time>
      </trkpt>
      <trkpt lat="49.67761" lon="4.76473">
        <ele>204.32</ele>
        <time>2011-01-19T09:58:14Z</time>
      </trkpt>
      <trkpt lat="49.67762" lon="4.76474">
        <ele>204.26</ele>
        <time>2011-01-19T09:58:15Z</time>
      </trkpt>
      <trkpt lat="49.67766" lon="4.76477">
        <ele>204.14</ele>
        <time>2011-01-19T09:58:17Z</time>
      </trkpt>
      <trkpt lat="49.67774" lon="4.76485">
        <ele>204.04</ele>
        <time>2011-01-19T09:58:19Z</time>
      </trkpt>
      <trkpt lat="49.67786" lon="4.76497">
        <ele>203.93</ele>
        <time>2011-01-19T09:58:21Z</time>
      </trkpt>
      <trkpt lat="49.67796" lon="4.76508">
        <ele>204.04</ele>
        <time>2011-01-19T09:58:23Z</time>
      </trkpt>
      <trkpt lat="49.67806" lon="4.76516">
        <ele>204.35</ele>
        <time>2011-01-19T09:58:25Z</time>
      </trkpt>
      <trkpt lat="49.6781" lon="4.76519">
        <ele>204.72</ele>
        <time>2011-01-19T09:58:26Z</time>
      </trkpt>
      <trkpt lat="49.67818" lon="4.76527">
        <ele>205.46</ele>
        <time>2011-01-19T09:58:28Z</time>
      </trkpt>
      <trkpt lat="49.67822" lon="4.76531">
        <ele>205.72</ele>
        <time>2011-01-19T09:58:29Z</time>
      </trkpt>
      <trkpt lat="49.67831" lon="4.76541">
        <ele>206.01</ele>
        <time>2011-01-19T09:58:31Z</time>
      </trkpt>
      <trkpt lat="49.6784" lon="4.76551">
        <ele>206.14</ele>
        <time>2011-01-19T09:58:33Z</time>
      </trkpt>
      <trkpt lat="49.6785" lon="4.76561">
        <ele>205.96</ele>
        <time>2011-01-19T09:58:35Z</time>
      </trkpt>
      <trkpt lat="49.67856" lon="4.76567">
        <ele>205.38</ele>
        <time>2011-01-19T09:58:36Z</time>
      </trkpt>
      <trkpt lat="49.67872" lon="4.7658">
        <ele>203.8</ele>
        <time>2011-01-19T09:58:38Z</time>
      </trkpt>
      <trkpt lat="49.67888" lon="4.76594">
        <ele>201.97</ele>
        <time>2011-01-19T09:58:40Z</time>
      </trkpt>
      <trkpt lat="49.67903" lon="4.76607">
        <ele>199.83</ele>
        <time>2011-01-19T09:58:42Z</time>
      </trkpt>
      <trkpt lat="49.67914" lon="4.76617">
        <ele>197.54</ele>
        <time>2011-01-19T09:58:44Z</time>
      </trkpt>
      <trkpt lat="49.67921" lon="4.76622">
        <ele>196.41</ele>
        <time>2011-01-19T09:58:45Z</time>
      </trkpt>
      <trkpt lat="49.67933" lon="4.7663">
        <ele>195.069</ele>
        <time>2011-01-19T09:58:47Z</time>
      </trkpt>
      <trkpt lat="49.6794" lon="4.76635">
        <ele>194.442</ele>
        <time>2011-01-19T09:58:48Z</time>
      </trkpt>
      <trkpt lat="49.67955" lon="4.76644">
        <ele>192.617</ele>
        <time>2011-01-19T09:58:50Z</time>
      </trkpt>
      <trkpt lat="49.67965" lon="4.76647">
        <ele>191.565</ele>
        <time>2011-01-19T09:58:52Z</time>
      </trkpt>
      <trkpt lat="49.67975" lon="4.76648">
        <ele>191.05</ele>
        <time>2011-01-19T09:58:54Z</time>
      </trkpt>
      <trkpt lat="49.67979" lon="4.76647">
        <ele>190.94</ele>
        <time>2011-01-19T09:58:55Z</time>
      </trkpt>
      <trkpt lat="49.67987" lon="4.76648">
        <ele>191.112</ele>
        <time>2011-01-19T09:58:57Z</time>
      </trkpt>
      <trkpt lat="49.67991" lon="4.76649">
        <ele>191.212</ele>
        <time>2011-01-19T09:58:58Z</time>
      </trkpt>
      <trkpt lat="49.67995" lon="4.76649">
        <ele>191.444</ele>
        <time>2011-01-19T09:58:59Z</time>
      </trkpt>
      <trkpt lat="49.68002" lon="4.7665">
        <ele>191.837</ele>
        <time>2011-01-19T09:59:01Z</time>
      </trkpt>
      <trkpt lat="49.68006" lon="4.76649">
        <ele>191.729</ele>
        <time>2011-01-19T09:59:02Z</time>
      </trkpt>
      <trkpt lat="49.68012" lon="4.76646">
        <ele>191.441</ele>
        <time>2011-01-19T09:59:04Z</time>
      </trkpt>
      <trkpt lat="49.6802" lon="4.7664">
        <ele>190.02</ele>
        <time>2011-01-19T09:59:06Z</time>
      </trkpt>
      <trkpt lat="49.68027" lon="4.76635">
        <ele>188.27</ele>
        <time>2011-01-19T09:59:08Z</time>
      </trkpt>
      <trkpt lat="49.68034" lon="4.76633">
        <ele>186.69</ele>
        <time>2011-01-19T09:59:10Z</time>
      </trkpt>
      <trkpt lat="49.68041" lon="4.76632">
        <ele>185.44</ele>
        <time>2011-01-19T09:59:12Z</time>
      </trkpt>
      <trkpt lat="49.68044" lon="4.76631">
        <ele>184.86</ele>
        <time>2011-01-19T09:59:13Z</time>
      </trkpt>
      <trkpt lat="49.68052" lon="4.7663">
        <ele>184.414</ele>
        <time>2011-01-19T09:59:15Z</time>
      </trkpt>
      <trkpt lat="49.6806" lon="4.76629">
        <ele>184.816</ele>
        <time>2011-01-19T09:59:17Z</time>
      </trkpt>
      <trkpt lat="49.68064" lon="4.76629">
        <ele>184.997</ele>
        <time>2011-01-19T09:59:18Z</time>
      </trkpt>
      <trkpt lat="49.68073" lon="4.76629">
        <ele>184.806</ele>
        <time>2011-01-19T09:59:20Z</time>
      </trkpt>
      <trkpt lat="49.68084" lon="4.76629">
        <ele>184.319</ele>
        <time>2011-01-19T09:59:22Z</time>
      </trkpt>
      <trkpt lat="49.68093" lon="4.76627">
        <ele>183.647</ele>
        <time>2011-01-19T09:59:24Z</time>
      </trkpt>
      <trkpt lat="49.681" lon="4.76624">
        <ele>182.408</ele>
        <time>2011-01-19T09:59:25Z</time>
      </trkpt>
      <trkpt lat="49.68106" lon="4.76621">
        <ele>180.068</ele>
        <time>2011-01-19T09:59:27Z</time>
      </trkpt>
      <trkpt lat="49.68109" lon="4.76621">
        <ele>179.035</ele>
        <time>2011-01-19T09:59:28Z</time>
      </trkpt>
      <trkpt lat="49.68116" lon="4.76619">
        <ele>177.134</ele>
        <time>2011-01-19T09:59:30Z</time>
      </trkpt>
      <trkpt lat="49.68122" lon="4.76616">
        <ele>175.2</ele>
        <time>2011-01-19T09:59:32Z</time>
      </trkpt>
      <trkpt lat="49.68129" lon="4.76613">
        <ele>173.46</ele>
        <time>2011-01-19T09:59:33Z</time>
      </trkpt>
      <trkpt lat="49.68136" lon="4.76611">
        <ele>172.54</ele>
        <time>2011-01-19T09:59:35Z</time>
      </trkpt>
      <trkpt lat="49.68143" lon="4.76609">
        <ele>170.944</ele>
        <time>2011-01-19T09:59:36Z</time>
      </trkpt>
      <trkpt lat="49.68147" lon="4.76609">
        <ele>169.985</ele>
        <time>2011-01-19T09:59:37Z</time>
      </trkpt>
      <trkpt lat="49.68157" lon="4.76608">
        <ele>168.136</ele>
        <time>2011-01-19T09:59:39Z</time>
      </trkpt>
      <trkpt lat="49.68164" lon="4.7661">
        <ele>166.132</ele>
        <time>2011-01-19T09:59:41Z</time>
      </trkpt>
      <trkpt lat="49.6817" lon="4.76613">
        <ele>164.097</ele>
        <time>2011-01-19T09:59:43Z</time>
      </trkpt>
      <trkpt lat="49.68171" lon="4.76615">
        <ele>163.367</ele>
        <time>2011-01-19T09:59:44Z</time>
      </trkpt>
      <trkpt lat="49.68173" lon="4.76619">
        <ele>163.41</ele>
        <time>2011-01-19T09:59:46Z</time>
      </trkpt>
      <trkpt lat="49.68175" lon="4.76622">
        <ele>163.612</ele>
        <time>2011-01-19T09:59:47Z</time>
      </trkpt>
      <trkpt lat="49.68179" lon="4.76629">
        <ele>164.37</ele>
        <time>2011-01-19T09:59:49Z</time>
      </trkpt>
      <trkpt lat="49.68182" lon="4.76633">
        <ele>164.94</ele>
        <time>2011-01-19T09:59:50Z</time>
      </trkpt>
      <trkpt lat="49.68186" lon="4.76638">
        <ele>166.16</ele>
        <time>2011-01-19T09:59:52Z</time>
      </trkpt>
      <trkpt lat="49.68188" lon="4.76641">
        <ele>167.43</ele>
        <time>2011-01-19T09:59:53Z</time>
      </trkpt>
      <trkpt lat="49.68192" lon="4.76645">
        <ele>168.42</ele>
        <time>2011-01-19T09:59:55Z</time>
      </trkpt>
      <trkpt lat="49.68195" lon="4.76647">
        <ele>168.93</ele>
        <time>2011-01-19T09:59:56Z</time>
      </trkpt>
      <trkpt lat="49.682" lon="4.76652">
        <ele>169.95</ele>
        <time>2011-01-19T09:59:58Z</time>
      </trkpt>
      <trkpt lat="49.68204" lon="4.76656">
        <ele>170.7</ele>
        <time>2011-01-19T10:00:00Z</time>
      </trkpt>
      <trkpt lat="49.68208" lon="4.76661">
        <ele>171.3</ele>
        <time>2011-01-19T10:00:02Z</time>
      </trkpt>
      <trkpt lat="49.68214" lon="4.76667">
        <ele>171.6</ele>
        <time>2011-01-19T10:00:04Z</time>
      </trkpt>
      <trkpt lat="49.6822" lon="4.76672">
        <ele>171.845</ele>
        <time>2011-01-19T10:00:06Z</time>
      </trkpt>
      <trkpt lat="49.68226" lon="4.76677">
        <ele>170.566</ele>
        <time>2011-01-19T10:00:08Z</time>
      </trkpt>
      <trkpt lat="49.6823" lon="4.76681">
        <ele>169.563</ele>
        <time>2011-01-19T10:00:10Z</time>
      </trkpt>
      <trkpt lat="49.68234" lon="4.76685">
        <ele>170.232</ele>
        <time>2011-01-19T10:00:12Z</time>
      </trkpt>
      <trkpt lat="49.68238" lon="4.76689">
        <ele>170.604</ele>
        <time>2011-01-19T10:00:14Z</time>
      </trkpt>
      <trkpt lat="49.68241" lon="4.76693">
        <ele>170.852</ele>
        <time>2011-01-19T10:00:16Z</time>
      </trkpt>
      <trkpt lat="49.68243" lon="4.76696">
        <ele>171.412</ele>
        <time>2011-01-19T10:00:18Z</time>
      </trkpt>
      <trkpt lat="49.68245" lon="4.76696">
        <ele>172.045</ele>
        <time>2011-01-19T10:00:20Z</time>
      </trkpt>
      <trkpt lat="49.68246" lon="4.76698">
        <ele>172.209</ele>
        <time>2011-01-19T10:00:22Z</time>
      </trkpt>
      <trkpt lat="49.68249" lon="4.76702">
        <ele>172.635</ele>
        <time>2011-01-19T10:00:24Z</time>
      </trkpt>
      <trkpt lat="49.68253" lon="4.76707">
        <ele>172.827</ele>
        <time>2011-01-19T10:00:26Z</time>
      </trkpt>
      <trkpt lat="49.68259" lon="4.76712">
        <ele>172.656</ele>
        <time>2011-01-19T10:00:28Z</time>
      </trkpt>
      <trkpt lat="49.68265" lon="4.76717">
        <ele>172.029</ele>
        <time>2011-01-19T10:00:30Z</time>
      </trkpt>
      <trkpt lat="49.68271" lon="4.76721">
        <ele>171.489</ele>
        <time>2011-01-19T10:00:32Z</time>
      </trkpt>
      <trkpt lat="49.68275" lon="4.76723">
        <ele>171.061</ele>
        <time>2011-01-19T10:00:33Z</time>
      </trkpt>
      <trkpt lat="49.68278" lon="4.76724">
        <ele>170.633</ele>
        <time>2011-01-19T10:00:34Z</time>
      </trkpt>
      <trkpt lat="49.68286" lon="4.76727">
        <ele>170.094</ele>
        <time>2011-01-19T10:00:36Z</time>
      </trkpt>
      <trkpt lat="49.68294" lon="4.76732">
        <ele>170.001</ele>
        <time>2011-01-19T10:00:38Z</time>
      </trkpt>
      <trkpt lat="49.68297" lon="4.76735">
        <ele>170.125</ele>
        <time>2011-01-19T10:00:39Z</time>
      </trkpt>
      <trkpt lat="49.68302" lon="4.76742">
        <ele>170.654</ele>
        <time>2011-01-19T10:00:41Z</time>
      </trkpt>
      <trkpt lat="49.68306" lon="4.76749">
        <ele>171.07</ele>
        <time>2011-01-19T10:00:43Z</time>
      </trkpt>
      <trkpt lat="49.68307" lon="4.76754">
        <ele>171.177</ele>
        <time>2011-01-19T10:00:44Z</time>
      </trkpt>
      <trkpt lat="49.68312" lon="4.76765">
        <ele>171.55</ele>
        <time>2011-01-19T10:00:46Z</time>
      </trkpt>
      <trkpt lat="49.68315" lon="4.76771">
        <ele>171.72</ele>
        <time>2011-01-19T10:00:47Z</time>
      </trkpt>
      <trkpt lat="49.68325" lon="4.76782">
        <ele>171.863</ele>
        <time>2011-01-19T10:00:49Z</time>
      </trkpt>
      <trkpt lat="49.68333" lon="4.76794">
        <ele>171.656</ele>
        <time>2011-01-19T10:00:51Z</time>
      </trkpt>
      <trkpt lat="49.68341" lon="4.76809">
        <ele>170.971</ele>
        <time>2011-01-19T10:00:53Z</time>
      </trkpt>
      <trkpt lat="49.68345" lon="4.76816">
        <ele>170.729</ele>
        <time>2011-01-19T10:00:54Z</time>
      </trkpt>
      <trkpt lat="49.68351" lon="4.76826">
        <ele>170.164</ele>
        <time>2011-01-19T10:00:56Z</time>
      </trkpt>
      <trkpt lat="49.68359" lon="4.76834">
        <ele>169.514</ele>
        <time>2011-01-19T10:00:58Z</time>
      </trkpt>
      <trkpt lat="49.68369" lon="4.76842">
        <ele>168.966</ele>
        <time>2011-01-19T10:01:00Z</time>
      </trkpt>
      <trkpt lat="49.68381" lon="4.76851">
        <ele>168.491</ele>
        <time>2011-01-19T10:01:02Z</time>
      </trkpt>
      <trkpt lat="49.68391" lon="4.76858">
        <ele>168.367</ele>
        <time>2011-01-19T10:01:04Z</time>
      </trkpt>
      <trkpt lat="49.68399" lon="4.76863">
        <ele>167.846</ele>
        <time>2011-01-19T10:01:06Z</time>
      </trkpt>
      <trkpt lat="49.68411" lon="4.76869">
        <ele>166.204</ele>
        <time>2011-01-19T10:01:08Z</time>
      </trkpt>
      <trkpt lat="49.68416" lon="4.76872">
        <ele>165.663</ele>
        <time>2011-01-19T10:01:09Z</time>
      </trkpt>
      <trkpt lat="49.68422" lon="4.76874">
        <ele>165.044</ele>
        <time>2011-01-19T10:01:10Z</time>
      </trkpt>
      <trkpt lat="49.68434" lon="4.76878">
        <ele>164.107</ele>
        <time>2011-01-19T10:01:11Z</time>
      </trkpt>
      <trkpt lat="49.6844" lon="4.7688">
        <ele>163.839</ele>
        <time>2011-01-19T10:01:12Z</time>
      </trkpt>
      <trkpt lat="49.68451" lon="4.76888">
        <ele>163.342</ele>
        <time>2011-01-19T10:01:14Z</time>
      </trkpt>
      <trkpt lat="49.68458" lon="4.76898">
        <ele>162.698</ele>
        <time>2011-01-19T10:01:16Z</time>
      </trkpt>
      <trkpt lat="49.68466" lon="4.76908">
        <ele>161.956</ele>
        <time>2011-01-19T10:01:18Z</time>
      </trkpt>
      <trkpt lat="49.68472" lon="4.76918">
        <ele>161.575</ele>
        <time>2011-01-19T10:01:19Z</time>
      </trkpt>
      <trkpt lat="49.68475" lon="4.76922">
        <ele>161.461</ele>
        <time>2011-01-19T10:01:20Z</time>
      </trkpt>
      <trkpt lat="49.6848" lon="4.76929">
        <ele>161.776</ele>
        <time>2011-01-19T10:01:22Z</time>
      </trkpt>
      <trkpt lat="49.68483" lon="4.76932">
        <ele>162.027</ele>
        <time>2011-01-19T10:01:23Z</time>
      </trkpt>
      <trkpt lat="49.68486" lon="4.76935">
        <ele>162.3</ele>
        <time>2011-01-19T10:01:24Z</time>
      </trkpt>
      <trkpt lat="49.68494" lon="4.76944">
        <ele>163.131</ele>
        <time>2011-01-19T10:01:26Z</time>
      </trkpt>
      <trkpt lat="49.68498" lon="4.76955">
        <ele>164.207</ele>
        <time>2011-01-19T10:01:28Z</time>
      </trkpt>
      <trkpt lat="49.68502" lon="4.76967">
        <ele>165.158</ele>
        <time>2011-01-19T10:01:30Z</time>
      </trkpt>
      <trkpt lat="49.68504" lon="4.76973">
        <ele>165.575</ele>
        <time>2011-01-19T10:01:31Z</time>
      </trkpt>
      <trkpt lat="49.68506" lon="4.76978">
        <ele>165.941</ele>
        <time>2011-01-19T10:01:32Z</time>
      </trkpt>
      <trkpt lat="49.68514" lon="4.76984">
        <ele>166.39</ele>
        <time>2011-01-19T10:01:34Z</time>
      </trkpt>
      <trkpt lat="49.68518" lon="4.76987">
        <ele>166.693</ele>
        <time>2011-01-19T10:01:35Z</time>
      </trkpt>
      <trkpt lat="49.68527" lon="4.76989">
        <ele>167.188</ele>
        <time>2011-01-19T10:01:37Z</time>
      </trkpt>
      <trkpt lat="49.68529" lon="4.76991">
        <ele>167.269</ele>
        <time>2011-01-19T10:01:38Z</time>
      </trkpt>
      <trkpt lat="49.68535" lon="4.76995">
        <ele>167.287</ele>
        <time>2011-01-19T10:01:40Z</time>
      </trkpt>
      <trkpt lat="49.6854" lon="4.76999">
        <ele>167.191</ele>
        <time>2011-01-19T10:01:42Z</time>
      </trkpt>
      <trkpt lat="49.68548" lon="4.77004">
        <ele>167.541</ele>
        <time>2011-01-19T10:01:44Z</time>
      </trkpt>
      <trkpt lat="49.68553" lon="4.77007">
        <ele>167.6</ele>
        <time>2011-01-19T10:01:45Z</time>
      </trkpt>
      <trkpt lat="49.68557" lon="4.77009">
        <ele>167.525</ele>
        <time>2011-01-19T10:01:46Z</time>
      </trkpt>
      <trkpt lat="49.68562" lon="4.77011">
        <ele>167.4</ele>
        <time>2011-01-19T10:01:47Z</time>
      </trkpt>
      <trkpt lat="49.68566" lon="4.77012">
        <ele>166.272</ele>
        <time>2011-01-19T10:01:48Z</time>
      </trkpt>
      <trkpt lat="49.68572" lon="4.77014">
        <ele>163.433</ele>
        <time>2011-01-19T10:01:50Z</time>
      </trkpt>
      <trkpt lat="49.6858" lon="4.77017">
        <ele>163.34</ele>
        <time>2011-01-19T10:01:52Z</time>
      </trkpt>
      <trkpt lat="49.68589" lon="4.77026">
        <ele>162.9</ele>
        <time>2011-01-19T10:01:54Z</time>
      </trkpt>
      <trkpt lat="49.68597" lon="4.77037">
        <ele>163.067</ele>
        <time>2011-01-19T10:01:56Z</time>
      </trkpt>
      <trkpt lat="49.68603" lon="4.77045">
        <ele>163.113</ele>
        <time>2011-01-19T10:01:58Z</time>
      </trkpt>
      <trkpt lat="49.68608" lon="4.77052">
        <ele>163.162</ele>
        <time>2011-01-19T10:01:59Z</time>
      </trkpt>
      <trkpt lat="49.68612" lon="4.77058">
        <ele>163.399</ele>
        <time>2011-01-19T10:02:01Z</time>
      </trkpt>
      <trkpt lat="49.68617" lon="4.77064">
        <ele>163.931</ele>
        <time>2011-01-19T10:02:03Z</time>
      </trkpt>
      <trkpt lat="49.68621" lon="4.77069">
        <ele>164.094</ele>
        <time>2011-01-19T10:02:04Z</time>
      </trkpt>
      <trkpt lat="49.68629" lon="4.7708">
        <ele>164.419</ele>
        <time>2011-01-19T10:02:06Z</time>
      </trkpt>
      <trkpt lat="49.68634" lon="4.77087">
        <ele>164.62</ele>
        <time>2011-01-19T10:02:07Z</time>
      </trkpt>
      <trkpt lat="49.68645" lon="4.77104">
        <ele>165.004</ele>
        <time>2011-01-19T10:02:09Z</time>
      </trkpt>
      <trkpt lat="49.68654" lon="4.77119">
        <ele>165.312</ele>
        <time>2011-01-19T10:02:11Z</time>
      </trkpt>
      <trkpt lat="49.6866" lon="4.77123">
        <ele>165.387</ele>
        <time>2011-01-19T10:02:12Z</time>
      </trkpt>
      <trkpt lat="49.68673" lon="4.77131">
        <ele>165.333</ele>
        <time>2011-01-19T10:02:14Z</time>
      </trkpt>
      <trkpt lat="49.68686" lon="4.77134">
        <ele>165.071</ele>
        <time>2011-01-19T10:02:16Z</time>
      </trkpt>
      <trkpt lat="49.68692" lon="4.77135">
        <ele>164.859</ele>
        <time>2011-01-19T10:02:17Z</time>
      </trkpt>
      <trkpt lat="49.68698" lon="4.77136">
        <ele>164.576</ele>
        <time>2011-01-19T10:02:18Z</time>
      </trkpt>
      <trkpt lat="49.68708" lon="4.77136">
        <ele>163.668</ele>
        <time>2011-01-19T10:02:20Z</time>
      </trkpt>
      <trkpt lat="49.68712" lon="4.77136">
        <ele>163.183</ele>
        <time>2011-01-19T10:02:21Z</time>
      </trkpt>
      <trkpt lat="49.68716" lon="4.77136">
        <ele>162.739</ele>
        <time>2011-01-19T10:02:22Z</time>
      </trkpt>
      <trkpt lat="49.68723" lon="4.77135">
        <ele>161.852</ele>
        <time>2011-01-19T10:02:24Z</time>
      </trkpt>
      <trkpt lat="49.6873" lon="4.77135">
        <ele>161.103</ele>
        <time>2011-01-19T10:02:26Z</time>
      </trkpt>
      <trkpt lat="49.68736" lon="4.77133">
        <ele>160.549</ele>
        <time>2011-01-19T10:02:28Z</time>
      </trkpt>
      <trkpt lat="49.68739" lon="4.77133">
        <ele>160.405</ele>
        <time>2011-01-19T10:02:29Z</time>
      </trkpt>
      <trkpt lat="49.68742" lon="4.77132">
        <ele>160.296</ele>
        <time>2011-01-19T10:02:30Z</time>
      </trkpt>
      <trkpt lat="49.68749" lon="4.77132">
        <ele>160.25</ele>
        <time>2011-01-19T10:02:32Z</time>
      </trkpt>
      <trkpt lat="49.68756" lon="4.77134">
        <ele>160.491</ele>
        <time>2011-01-19T10:02:34Z</time>
      </trkpt>
      <trkpt lat="49.68759" lon="4.77136">
        <ele>160.615</ele>
        <time>2011-01-19T10:02:35Z</time>
      </trkpt>
      <trkpt lat="49.68766" lon="4.77139">
        <ele>160.668</ele>
        <time>2011-01-19T10:02:37Z</time>
      </trkpt>
      <trkpt lat="49.68774" lon="4.77143">
        <ele>160.972</ele>
        <time>2011-01-19T10:02:39Z</time>
      </trkpt>
      <trkpt lat="49.68777" lon="4.77145">
        <ele>161.128</ele>
        <time>2011-01-19T10:02:40Z</time>
      </trkpt>
      <trkpt lat="49.68784" lon="4.77148">
        <ele>161.235</ele>
        <time>2011-01-19T10:02:42Z</time>
      </trkpt>
      <trkpt lat="49.68789" lon="4.77148">
        <ele>161.163</ele>
        <time>2011-01-19T10:02:44Z</time>
      </trkpt>
      <trkpt lat="49.68795" lon="4.77148">
        <ele>161.331</ele>
        <time>2011-01-19T10:02:46Z</time>
      </trkpt>
      <trkpt lat="49.68802" lon="4.7715">
        <ele>161.772</ele>
        <time>2011-01-19T10:02:48Z</time>
      </trkpt>
      <trkpt lat="49.68804" lon="4.77151">
        <ele>161.863</ele>
        <time>2011-01-19T10:02:49Z</time>
      </trkpt>
      <trkpt lat="49.6881" lon="4.77155">
        <ele>162.069</ele>
        <time>2011-01-19T10:02:51Z</time>
      </trkpt>
      <trkpt lat="49.68816" lon="4.77159">
        <ele>161.939</ele>
        <time>2011-01-19T10:02:53Z</time>
      </trkpt>
      <trkpt lat="49.68821" lon="4.77163">
        <ele>161.817</ele>
        <time>2011-01-19T10:02:54Z</time>
      </trkpt>
      <trkpt lat="49.68825" lon="4.77164">
        <ele>161.743</ele>
        <time>2011-01-19T10:02:56Z</time>
      </trkpt>
      <trkpt lat="49.68828" lon="4.77165">
        <ele>161.724</ele>
        <time>2011-01-19T10:02:57Z</time>
      </trkpt>
      <trkpt lat="49.68835" lon="4.77166">
        <ele>161.363</ele>
        <time>2011-01-19T10:02:59Z</time>
      </trkpt>
      <trkpt lat="49.6884" lon="4.77167">
        <ele>161.249</ele>
        <time>2011-01-19T10:03:00Z</time>
      </trkpt>
      <trkpt lat="49.68843" lon="4.77168">
        <ele>161.184</ele>
        <time>2011-01-19T10:03:01Z</time>
      </trkpt>
      <trkpt lat="49.68853" lon="4.77173">
        <ele>161.08</ele>
        <time>2011-01-19T10:03:03Z</time>
      </trkpt>
      <trkpt lat="49.68856" lon="4.77175">
        <ele>161.057</ele>
        <time>2011-01-19T10:03:04Z</time>
      </trkpt>
      <trkpt lat="49.68858" lon="4.77177">
        <ele>161.062</ele>
        <time>2011-01-19T10:03:05Z</time>
      </trkpt>
      <trkpt lat="49.68861" lon="4.77179">
        <ele>161.638</ele>
        <time>2011-01-19T10:03:07Z</time>
      </trkpt>
      <trkpt lat="49.68865" lon="4.7718">
        <ele>163.111</ele>
        <time>2011-01-19T10:03:09Z</time>
      </trkpt>
      <trkpt lat="49.68867" lon="4.77181">
        <ele>163.868</ele>
        <time>2011-01-19T10:03:10Z</time>
      </trkpt>
      <trkpt lat="49.68869" lon="4.77182">
        <ele>164.345</ele>
        <time>2011-01-19T10:03:11Z</time>
      </trkpt>
      <trkpt lat="49.68878" lon="4.77185">
        <ele>164.984</ele>
        <time>2011-01-19T10:03:13Z</time>
      </trkpt>
      <trkpt lat="49.68881" lon="4.77187">
        <ele>165.59</ele>
        <time>2011-01-19T10:03:14Z</time>
      </trkpt>
      <trkpt lat="49.68888" lon="4.77191">
        <ele>166.116</ele>
        <time>2011-01-19T10:03:16Z</time>
      </trkpt>
      <trkpt lat="49.6889" lon="4.77194">
        <ele>166.313</ele>
        <time>2011-01-19T10:03:17Z</time>
      </trkpt>
      <trkpt lat="49.68893" lon="4.772">
        <ele>166.627</ele>
        <time>2011-01-19T10:03:19Z</time>
      </trkpt>
      <trkpt lat="49.68894" lon="4.77202">
        <ele>166.82</ele>
        <time>2011-01-19T10:03:20Z</time>
      </trkpt>
      <trkpt lat="49.68897" lon="4.77206">
        <ele>167.73</ele>
        <time>2011-01-19T10:03:22Z</time>
      </trkpt>
      <trkpt lat="49.68899" lon="4.77208">
        <ele>168.115</ele>
        <time>2011-01-19T10:03:23Z</time>
      </trkpt>
      <trkpt lat="49.689" lon="4.77208">
        <ele>168.53</ele>
        <time>2011-01-19T10:03:24Z</time>
      </trkpt>
      <trkpt lat="49.68903" lon="4.77212">
        <ele>169.524</ele>
        <time>2011-01-19T10:03:26Z</time>
      </trkpt>
      <trkpt lat="49.68903" lon="4.77214">
        <ele>169.721</ele>
        <time>2011-01-19T10:03:27Z</time>
      </trkpt>
      <trkpt lat="49.68903" lon="4.77217">
        <ele>169.624</ele>
        <time>2011-01-19T10:03:29Z</time>
      </trkpt>
      <trkpt lat="49.68903" lon="4.77217">
        <ele>169.103</ele>
        <time>2011-01-19T10:03:31Z</time>
      </trkpt>
      <trkpt lat="49.68903" lon="4.77217">
        <ele>168.357</ele>
        <time>2011-01-19T10:03:33Z</time>
      </trkpt>
      <trkpt lat="49.68902" lon="4.77216">
        <ele>168.02</ele>
        <time>2011-01-19T10:03:34Z</time>
      </trkpt>
      <trkpt lat="49.68902" lon="4.77216">
        <ele>167.2</ele>
        <time>2011-01-19T10:03:36Z</time>
      </trkpt>
      <trkpt lat="49.68902" lon="4.77215">
        <ele>166.85</ele>
        <time>2011-01-19T10:03:37Z</time>
      </trkpt>
      <trkpt lat="49.68902" lon="4.77215">
        <ele>166.14</ele>
        <time>2011-01-19T10:03:39Z</time>
      </trkpt>
      <trkpt lat="49.68904" lon="4.77215">
        <ele>165.19</ele>
        <time>2011-01-19T10:03:41Z</time>
      </trkpt>
      <trkpt lat="49.68905" lon="4.77216">
        <ele>164.52</ele>
        <time>2011-01-19T10:03:43Z</time>
      </trkpt>
      <trkpt lat="49.68906" lon="4.77217">
        <ele>163.93</ele>
        <time>2011-01-19T10:03:45Z</time>
      </trkpt>
      <trkpt lat="49.68906" lon="4.77217">
        <ele>163.67</ele>
        <time>2011-01-19T10:03:46Z</time>
      </trkpt>
      <trkpt lat="49.68906" lon="4.77217">
        <ele>163.43</ele>
        <time>2011-01-19T10:03:47Z</time>
      </trkpt>
      <trkpt lat="49.68906" lon="4.77217">
        <ele>163.21</ele>
        <time>2011-01-19T10:03:48Z</time>
      </trkpt>
      <trkpt lat="49.68906" lon="4.77217">
        <ele>163.09</ele>
        <time>2011-01-19T10:03:49Z</time>
      </trkpt>
      <trkpt lat="49.68906" lon="4.77217">
        <ele>163.12</ele>
        <time>2011-01-19T10:03:50Z</time>
      </trkpt>
      <trkpt lat="49.68906" lon="4.77217">
        <ele>163.17</ele>
        <time>2011-01-19T10:03:52Z</time>
      </trkpt>
      <trkpt lat="49.68906" lon="4.77217">
        <ele>163.18</ele>
        <time>2011-01-19T10:03:53Z</time>
      </trkpt>
      <trkpt lat="49.68906" lon="4.77217">
        <ele>163.19</ele>
        <time>2011-01-19T10:03:54Z</time>
      </trkpt>
      <trkpt lat="49.68906" lon="4.77217">
        <ele>163.2</ele>
        <time>2011-01-19T10:03:56Z</time>
      </trkpt>
      <trkpt lat="49.68906" lon="4.77217">
        <ele>163.2</ele>
        <time>2011-01-19T10:03:58Z</time>
      </trkpt>
      <trkpt lat="49.68906" lon="4.77217">
        <ele>163.2</ele>
        <time>2011-01-19T10:04:00Z</time>
      </trkpt>
      <trkpt lat="49.68906" lon="4.77217">
        <ele>163.2</ele>
        <time>2011-01-19T10:04:01Z</time>
      </trkpt>
      <trkpt lat="49.68906" lon="4.77217">
        <ele>163.2</ele>
        <time>2011-01-19T10:04:03Z</time>
      </trkpt>
      <trkpt lat="49.68906" lon="4.77217">
        <ele>163.21</ele>
        <time>2011-01-19T10:04:05Z</time>
      </trkpt>
      <trkpt lat="49.68905" lon="4.77217">
        <ele>163.23</ele>
        <time>2011-01-19T10:04:06Z</time>
      </trkpt>
      <trkpt lat="49.68905" lon="4.77218">
        <ele>163.42</ele>
        <time>2011-01-19T10:04:07Z</time>
      </trkpt>
      <trkpt lat="49.68905" lon="4.77218">
        <ele>163.62</ele>
        <time>2011-01-19T10:04:08Z</time>
      </trkpt>
      <trkpt lat="49.68904" lon="4.77219">
        <ele>164</ele>
        <time>2011-01-19T10:04:10Z</time>
      </trkpt>
      <trkpt lat="49.68903" lon="4.77219">
        <ele>164.288</ele>
        <time>2011-01-19T10:04:12Z</time>
      </trkpt>
      <trkpt lat="49.68903" lon="4.77219">
        <ele>164.476</ele>
        <time>2011-01-19T10:04:14Z</time>
      </trkpt>
      <trkpt lat="49.68903" lon="4.77219">
        <ele>164.57</ele>
        <time>2011-01-19T10:04:15Z</time>
      </trkpt>
      <trkpt lat="49.68904" lon="4.77218">
        <ele>164.633</ele>
        <time>2011-01-19T10:04:17Z</time>
      </trkpt>
      <trkpt lat="49.68904" lon="4.77218">
        <ele>164.529</ele>
        <time>2011-01-19T10:04:19Z</time>
      </trkpt>
      <trkpt lat="49.68904" lon="4.77219">
        <ele>164.492</ele>
        <time>2011-01-19T10:04:20Z</time>
      </trkpt>
      <trkpt lat="49.68904" lon="4.77219">
        <ele>164.498</ele>
        <time>2011-01-19T10:04:21Z</time>
      </trkpt>
      <trkpt lat="49.68904" lon="4.77219">
        <ele>164.559</ele>
        <time>2011-01-19T10:04:23Z</time>
      </trkpt>
      <trkpt lat="49.68904" lon="4.77219">
        <ele>164.619</ele>
        <time>2011-01-19T10:04:24Z</time>
      </trkpt>
      <trkpt lat="49.68904" lon="4.77219">
        <ele>164.7</ele>
        <time>2011-01-19T10:04:26Z</time>
      </trkpt>
      <trkpt lat="49.68904" lon="4.77219">
        <ele>164.7</ele>
        <time>2011-01-19T10:04:28Z</time>
      </trkpt>
      <trkpt lat="49.68904" lon="4.77219">
        <ele>164.7</ele>
        <time>2011-01-19T10:04:30Z</time>
      </trkpt>
      <trkpt lat="49.68904" lon="4.77219">
        <ele>164.68</ele>
        <time>2011-01-19T10:04:32Z</time>
      </trkpt>
      <trkpt lat="49.68904" lon="4.77219">
        <ele>164.67</ele>
        <time>2011-01-19T10:04:33Z</time>
      </trkpt>
      <trkpt lat="49.68904" lon="4.77219">
        <ele>164.66</ele>
        <time>2011-01-19T10:04:34Z</time>
      </trkpt>
      <trkpt lat="49.68904" lon="4.77219">
        <ele>164.64</ele>
        <time>2011-01-19T10:04:36Z</time>
      </trkpt>
      <trkpt lat="49.68905" lon="4.7722">
        <ele>164.63</ele>
        <time>2011-01-19T10:04:37Z</time>
      </trkpt>
      <trkpt lat="49.68908" lon="4.77224">
        <ele>164.48</ele>
        <time>2011-01-19T10:04:39Z</time>
      </trkpt>
      <trkpt lat="49.68913" lon="4.7723">
        <ele>164.11</ele>
        <time>2011-01-19T10:04:41Z</time>
      </trkpt>
      <trkpt lat="49.68917" lon="4.77235">
        <ele>163.73</ele>
        <time>2011-01-19T10:04:43Z</time>
      </trkpt>
      <trkpt lat="49.6892" lon="4.77239">
        <ele>163.36</ele>
        <time>2011-01-19T10:04:45Z</time>
      </trkpt>
      <trkpt lat="49.68923" lon="4.77243">
        <ele>162.99</ele>
        <time>2011-01-19T10:04:47Z</time>
      </trkpt>
      <trkpt lat="49.68924" lon="4.77245">
        <ele>162.82</ele>
        <time>2011-01-19T10:04:48Z</time>
      </trkpt>
      <trkpt lat="49.68926" lon="4.77248">
        <ele>162.74</ele>
        <time>2011-01-19T10:04:49Z</time>
      </trkpt>
      <trkpt lat="49.68928" lon="4.7725">
        <ele>162.77</ele>
        <time>2011-01-19T10:04:50Z</time>
      </trkpt>
      <trkpt lat="49.6893" lon="4.77254">
        <ele>162.74</ele>
        <time>2011-01-19T10:04:52Z</time>
      </trkpt>
      <trkpt lat="49.68933" lon="4.77257">
        <ele>162.61</ele>
        <time>2011-01-19T10:04:54Z</time>
      </trkpt>
      <trkpt lat="49.68934" lon="4.77259">
        <ele>162.53</ele>
        <time>2011-01-19T10:04:55Z</time>
      </trkpt>
      <trkpt lat="49.68937" lon="4.77265">
        <ele>162.39</ele>
        <time>2011-01-19T10:04:57Z</time>
      </trkpt>
      <trkpt lat="49.68938" lon="4.77268">
        <ele>162.33</ele>
        <time>2011-01-19T10:04:58Z</time>
      </trkpt>
      <trkpt lat="49.68941" lon="4.77271">
        <ele>162.17</ele>
        <time>2011-01-19T10:05:00Z</time>
      </trkpt>
      <trkpt lat="49.68942" lon="4.77274">
        <ele>162.03</ele>
        <time>2011-01-19T10:05:02Z</time>
      </trkpt>
      <trkpt lat="49.68945" lon="4.77276">
        <ele>161.63</ele>
        <time>2011-01-19T10:05:04Z</time>
      </trkpt>
      <trkpt lat="49.68946" lon="4.77281">
        <ele>161.08</ele>
        <time>2011-01-19T10:05:06Z</time>
      </trkpt>
      <trkpt lat="49.68947" lon="4.77284">
        <ele>160.72</ele>
        <time>2011-01-19T10:05:07Z</time>
      </trkpt>
      <trkpt lat="49.68947" lon="4.77286">
        <ele>160.35</ele>
        <time>2011-01-19T10:05:08Z</time>
      </trkpt>
      <trkpt lat="49.6895" lon="4.7729">
        <ele>159.66</ele>
        <time>2011-01-19T10:05:10Z</time>
      </trkpt>
      <trkpt lat="49.68953" lon="4.77293">
        <ele>159.36</ele>
        <time>2011-01-19T10:05:12Z</time>
      </trkpt>
      <trkpt lat="49.68954" lon="4.77296">
        <ele>159.71</ele>
        <time>2011-01-19T10:05:14Z</time>
      </trkpt>
      <trkpt lat="49.68955" lon="4.77297">
        <ele>159.92</ele>
        <time>2011-01-19T10:05:15Z</time>
      </trkpt>
      <trkpt lat="49.68958" lon="4.773">
        <ele>160.17</ele>
        <time>2011-01-19T10:05:17Z</time>
      </trkpt>
      <trkpt lat="49.68961" lon="4.77303">
        <ele>160.295</ele>
        <time>2011-01-19T10:05:19Z</time>
      </trkpt>
      <trkpt lat="49.68963" lon="4.77306">
        <ele>160.466</ele>
        <time>2011-01-19T10:05:20Z</time>
      </trkpt>
      <trkpt lat="49.68965" lon="4.7731">
        <ele>160.592</ele>
        <time>2011-01-19T10:05:22Z</time>
      </trkpt>
      <trkpt lat="49.68968" lon="4.77313">
        <ele>160.558</ele>
        <time>2011-01-19T10:05:24Z</time>
      </trkpt>
      <trkpt lat="49.68971" lon="4.77316">
        <ele>160.664</ele>
        <time>2011-01-19T10:05:26Z</time>
      </trkpt>
      <trkpt lat="49.68974" lon="4.77321">
        <ele>161.19</ele>
        <time>2011-01-19T10:05:28Z</time>
      </trkpt>
      <trkpt lat="49.68976" lon="4.77326">
        <ele>161.41</ele>
        <time>2011-01-19T10:05:30Z</time>
      </trkpt>
      <trkpt lat="49.68979" lon="4.7733">
        <ele>161.33</ele>
        <time>2011-01-19T10:05:32Z</time>
      </trkpt>
      <trkpt lat="49.68982" lon="4.77334">
        <ele>161.09</ele>
        <time>2011-01-19T10:05:34Z</time>
      </trkpt>
      <trkpt lat="49.68982" lon="4.77336">
        <ele>161.05</ele>
        <time>2011-01-19T10:05:35Z</time>
      </trkpt>
      <trkpt lat="49.68984" lon="4.77339">
        <ele>161.02</ele>
        <time>2011-01-19T10:05:37Z</time>
      </trkpt>
      <trkpt lat="49.68987" lon="4.77342">
        <ele>161.13</ele>
        <time>2011-01-19T10:05:39Z</time>
      </trkpt>
      <trkpt lat="49.68991" lon="4.77346">
        <ele>161.16</ele>
        <time>2011-01-19T10:05:41Z</time>
      </trkpt>
      <trkpt lat="49.68994" lon="4.77348">
        <ele>161.15</ele>
        <time>2011-01-19T10:05:42Z</time>
      </trkpt>
      <trkpt lat="49.68996" lon="4.77351">
        <ele>161.03</ele>
        <time>2011-01-19T10:05:44Z</time>
      </trkpt>
      <trkpt lat="49.68998" lon="4.77354">
        <ele>160.704</ele>
        <time>2011-01-19T10:05:46Z</time>
      </trkpt>
      <trkpt lat="49.69" lon="4.77354">
        <ele>160.313</ele>
        <time>2011-01-19T10:05:48Z</time>
      </trkpt>
      <trkpt lat="49.69002" lon="4.77355">
        <ele>160.208</ele>
        <time>2011-01-19T10:05:50Z</time>
      </trkpt>
      <trkpt lat="49.69003" lon="4.77358">
        <ele>160.713</ele>
        <time>2011-01-19T10:05:52Z</time>
      </trkpt>
      <trkpt lat="49.69003" lon="4.7736">
        <ele>161.06</ele>
        <time>2011-01-19T10:05:53Z</time>
      </trkpt>
      <trkpt lat="49.69005" lon="4.77365">
        <ele>161.82</ele>
        <time>2011-01-19T10:05:55Z</time>
      </trkpt>
      <trkpt lat="49.69008" lon="4.77369">
        <ele>162.84</ele>
        <time>2011-01-19T10:05:57Z</time>
      </trkpt>
      <trkpt lat="49.69008" lon="4.77372">
        <ele>164.08</ele>
        <time>2011-01-19T10:05:59Z</time>
      </trkpt>
      <trkpt lat="49.69007" lon="4.77373">
        <ele>164.804</ele>
        <time>2011-01-19T10:06:01Z</time>
      </trkpt>
      <trkpt lat="49.69007" lon="4.77374">
        <ele>164.996</ele>
        <time>2011-01-19T10:06:02Z</time>
      </trkpt>
      <trkpt lat="49.69011" lon="4.77378">
        <ele>164.986</ele>
        <time>2011-01-19T10:06:04Z</time>
      </trkpt>
      <trkpt lat="49.69013" lon="4.7738">
        <ele>164.803</ele>
        <time>2011-01-19T10:06:05Z</time>
      </trkpt>
      <trkpt lat="49.69015" lon="4.77382">
        <ele>164.165</ele>
        <time>2011-01-19T10:06:07Z</time>
      </trkpt>
      <trkpt lat="49.69016" lon="4.77383">
        <ele>163.766</ele>
        <time>2011-01-19T10:06:08Z</time>
      </trkpt>
      <trkpt lat="49.69019" lon="4.77385">
        <ele>163.181</ele>
        <time>2011-01-19T10:06:10Z</time>
      </trkpt>
      <trkpt lat="49.69022" lon="4.77391">
        <ele>162.886</ele>
        <time>2011-01-19T10:06:12Z</time>
      </trkpt>
      <trkpt lat="49.69022" lon="4.77393">
        <ele>163.015</ele>
        <time>2011-01-19T10:06:13Z</time>
      </trkpt>
      <trkpt lat="49.69021" lon="4.77396">
        <ele>164.171</ele>
        <time>2011-01-19T10:06:15Z</time>
      </trkpt>
      <trkpt lat="49.69018" lon="4.77399">
        <ele>165.597</ele>
        <time>2011-01-19T10:06:17Z</time>
      </trkpt>
      <trkpt lat="49.69019" lon="4.77402">
        <ele>166.74</ele>
        <time>2011-01-19T10:06:19Z</time>
      </trkpt>
      <trkpt lat="49.69022" lon="4.77406">
        <ele>167.547</ele>
        <time>2011-01-19T10:06:21Z</time>
      </trkpt>
      <trkpt lat="49.69024" lon="4.77407">
        <ele>167.904</ele>
        <time>2011-01-19T10:06:22Z</time>
      </trkpt>
      <trkpt lat="49.69025" lon="4.77409">
        <ele>168.23</ele>
        <time>2011-01-19T10:06:24Z</time>
      </trkpt>
      <trkpt lat="49.69026" lon="4.7741">
        <ele>168.24</ele>
        <time>2011-01-19T10:06:25Z</time>
      </trkpt>
      <trkpt lat="49.69027" lon="4.7741">
        <ele>168.26</ele>
        <time>2011-01-19T10:06:27Z</time>
      </trkpt>
      <trkpt lat="49.69027" lon="4.77411">
        <ele>168.286</ele>
        <time>2011-01-19T10:06:28Z</time>
      </trkpt>
      <trkpt lat="49.69027" lon="4.77412">
        <ele>168.689</ele>
        <time>2011-01-19T10:06:30Z</time>
      </trkpt>
      <trkpt lat="49.69027" lon="4.77413">
        <ele>169.386</ele>
        <time>2011-01-19T10:06:32Z</time>
      </trkpt>
      <trkpt lat="49.69028" lon="4.77413">
        <ele>169.768</ele>
        <time>2011-01-19T10:06:34Z</time>
      </trkpt>
      <trkpt lat="49.69029" lon="4.77411">
        <ele>169.3</ele>
        <time>2011-01-19T10:06:36Z</time>
      </trkpt>
      <trkpt lat="49.69029" lon="4.77411">
        <ele>169.018</ele>
        <time>2011-01-19T10:06:37Z</time>
      </trkpt>
      <trkpt lat="49.6903" lon="4.77412">
        <ele>168.39</ele>
        <time>2011-01-19T10:06:39Z</time>
      </trkpt>
      <trkpt lat="49.69031" lon="4.77412">
        <ele>167.85</ele>
        <time>2011-01-19T10:06:40Z</time>
      </trkpt>
      <trkpt lat="49.69032" lon="4.77415">
        <ele>166.58</ele>
        <time>2011-01-19T10:06:42Z</time>
      </trkpt>
      <trkpt lat="49.69032" lon="4.77415">
        <ele>165.66</ele>
        <time>2011-01-19T10:06:43Z</time>
      </trkpt>
      <trkpt lat="49.69031" lon="4.77416">
        <ele>164.27</ele>
        <time>2011-01-19T10:06:45Z</time>
      </trkpt>
      <trkpt lat="49.69029" lon="4.77415">
        <ele>163.19</ele>
        <time>2011-01-19T10:06:47Z</time>
      </trkpt>
      <trkpt lat="49.69028" lon="4.77413">
        <ele>162.77</ele>
        <time>2011-01-19T10:06:48Z</time>
      </trkpt>
      <trkpt lat="49.69028" lon="4.77411">
        <ele>162.23</ele>
        <time>2011-01-19T10:06:50Z</time>
      </trkpt>
      <trkpt lat="49.69031" lon="4.77413">
        <ele>162.12</ele>
        <time>2011-01-19T10:06:52Z</time>
      </trkpt>
      <trkpt lat="49.69034" lon="4.77417">
        <ele>162.72</ele>
        <time>2011-01-19T10:06:54Z</time>
      </trkpt>
      <trkpt lat="49.69035" lon="4.77419">
        <ele>163.76</ele>
        <time>2011-01-19T10:06:56Z</time>
      </trkpt>
      <trkpt lat="49.69034" lon="4.77417">
        <ele>164.61</ele>
        <time>2011-01-19T10:06:58Z</time>
      </trkpt>
      <trkpt lat="49.69032" lon="4.77416">
        <ele>164.94</ele>
        <time>2011-01-19T10:06:59Z</time>
      </trkpt>
      <trkpt lat="49.69031" lon="4.77414">
        <ele>165.69</ele>
        <time>2011-01-19T10:07:01Z</time>
      </trkpt>
      <trkpt lat="49.6903" lon="4.77412">
        <ele>166.39</ele>
        <time>2011-01-19T10:07:03Z</time>
      </trkpt>
      <trkpt lat="49.6903" lon="4.77412">
        <ele>166.88</ele>
        <time>2011-01-19T10:07:05Z</time>
      </trkpt>
      <trkpt lat="49.6903" lon="4.77412">
        <ele>166.97</ele>
        <time>2011-01-19T10:07:06Z</time>
      </trkpt>
      <trkpt lat="49.6903" lon="4.77412">
        <ele>167.15</ele>
        <time>2011-01-19T10:07:08Z</time>
      </trkpt>
      <trkpt lat="49.6903" lon="4.77412">
        <ele>167.1</ele>
        <time>2011-01-19T10:07:10Z</time>
      </trkpt>
      <trkpt lat="49.6903" lon="4.77412">
        <ele>167.02</ele>
        <time>2011-01-19T10:07:11Z</time>
      </trkpt>
      <trkpt lat="49.6903" lon="4.77412">
        <ele>166.84</ele>
        <time>2011-01-19T10:07:13Z</time>
      </trkpt>
      <trkpt lat="49.6903" lon="4.77412">
        <ele>166.7</ele>
        <time>2011-01-19T10:07:15Z</time>
      </trkpt>
      <trkpt lat="49.6903" lon="4.77413">
        <ele>166.7</ele>
        <time>2011-01-19T10:07:16Z</time>
      </trkpt>
      <trkpt lat="49.6903" lon="4.77413">
        <ele>166.69</ele>
        <time>2011-01-19T10:07:18Z</time>
      </trkpt>
      <trkpt lat="49.6903" lon="4.77413">
        <ele>166.67</ele>
        <time>2011-01-19T10:07:20Z</time>
      </trkpt>
      <trkpt lat="49.6903" lon="4.77413">
        <ele>166.65</ele>
        <time>2011-01-19T10:07:22Z</time>
      </trkpt>
      <trkpt lat="49.6903" lon="4.77413">
        <ele>166.63</ele>
        <time>2011-01-19T10:07:24Z</time>
      </trkpt>
      <trkpt lat="49.6903" lon="4.77413">
        <ele>166.63</ele>
        <time>2011-01-19T10:07:25Z</time>
      </trkpt>
      <trkpt lat="49.6903" lon="4.77413">
        <ele>166.63</ele>
        <time>2011-01-19T10:07:26Z</time>
      </trkpt>
      <trkpt lat="49.6903" lon="4.77413">
        <ele>166.64</ele>
        <time>2011-01-19T10:07:28Z</time>
      </trkpt>
      <trkpt lat="49.69032" lon="4.77415">
        <ele>166.66</ele>
        <time>2011-01-19T10:07:30Z</time>
      </trkpt>
      <trkpt lat="49.69037" lon="4.77429">
        <ele>166.45</ele>
        <time>2011-01-19T10:07:32Z</time>
      </trkpt>
      <trkpt lat="49.69043" lon="4.77445">
        <ele>166.43</ele>
        <time>2011-01-19T10:07:34Z</time>
      </trkpt>
      <trkpt lat="49.69045" lon="4.77453">
        <ele>166.46</ele>
        <time>2011-01-19T10:07:35Z</time>
      </trkpt>
      <trkpt lat="49.69048" lon="4.77463">
        <ele>166.453</ele>
        <time>2011-01-19T10:07:37Z</time>
      </trkpt>
      <trkpt lat="49.69051" lon="4.77472">
        <ele>166.484</ele>
        <time>2011-01-19T10:07:39Z</time>
      </trkpt>
      <trkpt lat="49.69054" lon="4.77479">
        <ele>166.716</ele>
        <time>2011-01-19T10:07:41Z</time>
      </trkpt>
      <trkpt lat="49.69055" lon="4.77482">
        <ele>167.011</ele>
        <time>2011-01-19T10:07:42Z</time>
      </trkpt>
      <trkpt lat="49.69055" lon="4.77486">
        <ele>167.432</ele>
        <time>2011-01-19T10:07:44Z</time>
      </trkpt>
      <trkpt lat="49.69055" lon="4.77488">
        <ele>167.674</ele>
        <time>2011-01-19T10:07:45Z</time>
      </trkpt>
      <trkpt lat="49.69054" lon="4.77494">
        <ele>168.37</ele>
        <time>2011-01-19T10:07:47Z</time>
      </trkpt>
      <trkpt lat="49.69055" lon="4.77497">
        <ele>168.85</ele>
        <time>2011-01-19T10:07:48Z</time>
      </trkpt>
      <trkpt lat="49.69056" lon="4.77503">
        <ele>169.75</ele>
        <time>2011-01-19T10:07:50Z</time>
      </trkpt>
      <trkpt lat="49.69057" lon="4.77508">
        <ele>170.41</ele>
        <time>2011-01-19T10:07:52Z</time>
      </trkpt>
      <trkpt lat="49.69059" lon="4.77511">
        <ele>170.83</ele>
        <time>2011-01-19T10:07:54Z</time>
      </trkpt>
      <trkpt lat="49.69059" lon="4.77513">
        <ele>170.87</ele>
        <time>2011-01-19T10:07:55Z</time>
      </trkpt>
      <trkpt lat="49.6906" lon="4.77515">
        <ele>170.82</ele>
        <time>2011-01-19T10:07:56Z</time>
      </trkpt>
      <trkpt lat="49.6906" lon="4.77518">
        <ele>170.76</ele>
        <time>2011-01-19T10:07:58Z</time>
      </trkpt>
      <trkpt lat="49.69061" lon="4.77519">
        <ele>170.69</ele>
        <time>2011-01-19T10:07:59Z</time>
      </trkpt>
      <trkpt lat="49.69062" lon="4.77521">
        <ele>170.48</ele>
        <time>2011-01-19T10:08:01Z</time>
      </trkpt>
      <trkpt lat="49.69063" lon="4.77525">
        <ele>170.37</ele>
        <time>2011-01-19T10:08:03Z</time>
      </trkpt>
      <trkpt lat="49.69065" lon="4.77531">
        <ele>170.373</ele>
        <time>2011-01-19T10:08:05Z</time>
      </trkpt>
      <trkpt lat="49.69068" lon="4.77537">
        <ele>170.533</ele>
        <time>2011-01-19T10:08:07Z</time>
      </trkpt>
      <trkpt lat="49.69068" lon="4.7754">
        <ele>170.571</ele>
        <time>2011-01-19T10:08:08Z</time>
      </trkpt>
      <trkpt lat="49.69069" lon="4.77545">
        <ele>170.746</ele>
        <time>2011-01-19T10:08:10Z</time>
      </trkpt>
      <trkpt lat="49.69069" lon="4.77546">
        <ele>170.86</ele>
        <time>2011-01-19T10:08:11Z</time>
      </trkpt>
      <trkpt lat="49.69069" lon="4.77549">
        <ele>171.004</ele>
        <time>2011-01-19T10:08:12Z</time>
      </trkpt>
      <trkpt lat="49.6907" lon="4.77551">
        <ele>171.369</ele>
        <time>2011-01-19T10:08:13Z</time>
      </trkpt>
      <trkpt lat="49.69072" lon="4.77558">
        <ele>171.991</ele>
        <time>2011-01-19T10:08:15Z</time>
      </trkpt>
      <trkpt lat="49.69075" lon="4.77562">
        <ele>172.572</ele>
        <time>2011-01-19T10:08:17Z</time>
      </trkpt>
      <trkpt lat="49.69074" lon="4.77562">
        <ele>172.991</ele>
        <time>2011-01-19T10:08:19Z</time>
      </trkpt>
      <trkpt lat="49.69073" lon="4.77561">
        <ele>173.129</ele>
        <time>2011-01-19T10:08:20Z</time>
      </trkpt>
      <trkpt lat="49.69072" lon="4.77559">
        <ele>173.458</ele>
        <time>2011-01-19T10:08:22Z</time>
      </trkpt>
      <trkpt lat="49.69072" lon="4.77559">
        <ele>173.44</ele>
        <time>2011-01-19T10:08:23Z</time>
      </trkpt>
      <trkpt lat="49.69073" lon="4.7756">
        <ele>173.31</ele>
        <time>2011-01-19T10:08:25Z</time>
      </trkpt>
      <trkpt lat="49.69073" lon="4.77562">
        <ele>172.98</ele>
        <time>2011-01-19T10:08:27Z</time>
      </trkpt>
      <trkpt lat="49.69073" lon="4.77562">
        <ele>172.811</ele>
        <time>2011-01-19T10:08:28Z</time>
      </trkpt>
      <trkpt lat="49.69073" lon="4.77562">
        <ele>172.852</ele>
        <time>2011-01-19T10:08:30Z</time>
      </trkpt>
      <trkpt lat="49.69073" lon="4.77562">
        <ele>172.838</ele>
        <time>2011-01-19T10:08:32Z</time>
      </trkpt>
      <trkpt lat="49.69073" lon="4.77562">
        <ele>172.888</ele>
        <time>2011-01-19T10:08:34Z</time>
      </trkpt>
      <trkpt lat="49.69074" lon="4.77562">
        <ele>172.925</ele>
        <time>2011-01-19T10:08:35Z</time>
      </trkpt>
      <trkpt lat="49.69074" lon="4.77562">
        <ele>173.075</ele>
        <time>2011-01-19T10:08:37Z</time>
      </trkpt>
      <trkpt lat="49.69074" lon="4.77562">
        <ele>173.187</ele>
        <time>2011-01-19T10:08:39Z</time>
      </trkpt>
      <trkpt lat="49.69074" lon="4.77565">
        <ele>173.179</ele>
        <time>2011-01-19T10:08:40Z</time>
      </trkpt>
      <trkpt lat="49.69074" lon="4.77575">
        <ele>173.081</ele>
        <time>2011-01-19T10:08:43Z</time>
      </trkpt>
      <trkpt lat="49.69076" lon="4.77594">
        <ele>172.948</ele>
        <time>2011-01-19T10:08:44Z</time>
      </trkpt>
      <trkpt lat="49.69078" lon="4.77602">
        <ele>172.815</ele>
        <time>2011-01-19T10:08:46Z</time>
      </trkpt>
      <trkpt lat="49.6908" lon="4.77605">
        <ele>172.745</ele>
        <time>2011-01-19T10:08:47Z</time>
      </trkpt>
      <trkpt lat="49.69084" lon="4.77613">
        <ele>172.607</ele>
        <time>2011-01-19T10:08:49Z</time>
      </trkpt>
      <trkpt lat="49.69087" lon="4.77621">
        <ele>172.593</ele>
        <time>2011-01-19T10:08:51Z</time>
      </trkpt>
      <trkpt lat="49.69088" lon="4.77624">
        <ele>172.621</ele>
        <time>2011-01-19T10:08:52Z</time>
      </trkpt>
      <trkpt lat="49.6909" lon="4.77631">
        <ele>172.772</ele>
        <time>2011-01-19T10:08:54Z</time>
      </trkpt>
      <trkpt lat="49.69091" lon="4.77636">
        <ele>172.91</ele>
        <time>2011-01-19T10:08:56Z</time>
      </trkpt>
      <trkpt lat="49.69091" lon="4.77639">
        <ele>172.932</ele>
        <time>2011-01-19T10:08:57Z</time>
      </trkpt>
      <trkpt lat="49.6909" lon="4.77641">
        <ele>172.906</ele>
        <time>2011-01-19T10:08:58Z</time>
      </trkpt>
      <trkpt lat="49.69088" lon="4.77644">
        <ele>172.999</ele>
        <time>2011-01-19T10:09:00Z</time>
      </trkpt>
      <trkpt lat="49.69087" lon="4.77645">
        <ele>172.998</ele>
        <time>2011-01-19T10:09:01Z</time>
      </trkpt>
      <trkpt lat="49.69086" lon="4.77646">
        <ele>172.753</ele>
        <time>2011-01-19T10:09:02Z</time>
      </trkpt>
      <trkpt lat="49.69085" lon="4.77649">
        <ele>172.475</ele>
        <time>2011-01-19T10:09:03Z</time>
      </trkpt>
      <trkpt lat="49.69085" lon="4.77654">
        <ele>172.123</ele>
        <time>2011-01-19T10:09:05Z</time>
      </trkpt>
      <trkpt lat="49.69087" lon="4.7766">
        <ele>171.923</ele>
        <time>2011-01-19T10:09:07Z</time>
      </trkpt>
      <trkpt lat="49.69089" lon="4.77665">
        <ele>172.026</ele>
        <time>2011-01-19T10:09:09Z</time>
      </trkpt>
      <trkpt lat="49.69089" lon="4.7767">
        <ele>171.99</ele>
        <time>2011-01-19T10:09:11Z</time>
      </trkpt>
      <trkpt lat="49.6909" lon="4.77676">
        <ele>172.398</ele>
        <time>2011-01-19T10:09:13Z</time>
      </trkpt>
      <trkpt lat="49.69091" lon="4.77681">
        <ele>172.533</ele>
        <time>2011-01-19T10:09:14Z</time>
      </trkpt>
      <trkpt lat="49.69093" lon="4.77688">
        <ele>172.957</ele>
        <time>2011-01-19T10:09:16Z</time>
      </trkpt>
      <trkpt lat="49.69094" lon="4.77691">
        <ele>173.206</ele>
        <time>2011-01-19T10:09:17Z</time>
      </trkpt>
      <trkpt lat="49.69094" lon="4.77695">
        <ele>173.601</ele>
        <time>2011-01-19T10:09:19Z</time>
      </trkpt>
      <trkpt lat="49.69093" lon="4.77697">
        <ele>173.813</ele>
        <time>2011-01-19T10:09:20Z</time>
      </trkpt>
      <trkpt lat="49.69093" lon="4.777">
        <ele>174.022</ele>
        <time>2011-01-19T10:09:21Z</time>
      </trkpt>
      <trkpt lat="49.69091" lon="4.77706">
        <ele>174.583</ele>
        <time>2011-01-19T10:09:23Z</time>
      </trkpt>
      <trkpt lat="49.69091" lon="4.77707">
        <ele>174.92</ele>
        <time>2011-01-19T10:09:24Z</time>
      </trkpt>
      <trkpt lat="49.69092" lon="4.77711">
        <ele>175.395</ele>
        <time>2011-01-19T10:09:26Z</time>
      </trkpt>
      <trkpt lat="49.69092" lon="4.77713">
        <ele>175.593</ele>
        <time>2011-01-19T10:09:27Z</time>
      </trkpt>
      <trkpt lat="49.69094" lon="4.77719">
        <ele>175.904</ele>
        <time>2011-01-19T10:09:29Z</time>
      </trkpt>
      <trkpt lat="49.69095" lon="4.77721">
        <ele>176.058</ele>
        <time>2011-01-19T10:09:30Z</time>
      </trkpt>
      <trkpt lat="49.69097" lon="4.77727">
        <ele>176.884</ele>
        <time>2011-01-19T10:09:32Z</time>
      </trkpt>
      <trkpt lat="49.69099" lon="4.77733">
        <ele>177.31</ele>
        <time>2011-01-19T10:09:34Z</time>
      </trkpt>
      <trkpt lat="49.691" lon="4.77739">
        <ele>177.67</ele>
        <time>2011-01-19T10:09:36Z</time>
      </trkpt>
      <trkpt lat="49.69101" lon="4.77745">
        <ele>178.52</ele>
        <time>2011-01-19T10:09:38Z</time>
      </trkpt>
      <trkpt lat="49.69102" lon="4.77751">
        <ele>179.61</ele>
        <time>2011-01-19T10:09:40Z</time>
      </trkpt>
      <trkpt lat="49.69103" lon="4.77756">
        <ele>180</ele>
        <time>2011-01-19T10:09:42Z</time>
      </trkpt>
      <trkpt lat="49.69103" lon="4.77761">
        <ele>180.764</ele>
        <time>2011-01-19T10:09:44Z</time>
      </trkpt>
      <trkpt lat="49.69103" lon="4.77765">
        <ele>181.65</ele>
        <time>2011-01-19T10:09:46Z</time>
      </trkpt>
      <trkpt lat="49.69102" lon="4.77768">
        <ele>181.881</ele>
        <time>2011-01-19T10:09:48Z</time>
      </trkpt>
      <trkpt lat="49.69103" lon="4.77771">
        <ele>182.132</ele>
        <time>2011-01-19T10:09:50Z</time>
      </trkpt>
      <trkpt lat="49.69103" lon="4.77772">
        <ele>182.363</ele>
        <time>2011-01-19T10:09:51Z</time>
      </trkpt>
      <trkpt lat="49.69104" lon="4.77774">
        <ele>182.598</ele>
        <time>2011-01-19T10:09:52Z</time>
      </trkpt>
      <trkpt lat="49.69106" lon="4.7778">
        <ele>182.757</ele>
        <time>2011-01-19T10:09:54Z</time>
      </trkpt>
      <trkpt lat="49.69107" lon="4.77783">
        <ele>182.793</ele>
        <time>2011-01-19T10:09:55Z</time>
      </trkpt>
      <trkpt lat="49.69107" lon="4.77787">
        <ele>183.02</ele>
        <time>2011-01-19T10:09:56Z</time>
      </trkpt>
      <trkpt lat="49.69108" lon="4.77792">
        <ele>183.73</ele>
        <time>2011-01-19T10:09:58Z</time>
      </trkpt>
      <trkpt lat="49.69108" lon="4.77794">
        <ele>184</ele>
        <time>2011-01-19T10:09:59Z</time>
      </trkpt>
      <trkpt lat="49.69108" lon="4.77796">
        <ele>184.24</ele>
        <time>2011-01-19T10:10:00Z</time>
      </trkpt>
      <trkpt lat="49.69109" lon="4.77797">
        <ele>184.3</ele>
        <time>2011-01-19T10:10:01Z</time>
      </trkpt>
      <trkpt lat="49.6911" lon="4.77802">
        <ele>184.51</ele>
        <time>2011-01-19T10:10:03Z</time>
      </trkpt>
      <trkpt lat="49.69111" lon="4.77805">
        <ele>184.7</ele>
        <time>2011-01-19T10:10:04Z</time>
      </trkpt>
      <trkpt lat="49.69112" lon="4.7781">
        <ele>185.065</ele>
        <time>2011-01-19T10:10:06Z</time>
      </trkpt>
      <trkpt lat="49.69112" lon="4.77812">
        <ele>185.12</ele>
        <time>2011-01-19T10:10:07Z</time>
      </trkpt>
      <trkpt lat="49.69114" lon="4.77818">
        <ele>184.941</ele>
        <time>2011-01-19T10:10:09Z</time>
      </trkpt>
      <trkpt lat="49.69116" lon="4.77822">
        <ele>184.879</ele>
        <time>2011-01-19T10:10:10Z</time>
      </trkpt>
      <trkpt lat="49.69119" lon="4.77828">
        <ele>185.205</ele>
        <time>2011-01-19T10:10:12Z</time>
      </trkpt>
      <trkpt lat="49.6912" lon="4.77831">
        <ele>185.445</ele>
        <time>2011-01-19T10:10:13Z</time>
      </trkpt>
      <trkpt lat="49.69121" lon="4.77836">
        <ele>185.81</ele>
        <time>2011-01-19T10:10:15Z</time>
      </trkpt>
      <trkpt lat="49.69121" lon="4.77839">
        <ele>185.967</ele>
        <time>2011-01-19T10:10:16Z</time>
      </trkpt>
      <trkpt lat="49.69119" lon="4.77844">
        <ele>186.428</ele>
        <time>2011-01-19T10:10:18Z</time>
      </trkpt>
      <trkpt lat="49.69119" lon="4.77846">
        <ele>186.742</ele>
        <time>2011-01-19T10:10:19Z</time>
      </trkpt>
      <trkpt lat="49.69118" lon="4.77848">
        <ele>187.035</ele>
        <time>2011-01-19T10:10:20Z</time>
      </trkpt>
      <trkpt lat="49.69119" lon="4.77852">
        <ele>187.383</ele>
        <time>2011-01-19T10:10:22Z</time>
      </trkpt>
      <trkpt lat="49.69122" lon="4.77857">
        <ele>187.293</ele>
        <time>2011-01-19T10:10:24Z</time>
      </trkpt>
      <trkpt lat="49.69124" lon="4.77861">
        <ele>187.238</ele>
        <time>2011-01-19T10:10:26Z</time>
      </trkpt>
      <trkpt lat="49.69125" lon="4.77865">
        <ele>187.103</ele>
        <time>2011-01-19T10:10:28Z</time>
      </trkpt>
      <trkpt lat="49.69125" lon="4.77869">
        <ele>186.979</ele>
        <time>2011-01-19T10:10:29Z</time>
      </trkpt>
      <trkpt lat="49.69125" lon="4.77876">
        <ele>186.731</ele>
        <time>2011-01-19T10:10:31Z</time>
      </trkpt>
      <trkpt lat="49.69125" lon="4.77879">
        <ele>186.61</ele>
        <time>2011-01-19T10:10:32Z</time>
      </trkpt>
      <trkpt lat="49.69125" lon="4.77883">
        <ele>186.3</ele>
        <time>2011-01-19T10:10:34Z</time>
      </trkpt>
      <trkpt lat="49.69125" lon="4.77885">
        <ele>186.25</ele>
        <time>2011-01-19T10:10:36Z</time>
      </trkpt>
      <trkpt lat="49.69126" lon="4.77889">
        <ele>186.924</ele>
        <time>2011-01-19T10:10:38Z</time>
      </trkpt>
      <trkpt lat="49.69128" lon="4.77893">
        <ele>187.743</ele>
        <time>2011-01-19T10:10:40Z</time>
      </trkpt>
      <trkpt lat="49.69129" lon="4.77895">
        <ele>188.176</ele>
        <time>2011-01-19T10:10:41Z</time>
      </trkpt>
      <trkpt lat="49.6913" lon="4.779">
        <ele>189.224</ele>
        <time>2011-01-19T10:10:43Z</time>
      </trkpt>
      <trkpt lat="49.69131" lon="4.77902">
        <ele>189.788</ele>
        <time>2011-01-19T10:10:44Z</time>
      </trkpt>
      <trkpt lat="49.69132" lon="4.77904">
        <ele>190.217</ele>
        <time>2011-01-19T10:10:45Z</time>
      </trkpt>
      <trkpt lat="49.69132" lon="4.77909">
        <ele>190.51</ele>
        <time>2011-01-19T10:10:47Z</time>
      </trkpt>
      <trkpt lat="49.69132" lon="4.77916">
        <ele>190.347</ele>
        <time>2011-01-19T10:10:49Z</time>
      </trkpt>
      <trkpt lat="49.69132" lon="4.7792">
        <ele>190.294</ele>
        <time>2011-01-19T10:10:50Z</time>
      </trkpt>
      <trkpt lat="49.69133" lon="4.77926">
        <ele>190.14</ele>
        <time>2011-01-19T10:10:52Z</time>
      </trkpt>
      <trkpt lat="49.69135" lon="4.77931">
        <ele>189.888</ele>
        <time>2011-01-19T10:10:54Z</time>
      </trkpt>
      <trkpt lat="49.69135" lon="4.77932">
        <ele>189.8</ele>
        <time>2011-01-19T10:10:55Z</time>
      </trkpt>
      <trkpt lat="49.69135" lon="4.77934">
        <ele>189.764</ele>
        <time>2011-01-19T10:10:56Z</time>
      </trkpt>
      <trkpt lat="49.69135" lon="4.77938">
        <ele>189.88</ele>
        <time>2011-01-19T10:10:58Z</time>
      </trkpt>
      <trkpt lat="49.69136" lon="4.77945">
        <ele>189.77</ele>
        <time>2011-01-19T10:11:00Z</time>
      </trkpt>
      <trkpt lat="49.69137" lon="4.77951">
        <ele>189.67</ele>
        <time>2011-01-19T10:11:02Z</time>
      </trkpt>
      <trkpt lat="49.69138" lon="4.77958">
        <ele>189.61</ele>
        <time>2011-01-19T10:11:04Z</time>
      </trkpt>
      <trkpt lat="49.69139" lon="4.77961">
        <ele>189.392</ele>
        <time>2011-01-19T10:11:06Z</time>
      </trkpt>
      <trkpt lat="49.69141" lon="4.77965">
        <ele>189.444</ele>
        <time>2011-01-19T10:11:08Z</time>
      </trkpt>
      <trkpt lat="49.69143" lon="4.77969">
        <ele>189.969</ele>
        <time>2011-01-19T10:11:10Z</time>
      </trkpt>
      <trkpt lat="49.69144" lon="4.77973">
        <ele>190.474</ele>
        <time>2011-01-19T10:11:12Z</time>
      </trkpt>
      <trkpt lat="49.69144" lon="4.77974">
        <ele>190.664</ele>
        <time>2011-01-19T10:11:13Z</time>
      </trkpt>
      <trkpt lat="49.69145" lon="4.77977">
        <ele>191.183</ele>
        <time>2011-01-19T10:11:15Z</time>
      </trkpt>
      <trkpt lat="49.69146" lon="4.77982">
        <ele>191.466</ele>
        <time>2011-01-19T10:11:17Z</time>
      </trkpt>
      <trkpt lat="49.69147" lon="4.7799">
        <ele>191.762</ele>
        <time>2011-01-19T10:11:19Z</time>
      </trkpt>
      <trkpt lat="49.69148" lon="4.77994">
        <ele>191.921</ele>
        <time>2011-01-19T10:11:20Z</time>
      </trkpt>
      <trkpt lat="49.69149" lon="4.78">
        <ele>192.251</ele>
        <time>2011-01-19T10:11:22Z</time>
      </trkpt>
      <trkpt lat="49.69149" lon="4.78002">
        <ele>192.411</ele>
        <time>2011-01-19T10:11:23Z</time>
      </trkpt>
      <trkpt lat="49.6915" lon="4.78004">
        <ele>192.513</ele>
        <time>2011-01-19T10:11:24Z</time>
      </trkpt>
      <trkpt lat="49.69151" lon="4.78007">
        <ele>192.9</ele>
        <time>2011-01-19T10:11:26Z</time>
      </trkpt>
      <trkpt lat="49.69153" lon="4.78011">
        <ele>193.2</ele>
        <time>2011-01-19T10:11:28Z</time>
      </trkpt>
      <trkpt lat="49.69152" lon="4.78014">
        <ele>193.296</ele>
        <time>2011-01-19T10:11:30Z</time>
      </trkpt>
      <trkpt lat="49.69153" lon="4.78019">
        <ele>193.418</ele>
        <time>2011-01-19T10:11:32Z</time>
      </trkpt>
      <trkpt lat="49.69155" lon="4.78026">
        <ele>193.727</ele>
        <time>2011-01-19T10:11:34Z</time>
      </trkpt>
      <trkpt lat="49.69158" lon="4.78033">
        <ele>193.51</ele>
        <time>2011-01-19T10:11:36Z</time>
      </trkpt>
      <trkpt lat="49.69159" lon="4.78036">
        <ele>193.528</ele>
        <time>2011-01-19T10:11:38Z</time>
      </trkpt>
      <trkpt lat="49.69158" lon="4.78039">
        <ele>193.36</ele>
        <time>2011-01-19T10:11:40Z</time>
      </trkpt>
      <trkpt lat="49.69158" lon="4.78044">
        <ele>193.127</ele>
        <time>2011-01-19T10:11:42Z</time>
      </trkpt>
      <trkpt lat="49.69158" lon="4.78047">
        <ele>192.922</ele>
        <time>2011-01-19T10:11:43Z</time>
      </trkpt>
      <trkpt lat="49.6916" lon="4.78052">
        <ele>192.657</ele>
        <time>2011-01-19T10:11:45Z</time>
      </trkpt>
      <trkpt lat="49.69161" lon="4.78056">
        <ele>192.637</ele>
        <time>2011-01-19T10:11:47Z</time>
      </trkpt>
      <trkpt lat="49.69162" lon="4.78059">
        <ele>193.089</ele>
        <time>2011-01-19T10:11:49Z</time>
      </trkpt>
      <trkpt lat="49.69163" lon="4.78061">
        <ele>193.399</ele>
        <time>2011-01-19T10:11:50Z</time>
      </trkpt>
      <trkpt lat="49.69164" lon="4.78066">
        <ele>194.232</ele>
        <time>2011-01-19T10:11:52Z</time>
      </trkpt>
      <trkpt lat="49.69165" lon="4.78069">
        <ele>194.618</ele>
        <time>2011-01-19T10:11:53Z</time>
      </trkpt>
      <trkpt lat="49.69166" lon="4.78074">
        <ele>194.993</ele>
        <time>2011-01-19T10:11:55Z</time>
      </trkpt>
      <trkpt lat="49.69167" lon="4.78076">
        <ele>195.097</ele>
        <time>2011-01-19T10:11:56Z</time>
      </trkpt>
      <trkpt lat="49.69168" lon="4.7808">
        <ele>195.088</ele>
        <time>2011-01-19T10:11:58Z</time>
      </trkpt>
      <trkpt lat="49.69169" lon="4.78083">
        <ele>194.809</ele>
        <time>2011-01-19T10:11:59Z</time>
      </trkpt>
      <trkpt lat="49.69169" lon="4.78086">
        <ele>194.31</ele>
        <time>2011-01-19T10:12:01Z</time>
      </trkpt>
      <trkpt lat="49.69169" lon="4.78091">
        <ele>193.8</ele>
        <time>2011-01-19T10:12:03Z</time>
      </trkpt>
      <trkpt lat="49.69169" lon="4.78094">
        <ele>193.6</ele>
        <time>2011-01-19T10:12:05Z</time>
      </trkpt>
      <trkpt lat="49.69169" lon="4.78096">
        <ele>193.8</ele>
        <time>2011-01-19T10:12:07Z</time>
      </trkpt>
      <trkpt lat="49.6917" lon="4.78097">
        <ele>194.12</ele>
        <time>2011-01-19T10:12:09Z</time>
      </trkpt>
      <trkpt lat="49.6917" lon="4.78098">
        <ele>194.11</ele>
        <time>2011-01-19T10:12:11Z</time>
      </trkpt>
      <trkpt lat="49.6917" lon="4.78099">
        <ele>194.03</ele>
        <time>2011-01-19T10:12:13Z</time>
      </trkpt>
      <trkpt lat="49.6917" lon="4.781">
        <ele>194.109</ele>
        <time>2011-01-19T10:12:15Z</time>
      </trkpt>
      <trkpt lat="49.69169" lon="4.781">
        <ele>193.938</ele>
        <time>2011-01-19T10:12:17Z</time>
      </trkpt>
      <trkpt lat="49.69169" lon="4.781">
        <ele>193.549</ele>
        <time>2011-01-19T10:12:19Z</time>
      </trkpt>
      <trkpt lat="49.69169" lon="4.781">
        <ele>193.463</ele>
        <time>2011-01-19T10:12:20Z</time>
      </trkpt>
      <trkpt lat="49.69169" lon="4.781">
        <ele>193.293</ele>
        <time>2011-01-19T10:12:22Z</time>
      </trkpt>
      <trkpt lat="49.69169" lon="4.781">
        <ele>193.232</ele>
        <time>2011-01-19T10:12:23Z</time>
      </trkpt>
      <trkpt lat="49.69169" lon="4.781">
        <ele>193.195</ele>
        <time>2011-01-19T10:12:24Z</time>
      </trkpt>
      <trkpt lat="49.69169" lon="4.781">
        <ele>193.168</ele>
        <time>2011-01-19T10:12:26Z</time>
      </trkpt>
      <trkpt lat="49.69169" lon="4.781">
        <ele>193.171</ele>
        <time>2011-01-19T10:12:27Z</time>
      </trkpt>
      <trkpt lat="49.69169" lon="4.781">
        <ele>193.219</ele>
        <time>2011-01-19T10:12:28Z</time>
      </trkpt>
      <trkpt lat="49.69169" lon="4.781">
        <ele>193.32</ele>
        <time>2011-01-19T10:12:30Z</time>
      </trkpt>
      <trkpt lat="49.69169" lon="4.781">
        <ele>193.44</ele>
        <time>2011-01-19T10:12:32Z</time>
      </trkpt>
      <trkpt lat="49.69169" lon="4.781">
        <ele>193.5</ele>
        <time>2011-01-19T10:12:34Z</time>
      </trkpt>
      <trkpt lat="49.69169" lon="4.781">
        <ele>193.5</ele>
        <time>2011-01-19T10:12:36Z</time>
      </trkpt>
      <trkpt lat="49.69169" lon="4.781">
        <ele>193.5</ele>
        <time>2011-01-19T10:12:37Z</time>
      </trkpt>
      <trkpt lat="49.69169" lon="4.781">
        <ele>193.5</ele>
        <time>2011-01-19T10:12:39Z</time>
      </trkpt>
      <trkpt lat="49.69169" lon="4.781">
        <ele>193.5</ele>
        <time>2011-01-19T10:12:41Z</time>
      </trkpt>
      <trkpt lat="49.69169" lon="4.781">
        <ele>193.48</ele>
        <time>2011-01-19T10:12:43Z</time>
      </trkpt>
      <trkpt lat="49.69169" lon="4.781">
        <ele>193.47</ele>
        <time>2011-01-19T10:12:44Z</time>
      </trkpt>
      <trkpt lat="49.69169" lon="4.781">
        <ele>193.45</ele>
        <time>2011-01-19T10:12:46Z</time>
      </trkpt>
      <trkpt lat="49.69169" lon="4.781">
        <ele>193.43</ele>
        <time>2011-01-19T10:12:48Z</time>
      </trkpt>
      <trkpt lat="49.69169" lon="4.781">
        <ele>193.41</ele>
        <time>2011-01-19T10:12:50Z</time>
      </trkpt>
      <trkpt lat="49.69169" lon="4.781">
        <ele>193.38</ele>
        <time>2011-01-19T10:12:52Z</time>
      </trkpt>
      <trkpt lat="49.69169" lon="4.781">
        <ele>193.37</ele>
        <time>2011-01-19T10:12:53Z</time>
      </trkpt>
      <trkpt lat="49.69169" lon="4.781">
        <ele>193.36</ele>
        <time>2011-01-19T10:12:54Z</time>
      </trkpt>
      <trkpt lat="49.69169" lon="4.781">
        <ele>193.34</ele>
        <time>2011-01-19T10:12:56Z</time>
      </trkpt>
      <trkpt lat="49.69169" lon="4.781">
        <ele>193.32</ele>
        <time>2011-01-19T10:12:58Z</time>
      </trkpt>
      <trkpt lat="49.69169" lon="4.781">
        <ele>193.31</ele>
        <time>2011-01-19T10:12:59Z</time>
      </trkpt>
      <trkpt lat="49.69169" lon="4.781">
        <ele>193.3</ele>
        <time>2011-01-19T10:13:01Z</time>
      </trkpt>
      <trkpt lat="49.69169" lon="4.781">
        <ele>193.3</ele>
        <time>2011-01-19T10:13:03Z</time>
      </trkpt>
      <trkpt lat="49.69169" lon="4.781">
        <ele>193.293</ele>
        <time>2011-01-19T10:13:04Z</time>
      </trkpt>
      <trkpt lat="49.69169" lon="4.781">
        <ele>193.277</ele>
        <time>2011-01-19T10:13:06Z</time>
      </trkpt>
      <trkpt lat="49.69169" lon="4.781">
        <ele>193.259</ele>
        <time>2011-01-19T10:13:08Z</time>
      </trkpt>
      <trkpt lat="49.69169" lon="4.781">
        <ele>193.224</ele>
        <time>2011-01-19T10:13:10Z</time>
      </trkpt>
      <trkpt lat="49.69169" lon="4.781">
        <ele>193.176</ele>
        <time>2011-01-19T10:13:12Z</time>
      </trkpt>
      <trkpt lat="49.69169" lon="4.781">
        <ele>193.141</ele>
        <time>2011-01-19T10:13:14Z</time>
      </trkpt>
      <trkpt lat="49.69169" lon="4.781">
        <ele>193.123</ele>
        <time>2011-01-19T10:13:16Z</time>
      </trkpt>
      <trkpt lat="49.69169" lon="4.781">
        <ele>193.115</ele>
        <time>2011-01-19T10:13:17Z</time>
      </trkpt>
      <trkpt lat="49.69169" lon="4.781">
        <ele>193.107</ele>
        <time>2011-01-19T10:13:18Z</time>
      </trkpt>
      <trkpt lat="49.69169" lon="4.781">
        <ele>193.085</ele>
        <time>2011-01-19T10:13:20Z</time>
      </trkpt>
      <trkpt lat="49.69169" lon="4.781">
        <ele>193.064</ele>
        <time>2011-01-19T10:13:22Z</time>
      </trkpt>
      <trkpt lat="49.69169" lon="4.781">
        <ele>193.043</ele>
        <time>2011-01-19T10:13:24Z</time>
      </trkpt>
      <trkpt lat="49.69169" lon="4.781">
        <ele>193.032</ele>
        <time>2011-01-19T10:13:25Z</time>
      </trkpt>
      <trkpt lat="49.69169" lon="4.781">
        <ele>193.011</ele>
        <time>2011-01-19T10:13:27Z</time>
      </trkpt>
      <trkpt lat="49.69169" lon="4.781">
        <ele>192.99</ele>
        <time>2011-01-19T10:13:29Z</time>
      </trkpt>
      <trkpt lat="49.69169" lon="4.781">
        <ele>192.98</ele>
        <time>2011-01-19T10:13:30Z</time>
      </trkpt>
      <trkpt lat="49.69169" lon="4.781">
        <ele>192.96</ele>
        <time>2011-01-19T10:13:32Z</time>
      </trkpt>
      <trkpt lat="49.69169" lon="4.781">
        <ele>192.94</ele>
        <time>2011-01-19T10:13:34Z</time>
      </trkpt>
      <trkpt lat="49.69169" lon="4.781">
        <ele>193</ele>
        <time>2011-01-19T10:13:36Z</time>
      </trkpt>
      <trkpt lat="49.69169" lon="4.781">
        <ele>193.14</ele>
        <time>2011-01-19T10:13:38Z</time>
      </trkpt>
      <trkpt lat="49.69169" lon="4.781">
        <ele>193.3</ele>
        <time>2011-01-19T10:13:40Z</time>
      </trkpt>
      <trkpt lat="49.69169" lon="4.781">
        <ele>193.38</ele>
        <time>2011-01-19T10:13:41Z</time>
      </trkpt>
      <trkpt lat="49.69169" lon="4.781">
        <ele>193.46</ele>
        <time>2011-01-19T10:13:42Z</time>
      </trkpt>
      <trkpt lat="49.69169" lon="4.781">
        <ele>193.68</ele>
        <time>2011-01-19T10:13:43Z</time>
      </trkpt>
      <trkpt lat="49.69169" lon="4.781">
        <ele>193.81</ele>
        <time>2011-01-19T10:13:45Z</time>
      </trkpt>
      <trkpt lat="49.69169" lon="4.781">
        <ele>193.81</ele>
        <time>2011-01-19T10:13:47Z</time>
      </trkpt>
      <trkpt lat="49.69169" lon="4.781">
        <ele>193.79</ele>
        <time>2011-01-19T10:13:48Z</time>
      </trkpt>
      <trkpt lat="49.69169" lon="4.781">
        <ele>193.75</ele>
        <time>2011-01-19T10:13:49Z</time>
      </trkpt>
      <trkpt lat="49.69169" lon="4.781">
        <ele>193.71</ele>
        <time>2011-01-19T10:13:50Z</time>
      </trkpt>
      <trkpt lat="49.6917" lon="4.781">
        <ele>193.54</ele>
        <time>2011-01-19T10:13:52Z</time>
      </trkpt>
      <trkpt lat="49.6917" lon="4.781">
        <ele>193.474</ele>
        <time>2011-01-19T10:13:53Z</time>
      </trkpt>
      <trkpt lat="49.6917" lon="4.781">
        <ele>193.358</ele>
        <time>2011-01-19T10:13:55Z</time>
      </trkpt>
      <trkpt lat="49.6917" lon="4.781">
        <ele>193.3</ele>
        <time>2011-01-19T10:13:57Z</time>
      </trkpt>
      <trkpt lat="49.6917" lon="4.781">
        <ele>193.3</ele>
        <time>2011-01-19T10:13:58Z</time>
      </trkpt>
      <trkpt lat="49.6917" lon="4.781">
        <ele>193.3</ele>
        <time>2011-01-19T10:14:00Z</time>
      </trkpt>
      <trkpt lat="49.6917" lon="4.781">
        <ele>193.3</ele>
        <time>2011-01-19T10:14:02Z</time>
      </trkpt>
      <trkpt lat="49.6917" lon="4.781">
        <ele>193.3</ele>
        <time>2011-01-19T10:14:04Z</time>
      </trkpt>
      <trkpt lat="49.6917" lon="4.781">
        <ele>193.3</ele>
        <time>2011-01-19T10:14:05Z</time>
      </trkpt>
      <trkpt lat="49.6917" lon="4.781">
        <ele>193.3</ele>
        <time>2011-01-19T10:14:06Z</time>
      </trkpt>
      <trkpt lat="49.6917" lon="4.781">
        <ele>193.3</ele>
        <time>2011-01-19T10:14:07Z</time>
      </trkpt>
      <trkpt lat="49.6917" lon="4.781">
        <ele>193.3</ele>
        <time>2011-01-19T10:14:09Z</time>
      </trkpt>
      <trkpt lat="49.6917" lon="4.781">
        <ele>193.3</ele>
        <time>2011-01-19T10:14:10Z</time>
      </trkpt>
      <trkpt lat="49.69169" lon="4.781">
        <ele>193.3</ele>
        <time>2011-01-19T10:14:11Z</time>
      </trkpt>
      <trkpt lat="49.69169" lon="4.781">
        <ele>193.3</ele>
        <time>2011-01-19T10:14:12Z</time>
      </trkpt>
      <trkpt lat="49.69169" lon="4.781">
        <ele>193.3</ele>
        <time>2011-01-19T10:14:14Z</time>
      </trkpt>
      <trkpt lat="49.69169" lon="4.781">
        <ele>193.3</ele>
        <time>2011-01-19T10:14:15Z</time>
      </trkpt>
      <trkpt lat="49.69169" lon="4.781">
        <ele>193.3</ele>
        <time>2011-01-19T10:14:17Z</time>
      </trkpt>
      <trkpt lat="49.69169" lon="4.781">
        <ele>193.3</ele>
        <time>2011-01-19T10:14:18Z</time>
      </trkpt>
      <trkpt lat="49.69169" lon="4.781">
        <ele>193.3</ele>
        <time>2011-01-19T10:14:19Z</time>
      </trkpt>
      <trkpt lat="49.69169" lon="4.781">
        <ele>193.3</ele>
        <time>2011-01-19T10:14:21Z</time>
      </trkpt>
      <trkpt lat="49.69169" lon="4.781">
        <ele>193.3</ele>
        <time>2011-01-19T10:14:23Z</time>
      </trkpt>
      <trkpt lat="49.69169" lon="4.781">
        <ele>193.3</ele>
        <time>2011-01-19T10:14:25Z</time>
      </trkpt>
      <trkpt lat="49.69169" lon="4.781">
        <ele>193.3</ele>
        <time>2011-01-19T10:14:27Z</time>
      </trkpt>
      <trkpt lat="49.69169" lon="4.781">
        <ele>193.3</ele>
        <time>2011-01-19T10:14:28Z</time>
      </trkpt>
      <trkpt lat="49.69169" lon="4.781">
        <ele>193.3</ele>
        <time>2011-01-19T10:14:30Z</time>
      </trkpt>
      <trkpt lat="49.69169" lon="4.781">
        <ele>193.3</ele>
        <time>2011-01-19T10:14:32Z</time>
      </trkpt>
      <trkpt lat="49.69169" lon="4.781">
        <ele>193.3</ele>
        <time>2011-01-19T10:14:34Z</time>
      </trkpt>
      <trkpt lat="49.69164" lon="4.781">
        <ele>193.3</ele>
        <time>2011-01-19T10:14:36Z</time>
      </trkpt>
      <trkpt lat="49.69154" lon="4.78102">
        <ele>193.092</ele>
        <time>2011-01-19T10:14:38Z</time>
      </trkpt>
      <trkpt lat="49.69152" lon="4.78103">
        <ele>193.069</ele>
        <time>2011-01-19T10:14:39Z</time>
      </trkpt>
      <trkpt lat="49.69148" lon="4.78106">
        <ele>192.689</ele>
        <time>2011-01-19T10:14:41Z</time>
      </trkpt>
      <trkpt lat="49.69143" lon="4.78109">
        <ele>192.425</ele>
        <time>2011-01-19T10:14:43Z</time>
      </trkpt>
      <trkpt lat="49.69138" lon="4.78112">
        <ele>192.167</ele>
        <time>2011-01-19T10:14:44Z</time>
      </trkpt>
      <trkpt lat="49.69137" lon="4.78113">
        <ele>192.03</ele>
        <time>2011-01-19T10:14:45Z</time>
      </trkpt>
      <trkpt lat="49.69133" lon="4.78115">
        <ele>191.65</ele>
        <time>2011-01-19T10:14:47Z</time>
      </trkpt>
      <trkpt lat="49.69129" lon="4.78118">
        <ele>191.45</ele>
        <time>2011-01-19T10:14:48Z</time>
      </trkpt>
      <trkpt lat="49.69127" lon="4.78119">
        <ele>191.47</ele>
        <time>2011-01-19T10:14:49Z</time>
      </trkpt>
      <trkpt lat="49.69123" lon="4.78122">
        <ele>191.56</ele>
        <time>2011-01-19T10:14:51Z</time>
      </trkpt>
      <trkpt lat="49.69122" lon="4.78123">
        <ele>191.59</ele>
        <time>2011-01-19T10:14:52Z</time>
      </trkpt>
      <trkpt lat="49.6912" lon="4.78126">
        <ele>191.54</ele>
        <time>2011-01-19T10:14:53Z</time>
      </trkpt>
      <trkpt lat="49.69119" lon="4.78128">
        <ele>191.61</ele>
        <time>2011-01-19T10:14:55Z</time>
      </trkpt>
      <trkpt lat="49.69117" lon="4.78131">
        <ele>191.64</ele>
        <time>2011-01-19T10:14:57Z</time>
      </trkpt>
      <trkpt lat="49.69113" lon="4.78134">
        <ele>191.584</ele>
        <time>2011-01-19T10:14:59Z</time>
      </trkpt>
      <trkpt lat="49.69107" lon="4.78137">
        <ele>191.861</ele>
        <time>2011-01-19T10:15:01Z</time>
      </trkpt>
      <trkpt lat="49.69103" lon="4.78142">
        <ele>192.947</ele>
        <time>2011-01-19T10:15:03Z</time>
      </trkpt>
      <trkpt lat="49.69101" lon="4.78145">
        <ele>194.297</ele>
        <time>2011-01-19T10:15:05Z</time>
      </trkpt>
      <trkpt lat="49.691" lon="4.78145">
        <ele>195.674</ele>
        <time>2011-01-19T10:15:07Z</time>
      </trkpt>
      <trkpt lat="49.69098" lon="4.78145">
        <ele>196.438</ele>
        <time>2011-01-19T10:15:08Z</time>
      </trkpt>
      <trkpt lat="49.69095" lon="4.78145">
        <ele>197.044</ele>
        <time>2011-01-19T10:15:10Z</time>
      </trkpt>
      <trkpt lat="49.69093" lon="4.78146">
        <ele>197.244</ele>
        <time>2011-01-19T10:15:11Z</time>
      </trkpt>
      <trkpt lat="49.69092" lon="4.78147">
        <ele>197.356</ele>
        <time>2011-01-19T10:15:12Z</time>
      </trkpt>
      <trkpt lat="49.6909" lon="4.78148">
        <ele>197.328</ele>
        <time>2011-01-19T10:15:13Z</time>
      </trkpt>
      <trkpt lat="49.69088" lon="4.78149">
        <ele>197.286</ele>
        <time>2011-01-19T10:15:14Z</time>
      </trkpt>
      <trkpt lat="49.69084" lon="4.78151">
        <ele>197.513</ele>
        <time>2011-01-19T10:15:15Z</time>
      </trkpt>
      <trkpt lat="49.69082" lon="4.78151">
        <ele>197.704</ele>
        <time>2011-01-19T10:15:16Z</time>
      </trkpt>
      <trkpt lat="49.6908" lon="4.78152">
        <ele>198.095</ele>
        <time>2011-01-19T10:15:18Z</time>
      </trkpt>
      <trkpt lat="49.69078" lon="4.78153">
        <ele>198.564</ele>
        <time>2011-01-19T10:15:19Z</time>
      </trkpt>
      <trkpt lat="49.69075" lon="4.78155">
        <ele>199.391</ele>
        <time>2011-01-19T10:15:21Z</time>
      </trkpt>
      <trkpt lat="49.69073" lon="4.7816">
        <ele>200.654</ele>
        <time>2011-01-19T10:15:23Z</time>
      </trkpt>
      <trkpt lat="49.69072" lon="4.78162">
        <ele>201.103</ele>
        <time>2011-01-19T10:15:24Z</time>
      </trkpt>
      <trkpt lat="49.69072" lon="4.78163">
        <ele>201.669</ele>
        <time>2011-01-19T10:15:25Z</time>
      </trkpt>
      <trkpt lat="49.69071" lon="4.78164">
        <ele>202.266</ele>
        <time>2011-01-19T10:15:26Z</time>
      </trkpt>
      <trkpt lat="49.69069" lon="4.78163">
        <ele>203.39</ele>
        <time>2011-01-19T10:15:28Z</time>
      </trkpt>
      <trkpt lat="49.69067" lon="4.78162">
        <ele>203.925</ele>
        <time>2011-01-19T10:15:30Z</time>
      </trkpt>
      <trkpt lat="49.69065" lon="4.78162">
        <ele>204.257</ele>
        <time>2011-01-19T10:15:31Z</time>
      </trkpt>
      <trkpt lat="49.69063" lon="4.78162">
        <ele>204.4</ele>
        <time>2011-01-19T10:15:32Z</time>
      </trkpt>
      <trkpt lat="49.69058" lon="4.7816">
        <ele>204.9</ele>
        <time>2011-01-19T10:15:34Z</time>
      </trkpt>
      <trkpt lat="49.69055" lon="4.78158">
        <ele>205.2</ele>
        <time>2011-01-19T10:15:36Z</time>
      </trkpt>
      <trkpt lat="49.69052" lon="4.78158">
        <ele>205.2</ele>
        <time>2011-01-19T10:15:38Z</time>
      </trkpt>
      <trkpt lat="49.69051" lon="4.78158">
        <ele>205.2</ele>
        <time>2011-01-19T10:15:39Z</time>
      </trkpt>
      <trkpt lat="49.69047" lon="4.7816">
        <ele>203</ele>
        <time>2011-01-19T10:15:41Z</time>
      </trkpt>
      <trkpt lat="49.69045" lon="4.78161">
        <ele>202.8</ele>
        <time>2011-01-19T10:15:42Z</time>
      </trkpt>
      <trkpt lat="49.69043" lon="4.78162">
        <ele>202.8</ele>
        <time>2011-01-19T10:15:44Z</time>
      </trkpt>
      <trkpt lat="49.69042" lon="4.78163">
        <ele>202.92</ele>
        <time>2011-01-19T10:15:45Z</time>
      </trkpt>
      <trkpt lat="49.6904" lon="4.78163">
        <ele>203.05</ele>
        <time>2011-01-19T10:15:46Z</time>
      </trkpt>
      <trkpt lat="49.69036" lon="4.78162">
        <ele>203.25</ele>
        <time>2011-01-19T10:15:48Z</time>
      </trkpt>
      <trkpt lat="49.69033" lon="4.78161">
        <ele>203.25</ele>
        <time>2011-01-19T10:15:50Z</time>
      </trkpt>
      <trkpt lat="49.6903" lon="4.78161">
        <ele>203.49</ele>
        <time>2011-01-19T10:15:52Z</time>
      </trkpt>
      <trkpt lat="49.69027" lon="4.78162">
        <ele>204.033</ele>
        <time>2011-01-19T10:15:54Z</time>
      </trkpt>
      <trkpt lat="49.69024" lon="4.78162">
        <ele>204.431</ele>
        <time>2011-01-19T10:15:56Z</time>
      </trkpt>
      <trkpt lat="49.69022" lon="4.78162">
        <ele>204.773</ele>
        <time>2011-01-19T10:15:57Z</time>
      </trkpt>
      <trkpt lat="49.69021" lon="4.78162">
        <ele>204.693</ele>
        <time>2011-01-19T10:15:58Z</time>
      </trkpt>
      <trkpt lat="49.69018" lon="4.78163">
        <ele>204.455</ele>
        <time>2011-01-19T10:16:00Z</time>
      </trkpt>
      <trkpt lat="49.69015" lon="4.78162">
        <ele>204.219</ele>
        <time>2011-01-19T10:16:02Z</time>
      </trkpt>
      <trkpt lat="49.69011" lon="4.78161">
        <ele>204.131</ele>
        <time>2011-01-19T10:16:04Z</time>
      </trkpt>
      <trkpt lat="49.69008" lon="4.78161">
        <ele>203.912</ele>
        <time>2011-01-19T10:16:06Z</time>
      </trkpt>
      <trkpt lat="49.69003" lon="4.78162">
        <ele>203.448</ele>
        <time>2011-01-19T10:16:07Z</time>
      </trkpt>
      <trkpt lat="49.69" lon="4.78162">
        <ele>203.253</ele>
        <time>2011-01-19T10:16:08Z</time>
      </trkpt>
      <trkpt lat="49.68998" lon="4.78162">
        <ele>203.086</ele>
        <time>2011-01-19T10:16:09Z</time>
      </trkpt>
      <trkpt lat="49.68993" lon="4.78162">
        <ele>202.674</ele>
        <time>2011-01-19T10:16:11Z</time>
      </trkpt>
      <trkpt lat="49.6899" lon="4.78162">
        <ele>202.39</ele>
        <time>2011-01-19T10:16:12Z</time>
      </trkpt>
      <trkpt lat="49.68988" lon="4.78163">
        <ele>202.284</ele>
        <time>2011-01-19T10:16:13Z</time>
      </trkpt>
      <trkpt lat="49.68984" lon="4.78163">
        <ele>201.961</ele>
        <time>2011-01-19T10:16:15Z</time>
      </trkpt>
      <trkpt lat="49.6898" lon="4.78163">
        <ele>201.508</ele>
        <time>2011-01-19T10:16:17Z</time>
      </trkpt>
      <trkpt lat="49.68974" lon="4.78161">
        <ele>201.051</ele>
        <time>2011-01-19T10:16:19Z</time>
      </trkpt>
      <trkpt lat="49.68973" lon="4.78161">
        <ele>200.97</ele>
        <time>2011-01-19T10:16:20Z</time>
      </trkpt>
      <trkpt lat="49.68969" lon="4.78159">
        <ele>200.971</ele>
        <time>2011-01-19T10:16:22Z</time>
      </trkpt>
      <trkpt lat="49.68967" lon="4.78157">
        <ele>201.167</ele>
        <time>2011-01-19T10:16:24Z</time>
      </trkpt>
      <trkpt lat="49.68966" lon="4.78157">
        <ele>201.328</ele>
        <time>2011-01-19T10:16:25Z</time>
      </trkpt>
      <trkpt lat="49.68964" lon="4.78156">
        <ele>201.437</ele>
        <time>2011-01-19T10:16:27Z</time>
      </trkpt>
      <trkpt lat="49.68962" lon="4.78156">
        <ele>201.371</ele>
        <time>2011-01-19T10:16:28Z</time>
      </trkpt>
      <trkpt lat="49.68959" lon="4.78156">
        <ele>200.958</ele>
        <time>2011-01-19T10:16:30Z</time>
      </trkpt>
      <trkpt lat="49.68957" lon="4.78156">
        <ele>200.704</ele>
        <time>2011-01-19T10:16:31Z</time>
      </trkpt>
      <trkpt lat="49.68953" lon="4.78157">
        <ele>200.234</ele>
        <time>2011-01-19T10:16:33Z</time>
      </trkpt>
      <trkpt lat="49.6895" lon="4.78157">
        <ele>199.97</ele>
        <time>2011-01-19T10:16:34Z</time>
      </trkpt>
      <trkpt lat="49.68948" lon="4.78158">
        <ele>199.64</ele>
        <time>2011-01-19T10:16:35Z</time>
      </trkpt>
      <trkpt lat="49.68943" lon="4.78161">
        <ele>198.75</ele>
        <time>2011-01-19T10:16:37Z</time>
      </trkpt>
      <trkpt lat="49.68939" lon="4.78162">
        <ele>198.148</ele>
        <time>2011-01-19T10:16:39Z</time>
      </trkpt>
      <trkpt lat="49.68937" lon="4.78162">
        <ele>197.9</ele>
        <time>2011-01-19T10:16:40Z</time>
      </trkpt>
      <trkpt lat="49.68935" lon="4.78161">
        <ele>197.235</ele>
        <time>2011-01-19T10:16:42Z</time>
      </trkpt>
      <trkpt lat="49.68933" lon="4.7816">
        <ele>196.624</ele>
        <time>2011-01-19T10:16:44Z</time>
      </trkpt>
      <trkpt lat="49.6893" lon="4.78159">
        <ele>196.621</ele>
        <time>2011-01-19T10:16:45Z</time>
      </trkpt>
      <trkpt lat="49.68927" lon="4.78157">
        <ele>197.452</ele>
        <time>2011-01-19T10:16:47Z</time>
      </trkpt>
      <trkpt lat="49.68926" lon="4.78156">
        <ele>197.875</ele>
        <time>2011-01-19T10:16:48Z</time>
      </trkpt>
      <trkpt lat="49.68923" lon="4.78155">
        <ele>198.556</ele>
        <time>2011-01-19T10:16:50Z</time>
      </trkpt>
      <trkpt lat="49.68921" lon="4.78155">
        <ele>199.022</ele>
        <time>2011-01-19T10:16:52Z</time>
      </trkpt>
      <trkpt lat="49.68918" lon="4.78155">
        <ele>199.609</ele>
        <time>2011-01-19T10:16:54Z</time>
      </trkpt>
      <trkpt lat="49.68914" lon="4.78155">
        <ele>200.118</ele>
        <time>2011-01-19T10:16:56Z</time>
      </trkpt>
      <trkpt lat="49.6891" lon="4.78155">
        <ele>200.2</ele>
        <time>2011-01-19T10:16:58Z</time>
      </trkpt>
      <trkpt lat="49.68908" lon="4.78154">
        <ele>200.07</ele>
        <time>2011-01-19T10:17:00Z</time>
      </trkpt>
      <trkpt lat="49.68907" lon="4.78154">
        <ele>200.024</ele>
        <time>2011-01-19T10:17:02Z</time>
      </trkpt>
      <trkpt lat="49.68906" lon="4.78153">
        <ele>199.986</ele>
        <time>2011-01-19T10:17:03Z</time>
      </trkpt>
      <trkpt lat="49.68903" lon="4.78153">
        <ele>200.152</ele>
        <time>2011-01-19T10:17:05Z</time>
      </trkpt>
      <trkpt lat="49.689" lon="4.78152">
        <ele>201.526</ele>
        <time>2011-01-19T10:17:07Z</time>
      </trkpt>
      <trkpt lat="49.68899" lon="4.78152">
        <ele>201.968</ele>
        <time>2011-01-19T10:17:08Z</time>
      </trkpt>
      <trkpt lat="49.68896" lon="4.7815">
        <ele>202.994</ele>
        <time>2011-01-19T10:17:10Z</time>
      </trkpt>
      <trkpt lat="49.68894" lon="4.7815">
        <ele>203.803</ele>
        <time>2011-01-19T10:17:12Z</time>
      </trkpt>
      <trkpt lat="49.68892" lon="4.78149">
        <ele>204.587</ele>
        <time>2011-01-19T10:17:14Z</time>
      </trkpt>
      <trkpt lat="49.68889" lon="4.78149">
        <ele>205.78</ele>
        <time>2011-01-19T10:17:16Z</time>
      </trkpt>
      <trkpt lat="49.68887" lon="4.78149">
        <ele>206.39</ele>
        <time>2011-01-19T10:17:17Z</time>
      </trkpt>
      <trkpt lat="49.68884" lon="4.7815">
        <ele>207.55</ele>
        <time>2011-01-19T10:17:18Z</time>
      </trkpt>
      <trkpt lat="49.68881" lon="4.7815">
        <ele>208.41</ele>
        <time>2011-01-19T10:17:20Z</time>
      </trkpt>
      <trkpt lat="49.68879" lon="4.7815">
        <ele>208.65</ele>
        <time>2011-01-19T10:17:21Z</time>
      </trkpt>
      <trkpt lat="49.68876" lon="4.7815">
        <ele>208.925</ele>
        <time>2011-01-19T10:17:23Z</time>
      </trkpt>
      <trkpt lat="49.68872" lon="4.7815">
        <ele>208.965</ele>
        <time>2011-01-19T10:17:25Z</time>
      </trkpt>
      <trkpt lat="49.68869" lon="4.7815">
        <ele>209.002</ele>
        <time>2011-01-19T10:17:27Z</time>
      </trkpt>
      <trkpt lat="49.68867" lon="4.78151">
        <ele>209.065</ele>
        <time>2011-01-19T10:17:29Z</time>
      </trkpt>
      <trkpt lat="49.68866" lon="4.78151">
        <ele>209.08</ele>
        <time>2011-01-19T10:17:30Z</time>
      </trkpt>
      <trkpt lat="49.68864" lon="4.78151">
        <ele>209.058</ele>
        <time>2011-01-19T10:17:31Z</time>
      </trkpt>
      <trkpt lat="49.68862" lon="4.78152">
        <ele>208.98</ele>
        <time>2011-01-19T10:17:33Z</time>
      </trkpt>
      <trkpt lat="49.68858" lon="4.78153">
        <ele>208.692</ele>
        <time>2011-01-19T10:17:35Z</time>
      </trkpt>
      <trkpt lat="49.68856" lon="4.78153">
        <ele>208.529</ele>
        <time>2011-01-19T10:17:36Z</time>
      </trkpt>
      <trkpt lat="49.68853" lon="4.78153">
        <ele>208.368</ele>
        <time>2011-01-19T10:17:38Z</time>
      </trkpt>
      <trkpt lat="49.68849" lon="4.78154">
        <ele>208.513</ele>
        <time>2011-01-19T10:17:40Z</time>
      </trkpt>
      <trkpt lat="49.68847" lon="4.78154">
        <ele>208.614</ele>
        <time>2011-01-19T10:17:41Z</time>
      </trkpt>
      <trkpt lat="49.68846" lon="4.78154">
        <ele>208.625</ele>
        <time>2011-01-19T10:17:42Z</time>
      </trkpt>
      <trkpt lat="49.68844" lon="4.78156">
        <ele>208.686</ele>
        <time>2011-01-19T10:17:44Z</time>
      </trkpt>
      <trkpt lat="49.68842" lon="4.78157">
        <ele>208.817</ele>
        <time>2011-01-19T10:17:45Z</time>
      </trkpt>
      <trkpt lat="49.6884" lon="4.78158">
        <ele>209.223</ele>
        <time>2011-01-19T10:17:46Z</time>
      </trkpt>
      <trkpt lat="49.68839" lon="4.78159">
        <ele>209.737</ele>
        <time>2011-01-19T10:17:47Z</time>
      </trkpt>
      <trkpt lat="49.68835" lon="4.78159">
        <ele>210.63</ele>
        <time>2011-01-19T10:17:49Z</time>
      </trkpt>
      <trkpt lat="49.68834" lon="4.78159">
        <ele>211.196</ele>
        <time>2011-01-19T10:17:50Z</time>
      </trkpt>
      <trkpt lat="49.68829" lon="4.78162">
        <ele>211.743</ele>
        <time>2011-01-19T10:17:52Z</time>
      </trkpt>
      <trkpt lat="49.68825" lon="4.78165">
        <ele>211.734</ele>
        <time>2011-01-19T10:17:54Z</time>
      </trkpt>
      <trkpt lat="49.68821" lon="4.78166">
        <ele>211.837</ele>
        <time>2011-01-19T10:17:55Z</time>
      </trkpt>
      <trkpt lat="49.68819" lon="4.78166">
        <ele>211.863</ele>
        <time>2011-01-19T10:17:56Z</time>
      </trkpt>
      <trkpt lat="49.68816" lon="4.78165">
        <ele>211.713</ele>
        <time>2011-01-19T10:17:58Z</time>
      </trkpt>
      <trkpt lat="49.68816" lon="4.78165">
        <ele>211.222</ele>
        <time>2011-01-19T10:18:00Z</time>
      </trkpt>
      <trkpt lat="49.68816" lon="4.78166">
        <ele>210.994</ele>
        <time>2011-01-19T10:18:01Z</time>
      </trkpt>
      <trkpt lat="49.68815" lon="4.78167">
        <ele>210.808</ele>
        <time>2011-01-19T10:18:02Z</time>
      </trkpt>
      <trkpt lat="49.68813" lon="4.78171">
        <ele>210.335</ele>
        <time>2011-01-19T10:18:04Z</time>
      </trkpt>
      <trkpt lat="49.68806" lon="4.78179">
        <ele>210.2</ele>
        <time>2011-01-19T10:18:06Z</time>
      </trkpt>
      <trkpt lat="49.68802" lon="4.78182">
        <ele>210.255</ele>
        <time>2011-01-19T10:18:07Z</time>
      </trkpt>
      <trkpt lat="49.68799" lon="4.78185">
        <ele>210.429</ele>
        <time>2011-01-19T10:18:08Z</time>
      </trkpt>
      <trkpt lat="49.68794" lon="4.78186">
        <ele>211.109</ele>
        <time>2011-01-19T10:18:10Z</time>
      </trkpt>
      <trkpt lat="49.68794" lon="4.78186">
        <ele>211.615</ele>
        <time>2011-01-19T10:18:11Z</time>
      </trkpt>
      <trkpt lat="49.68793" lon="4.78188">
        <ele>212.306</ele>
        <time>2011-01-19T10:18:13Z</time>
      </trkpt>
      <trkpt lat="49.68793" lon="4.78191">
        <ele>212.776</ele>
        <time>2011-01-19T10:18:15Z</time>
      </trkpt>
      <trkpt lat="49.68794" lon="4.78196">
        <ele>213.248</ele>
        <time>2011-01-19T10:18:17Z</time>
      </trkpt>
      <trkpt lat="49.68793" lon="4.78198">
        <ele>213.635</ele>
        <time>2011-01-19T10:18:18Z</time>
      </trkpt>
      <trkpt lat="49.68793" lon="4.782">
        <ele>214.023</ele>
        <time>2011-01-19T10:18:19Z</time>
      </trkpt>
      <trkpt lat="49.6879" lon="4.78202">
        <ele>214.817</ele>
        <time>2011-01-19T10:18:21Z</time>
      </trkpt>
      <trkpt lat="49.68786" lon="4.78202">
        <ele>215.587</ele>
        <time>2011-01-19T10:18:23Z</time>
      </trkpt>
      <trkpt lat="49.68784" lon="4.78203">
        <ele>215.971</ele>
        <time>2011-01-19T10:18:24Z</time>
      </trkpt>
      <trkpt lat="49.6878" lon="4.78205">
        <ele>216.846</ele>
        <time>2011-01-19T10:18:26Z</time>
      </trkpt>
      <trkpt lat="49.68778" lon="4.78207">
        <ele>217.138</ele>
        <time>2011-01-19T10:18:27Z</time>
      </trkpt>
      <trkpt lat="49.68774" lon="4.78209">
        <ele>217.717</ele>
        <time>2011-01-19T10:18:29Z</time>
      </trkpt>
      <trkpt lat="49.68773" lon="4.7821">
        <ele>217.97</ele>
        <time>2011-01-19T10:18:31Z</time>
      </trkpt>
      <trkpt lat="49.68773" lon="4.78211">
        <ele>217.84</ele>
        <time>2011-01-19T10:18:33Z</time>
      </trkpt>
      <trkpt lat="49.68771" lon="4.78213">
        <ele>217.953</ele>
        <time>2011-01-19T10:18:35Z</time>
      </trkpt>
      <trkpt lat="49.6877" lon="4.78214">
        <ele>218.069</ele>
        <time>2011-01-19T10:18:36Z</time>
      </trkpt>
      <trkpt lat="49.68769" lon="4.78217">
        <ele>218.173</ele>
        <time>2011-01-19T10:18:37Z</time>
      </trkpt>
      <trkpt lat="49.68769" lon="4.78222">
        <ele>218.298</ele>
        <time>2011-01-19T10:18:39Z</time>
      </trkpt>
      <trkpt lat="49.68768" lon="4.78223">
        <ele>218.298</ele>
        <time>2011-01-19T10:18:40Z</time>
      </trkpt>
      <trkpt lat="49.68767" lon="4.78224">
        <ele>218.321</ele>
        <time>2011-01-19T10:18:42Z</time>
      </trkpt>
      <trkpt lat="49.68765" lon="4.78223">
        <ele>218.37</ele>
        <time>2011-01-19T10:18:43Z</time>
      </trkpt>
      <trkpt lat="49.68762" lon="4.78221">
        <ele>218.326</ele>
        <time>2011-01-19T10:18:45Z</time>
      </trkpt>
      <trkpt lat="49.68762" lon="4.78221">
        <ele>218.215</ele>
        <time>2011-01-19T10:18:46Z</time>
      </trkpt>
      <trkpt lat="49.6876" lon="4.78221">
        <ele>217.929</ele>
        <time>2011-01-19T10:18:48Z</time>
      </trkpt>
      <trkpt lat="49.68754" lon="4.78222">
        <ele>217.75</ele>
        <time>2011-01-19T10:18:50Z</time>
      </trkpt>
      <trkpt lat="49.6875" lon="4.78223">
        <ele>217.7</ele>
        <time>2011-01-19T10:18:51Z</time>
      </trkpt>
      <trkpt lat="49.68745" lon="4.78225">
        <ele>219.8</ele>
        <time>2011-01-19T10:18:53Z</time>
      </trkpt>
      <trkpt lat="49.68746" lon="4.78227">
        <ele>220.371</ele>
        <time>2011-01-19T10:18:54Z</time>
      </trkpt>
      <trkpt lat="49.68747" lon="4.78229">
        <ele>220.731</ele>
        <time>2011-01-19T10:18:56Z</time>
      </trkpt>
      <trkpt lat="49.68747" lon="4.78228">
        <ele>220.967</ele>
        <time>2011-01-19T10:18:58Z</time>
      </trkpt>
      <trkpt lat="49.68747" lon="4.78228">
        <ele>221.116</ele>
        <time>2011-01-19T10:19:00Z</time>
      </trkpt>
      <trkpt lat="49.68746" lon="4.78228">
        <ele>221.4</ele>
        <time>2011-01-19T10:19:02Z</time>
      </trkpt>
      <trkpt lat="49.68745" lon="4.78228">
        <ele>221.529</ele>
        <time>2011-01-19T10:19:03Z</time>
      </trkpt>
      <trkpt lat="49.68745" lon="4.78228">
        <ele>221.513</ele>
        <time>2011-01-19T10:19:05Z</time>
      </trkpt>
      <trkpt lat="49.68745" lon="4.78228">
        <ele>221.465</ele>
        <time>2011-01-19T10:19:06Z</time>
      </trkpt>
      <trkpt lat="49.68745" lon="4.78229">
        <ele>221.386</ele>
        <time>2011-01-19T10:19:08Z</time>
      </trkpt>
      <trkpt lat="49.68745" lon="4.78229">
        <ele>221.252</ele>
        <time>2011-01-19T10:19:10Z</time>
      </trkpt>
      <trkpt lat="49.68745" lon="4.78229">
        <ele>221.18</ele>
        <time>2011-01-19T10:19:12Z</time>
      </trkpt>
      <trkpt lat="49.68745" lon="4.78229">
        <ele>221.2</ele>
        <time>2011-01-19T10:19:14Z</time>
      </trkpt>
      <trkpt lat="49.68745" lon="4.78229">
        <ele>221.2</ele>
        <time>2011-01-19T10:19:15Z</time>
      </trkpt>
      <trkpt lat="49.68745" lon="4.78229">
        <ele>221.2</ele>
        <time>2011-01-19T10:19:17Z</time>
      </trkpt>
      <trkpt lat="49.68745" lon="4.78229">
        <ele>221.2</ele>
        <time>2011-01-19T10:19:19Z</time>
      </trkpt>
      <trkpt lat="49.68744" lon="4.78228">
        <ele>221.457</ele>
        <time>2011-01-19T10:19:21Z</time>
      </trkpt>
      <trkpt lat="49.68744" lon="4.78228">
        <ele>221.477</ele>
        <time>2011-01-19T10:19:22Z</time>
      </trkpt>
      <trkpt lat="49.68744" lon="4.78228">
        <ele>221.527</ele>
        <time>2011-01-19T10:19:24Z</time>
      </trkpt>
      <trkpt lat="49.68744" lon="4.78228">
        <ele>221.56</ele>
        <time>2011-01-19T10:19:25Z</time>
      </trkpt>
      <trkpt lat="49.68745" lon="4.78228">
        <ele>221.96</ele>
        <time>2011-01-19T10:19:27Z</time>
      </trkpt>
      <trkpt lat="49.68745" lon="4.78228">
        <ele>222.34</ele>
        <time>2011-01-19T10:19:28Z</time>
      </trkpt>
      <trkpt lat="49.68745" lon="4.78228">
        <ele>222.92</ele>
        <time>2011-01-19T10:19:30Z</time>
      </trkpt>
      <trkpt lat="49.68745" lon="4.78228">
        <ele>223.06</ele>
        <time>2011-01-19T10:19:31Z</time>
      </trkpt>
      <trkpt lat="49.68747" lon="4.78228">
        <ele>223.871</ele>
        <time>2011-01-19T10:19:33Z</time>
      </trkpt>
      <trkpt lat="49.68747" lon="4.78228">
        <ele>224.275</ele>
        <time>2011-01-19T10:19:34Z</time>
      </trkpt>
      <trkpt lat="49.68749" lon="4.78228">
        <ele>224.886</ele>
        <time>2011-01-19T10:19:36Z</time>
      </trkpt>
      <trkpt lat="49.68749" lon="4.78228">
        <ele>225.184</ele>
        <time>2011-01-19T10:19:37Z</time>
      </trkpt>
      <trkpt lat="49.68749" lon="4.78228">
        <ele>225.599</ele>
        <time>2011-01-19T10:19:38Z</time>
      </trkpt>
      <trkpt lat="49.68749" lon="4.78229">
        <ele>226.586</ele>
        <time>2011-01-19T10:19:40Z</time>
      </trkpt>
      <trkpt lat="49.68749" lon="4.78229">
        <ele>227.39</ele>
        <time>2011-01-19T10:19:42Z</time>
      </trkpt>
      <trkpt lat="49.68749" lon="4.78229">
        <ele>227.573</ele>
        <time>2011-01-19T10:19:43Z</time>
      </trkpt>
      <trkpt lat="49.68749" lon="4.78229">
        <ele>227.75</ele>
        <time>2011-01-19T10:19:45Z</time>
      </trkpt>
      <trkpt lat="49.68749" lon="4.78229">
        <ele>227.91</ele>
        <time>2011-01-19T10:19:47Z</time>
      </trkpt>
      <trkpt lat="49.68749" lon="4.78229">
        <ele>228.02</ele>
        <time>2011-01-19T10:19:49Z</time>
      </trkpt>
      <trkpt lat="49.68749" lon="4.78229">
        <ele>228.01</ele>
        <time>2011-01-19T10:19:50Z</time>
      </trkpt>
      <trkpt lat="49.68749" lon="4.78229">
        <ele>228</ele>
        <time>2011-01-19T10:19:52Z</time>
      </trkpt>
      <trkpt lat="49.68749" lon="4.78229">
        <ele>228</ele>
        <time>2011-01-19T10:19:54Z</time>
      </trkpt>
      <trkpt lat="49.68749" lon="4.78229">
        <ele>228</ele>
        <time>2011-01-19T10:19:55Z</time>
      </trkpt>
      <trkpt lat="49.68749" lon="4.78229">
        <ele>228</ele>
        <time>2011-01-19T10:19:57Z</time>
      </trkpt>
      <trkpt lat="49.68749" lon="4.78229">
        <ele>228</ele>
        <time>2011-01-19T10:19:59Z</time>
      </trkpt>
      <trkpt lat="49.68749" lon="4.78229">
        <ele>228</ele>
        <time>2011-01-19T10:20:01Z</time>
      </trkpt>
      <trkpt lat="49.68749" lon="4.78229">
        <ele>228</ele>
        <time>2011-01-19T10:20:02Z</time>
      </trkpt>
      <trkpt lat="49.68749" lon="4.78229">
        <ele>228</ele>
        <time>2011-01-19T10:20:04Z</time>
      </trkpt>
      <trkpt lat="49.68749" lon="4.78229">
        <ele>228</ele>
        <time>2011-01-19T10:20:06Z</time>
      </trkpt>
      <trkpt lat="49.68749" lon="4.78229">
        <ele>228</ele>
        <time>2011-01-19T10:20:08Z</time>
      </trkpt>
      <trkpt lat="49.68749" lon="4.78229">
        <ele>228</ele>
        <time>2011-01-19T10:20:10Z</time>
      </trkpt>
      <trkpt lat="49.68748" lon="4.78229">
        <ele>227.595</ele>
        <time>2011-01-19T10:20:12Z</time>
      </trkpt>
      <trkpt lat="49.68745" lon="4.78229">
        <ele>227.068</ele>
        <time>2011-01-19T10:20:14Z</time>
      </trkpt>
      <trkpt lat="49.68744" lon="4.78228">
        <ele>226.8</ele>
        <time>2011-01-19T10:20:15Z</time>
      </trkpt>
      <trkpt lat="49.68741" lon="4.78228">
        <ele>226.441</ele>
        <time>2011-01-19T10:20:17Z</time>
      </trkpt>
      <trkpt lat="49.68739" lon="4.78228">
        <ele>226.272</ele>
        <time>2011-01-19T10:20:18Z</time>
      </trkpt>
      <trkpt lat="49.68736" lon="4.78227">
        <ele>226.079</ele>
        <time>2011-01-19T10:20:20Z</time>
      </trkpt>
      <trkpt lat="49.68734" lon="4.78226">
        <ele>226.075</ele>
        <time>2011-01-19T10:20:21Z</time>
      </trkpt>
      <trkpt lat="49.68733" lon="4.78226">
        <ele>226.246</ele>
        <time>2011-01-19T10:20:22Z</time>
      </trkpt>
      <trkpt lat="49.6873" lon="4.78224">
        <ele>226.836</ele>
        <time>2011-01-19T10:20:24Z</time>
      </trkpt>
      <trkpt lat="49.68728" lon="4.78223">
        <ele>227.629</ele>
        <time>2011-01-19T10:20:26Z</time>
      </trkpt>
      <trkpt lat="49.68726" lon="4.78222">
        <ele>228.783</ele>
        <time>2011-01-19T10:20:28Z</time>
      </trkpt>
      <trkpt lat="49.68725" lon="4.78221">
        <ele>229.333</ele>
        <time>2011-01-19T10:20:29Z</time>
      </trkpt>
      <trkpt lat="49.68722" lon="4.7822">
        <ele>230.364</ele>
        <time>2011-01-19T10:20:31Z</time>
      </trkpt>
      <trkpt lat="49.6872" lon="4.7822">
        <ele>230.749</ele>
        <time>2011-01-19T10:20:32Z</time>
      </trkpt>
      <trkpt lat="49.68717" lon="4.78219">
        <ele>231.542</ele>
        <time>2011-01-19T10:20:34Z</time>
      </trkpt>
      <trkpt lat="49.68714" lon="4.78218">
        <ele>232.369</ele>
        <time>2011-01-19T10:20:36Z</time>
      </trkpt>
      <trkpt lat="49.6871" lon="4.78217">
        <ele>233.624</ele>
        <time>2011-01-19T10:20:38Z</time>
      </trkpt>
      <trkpt lat="49.68709" lon="4.78217">
        <ele>234.267</ele>
        <time>2011-01-19T10:20:39Z</time>
      </trkpt>
      <trkpt lat="49.68707" lon="4.78216">
        <ele>235.607</ele>
        <time>2011-01-19T10:20:41Z</time>
      </trkpt>
      <trkpt lat="49.68706" lon="4.78215">
        <ele>237.793</ele>
        <time>2011-01-19T10:20:43Z</time>
      </trkpt>
      <trkpt lat="49.68705" lon="4.78215">
        <ele>240.214</ele>
        <time>2011-01-19T10:20:45Z</time>
      </trkpt>
      <trkpt lat="49.68705" lon="4.78215">
        <ele>241.295</ele>
        <time>2011-01-19T10:20:46Z</time>
      </trkpt>
      <trkpt lat="49.68704" lon="4.78214">
        <ele>242.64</ele>
        <time>2011-01-19T10:20:47Z</time>
      </trkpt>
      <trkpt lat="49.68702" lon="4.78213">
        <ele>245.592</ele>
        <time>2011-01-19T10:20:49Z</time>
      </trkpt>
      <trkpt lat="49.68701" lon="4.78213">
        <ele>247.162</ele>
        <time>2011-01-19T10:20:50Z</time>
      </trkpt>
      <trkpt lat="49.68699" lon="4.78212">
        <ele>249.506</ele>
        <time>2011-01-19T10:20:52Z</time>
      </trkpt>
      <trkpt lat="49.68696" lon="4.78212">
        <ele>250.783</ele>
        <time>2011-01-19T10:20:54Z</time>
      </trkpt>
      <trkpt lat="49.68692" lon="4.78212">
        <ele>251.533</ele>
        <time>2011-01-19T10:20:56Z</time>
      </trkpt>
      <trkpt lat="49.68688" lon="4.78212">
        <ele>251.98</ele>
        <time>2011-01-19T10:20:58Z</time>
      </trkpt>
      <trkpt lat="49.68685" lon="4.78212">
        <ele>252.644</ele>
        <time>2011-01-19T10:21:00Z</time>
      </trkpt>
      <trkpt lat="49.68682" lon="4.78212">
        <ele>253.708</ele>
        <time>2011-01-19T10:21:02Z</time>
      </trkpt>
      <trkpt lat="49.6868" lon="4.78212">
        <ele>255.222</ele>
        <time>2011-01-19T10:21:04Z</time>
      </trkpt>
      <trkpt lat="49.68679" lon="4.78212">
        <ele>256.03</ele>
        <time>2011-01-19T10:21:05Z</time>
      </trkpt>
      <trkpt lat="49.68678" lon="4.78213">
        <ele>256.838</ele>
        <time>2011-01-19T10:21:06Z</time>
      </trkpt>
      <trkpt lat="49.68678" lon="4.78213">
        <ele>257.87</ele>
        <time>2011-01-19T10:21:07Z</time>
      </trkpt>
      <trkpt lat="49.68677" lon="4.78213">
        <ele>258.74</ele>
        <time>2011-01-19T10:21:08Z</time>
      </trkpt>
      <trkpt lat="49.68674" lon="4.78213">
        <ele>260.392</ele>
        <time>2011-01-19T10:21:09Z</time>
      </trkpt>
      <trkpt lat="49.68673" lon="4.78212">
        <ele>261.27</ele>
        <time>2011-01-19T10:21:10Z</time>
      </trkpt>
      <trkpt lat="49.68671" lon="4.78212">
        <ele>262.726</ele>
        <time>2011-01-19T10:21:12Z</time>
      </trkpt>
      <trkpt lat="49.68668" lon="4.78213">
        <ele>264.076</ele>
        <time>2011-01-19T10:21:13Z</time>
      </trkpt>
      <trkpt lat="49.68663" lon="4.78213">
        <ele>265.558</ele>
        <time>2011-01-19T10:21:15Z</time>
      </trkpt>
      <trkpt lat="49.6866" lon="4.78213">
        <ele>266.11</ele>
        <time>2011-01-19T10:21:17Z</time>
      </trkpt>
      <trkpt lat="49.68656" lon="4.78212">
        <ele>266.19</ele>
        <time>2011-01-19T10:21:18Z</time>
      </trkpt>
      <trkpt lat="49.68654" lon="4.78213">
        <ele>266.21</ele>
        <time>2011-01-19T10:21:19Z</time>
      </trkpt>
      <trkpt lat="49.68649" lon="4.78216">
        <ele>266.24</ele>
        <time>2011-01-19T10:21:21Z</time>
      </trkpt>
      <trkpt lat="49.68647" lon="4.78216">
        <ele>266.1</ele>
        <time>2011-01-19T10:21:22Z</time>
      </trkpt>
      <trkpt lat="49.68645" lon="4.78217">
        <ele>265.86</ele>
        <time>2011-01-19T10:21:24Z</time>
      </trkpt>
      <trkpt lat="49.68643" lon="4.78219">
        <ele>265.37</ele>
        <time>2011-01-19T10:21:25Z</time>
      </trkpt>
      <trkpt lat="49.68643" lon="4.7822">
        <ele>265.18</ele>
        <time>2011-01-19T10:21:26Z</time>
      </trkpt>
      <trkpt lat="49.68642" lon="4.78222">
        <ele>264.82</ele>
        <time>2011-01-19T10:21:28Z</time>
      </trkpt>
      <trkpt lat="49.6864" lon="4.78224">
        <ele>264.54</ele>
        <time>2011-01-19T10:21:30Z</time>
      </trkpt>
      <trkpt lat="49.68639" lon="4.78227">
        <ele>264.6</ele>
        <time>2011-01-19T10:21:31Z</time>
      </trkpt>
      <trkpt lat="49.68637" lon="4.78228">
        <ele>264.7</ele>
        <time>2011-01-19T10:21:33Z</time>
      </trkpt>
      <trkpt lat="49.68633" lon="4.78231">
        <ele>264.75</ele>
        <time>2011-01-19T10:21:35Z</time>
      </trkpt>
      <trkpt lat="49.68632" lon="4.78231">
        <ele>264.85</ele>
        <time>2011-01-19T10:21:36Z</time>
      </trkpt>
      <trkpt lat="49.68629" lon="4.78231">
        <ele>265.08</ele>
        <time>2011-01-19T10:21:38Z</time>
      </trkpt>
      <trkpt lat="49.68623" lon="4.78229">
        <ele>265.4</ele>
        <time>2011-01-19T10:21:39Z</time>
      </trkpt>
      <trkpt lat="49.68612" lon="4.78225">
        <ele>266.056</ele>
        <time>2011-01-19T10:21:41Z</time>
      </trkpt>
      <trkpt lat="49.68606" lon="4.78224">
        <ele>266.5</ele>
        <time>2011-01-19T10:21:43Z</time>
      </trkpt>
      <trkpt lat="49.68603" lon="4.78225">
        <ele>266.578</ele>
        <time>2011-01-19T10:21:44Z</time>
      </trkpt>
      <trkpt lat="49.68599" lon="4.78229">
        <ele>266.652</ele>
        <time>2011-01-19T10:21:46Z</time>
      </trkpt>
      <trkpt lat="49.68597" lon="4.78232">
        <ele>266.181</ele>
        <time>2011-01-19T10:21:47Z</time>
      </trkpt>
      <trkpt lat="49.68595" lon="4.78235">
        <ele>265.553</ele>
        <time>2011-01-19T10:21:49Z</time>
      </trkpt>
      <trkpt lat="49.68594" lon="4.78238">
        <ele>264.939</ele>
        <time>2011-01-19T10:21:51Z</time>
      </trkpt>
      <trkpt lat="49.68593" lon="4.78239">
        <ele>264.873</ele>
        <time>2011-01-19T10:21:52Z</time>
      </trkpt>
      <trkpt lat="49.6859" lon="4.78241">
        <ele>264.98</ele>
        <time>2011-01-19T10:21:54Z</time>
      </trkpt>
      <trkpt lat="49.68588" lon="4.78242">
        <ele>265.08</ele>
        <time>2011-01-19T10:21:55Z</time>
      </trkpt>
      <trkpt lat="49.68586" lon="4.78243">
        <ele>265.37</ele>
        <time>2011-01-19T10:21:56Z</time>
      </trkpt>
      <trkpt lat="49.68583" lon="4.78245">
        <ele>266.216</ele>
        <time>2011-01-19T10:21:57Z</time>
      </trkpt>
      <trkpt lat="49.68582" lon="4.78247">
        <ele>267.269</ele>
        <time>2011-01-19T10:21:59Z</time>
      </trkpt>
      <trkpt lat="49.6858" lon="4.78249">
        <ele>268.448</ele>
        <time>2011-01-19T10:22:00Z</time>
      </trkpt>
      <trkpt lat="49.68578" lon="4.7825">
        <ele>269.33</ele>
        <time>2011-01-19T10:22:02Z</time>
      </trkpt>
      <trkpt lat="49.68574" lon="4.7825">
        <ele>270.022</ele>
        <time>2011-01-19T10:22:03Z</time>
      </trkpt>
      <trkpt lat="49.68572" lon="4.78251">
        <ele>270.809</ele>
        <time>2011-01-19T10:22:05Z</time>
      </trkpt>
      <trkpt lat="49.6857" lon="4.78253">
        <ele>271.472</ele>
        <time>2011-01-19T10:22:07Z</time>
      </trkpt>
      <trkpt lat="49.68567" lon="4.78255">
        <ele>271.822</ele>
        <time>2011-01-19T10:22:09Z</time>
      </trkpt>
      <trkpt lat="49.68563" lon="4.78256">
        <ele>272.11</ele>
        <time>2011-01-19T10:22:11Z</time>
      </trkpt>
      <trkpt lat="49.68559" lon="4.78257">
        <ele>272.3</ele>
        <time>2011-01-19T10:22:13Z</time>
      </trkpt>
      <trkpt lat="49.68555" lon="4.78259">
        <ele>273.154</ele>
        <time>2011-01-19T10:22:15Z</time>
      </trkpt>
      <trkpt lat="49.68552" lon="4.78261">
        <ele>274.205</ele>
        <time>2011-01-19T10:22:17Z</time>
      </trkpt>
      <trkpt lat="49.68549" lon="4.78262">
        <ele>274.759</ele>
        <time>2011-01-19T10:22:18Z</time>
      </trkpt>
      <trkpt lat="49.68545" lon="4.78265">
        <ele>275.973</ele>
        <time>2011-01-19T10:22:20Z</time>
      </trkpt>
      <trkpt lat="49.68541" lon="4.78267">
        <ele>277.059</ele>
        <time>2011-01-19T10:22:22Z</time>
      </trkpt>
      <trkpt lat="49.68538" lon="4.78268">
        <ele>277.75</ele>
        <time>2011-01-19T10:22:24Z</time>
      </trkpt>
      <trkpt lat="49.68537" lon="4.78269">
        <ele>277.89</ele>
        <time>2011-01-19T10:22:26Z</time>
      </trkpt>
      <trkpt lat="49.68535" lon="4.7827">
        <ele>277.83</ele>
        <time>2011-01-19T10:22:28Z</time>
      </trkpt>
      <trkpt lat="49.68534" lon="4.7827">
        <ele>277.95</ele>
        <time>2011-01-19T10:22:29Z</time>
      </trkpt>
      <trkpt lat="49.68529" lon="4.78274">
        <ele>278.044</ele>
        <time>2011-01-19T10:22:31Z</time>
      </trkpt>
      <trkpt lat="49.68521" lon="4.78277">
        <ele>278.306</ele>
        <time>2011-01-19T10:22:33Z</time>
      </trkpt>
      <trkpt lat="49.68517" lon="4.78279">
        <ele>278.442</ele>
        <time>2011-01-19T10:22:34Z</time>
      </trkpt>
      <trkpt lat="49.68508" lon="4.78282">
        <ele>278.829</ele>
        <time>2011-01-19T10:22:36Z</time>
      </trkpt>
      <trkpt lat="49.68503" lon="4.78284">
        <ele>279.091</ele>
        <time>2011-01-19T10:22:37Z</time>
      </trkpt>
      <trkpt lat="49.68495" lon="4.78288">
        <ele>279.955</ele>
        <time>2011-01-19T10:22:38Z</time>
      </trkpt>
      <trkpt lat="49.68492" lon="4.7829">
        <ele>280.434</ele>
        <time>2011-01-19T10:22:39Z</time>
      </trkpt>
      <trkpt lat="49.68488" lon="4.78291">
        <ele>281.465</ele>
        <time>2011-01-19T10:22:41Z</time>
      </trkpt>
      <trkpt lat="49.68484" lon="4.78293">
        <ele>282.763</ele>
        <time>2011-01-19T10:22:42Z</time>
      </trkpt>
      <trkpt lat="49.6848" lon="4.78295">
        <ele>284.114</ele>
        <time>2011-01-19T10:22:44Z</time>
      </trkpt>
      <trkpt lat="49.68475" lon="4.78297">
        <ele>285.543</ele>
        <time>2011-01-19T10:22:46Z</time>
      </trkpt>
      <trkpt lat="49.6847" lon="4.78301">
        <ele>286.254</ele>
        <time>2011-01-19T10:22:47Z</time>
      </trkpt>
      <trkpt lat="49.68467" lon="4.78303">
        <ele>286.442</ele>
        <time>2011-01-19T10:22:48Z</time>
      </trkpt>
      <trkpt lat="49.68459" lon="4.7831">
        <ele>286.327</ele>
        <time>2011-01-19T10:22:50Z</time>
      </trkpt>
      <trkpt lat="49.68457" lon="4.78312">
        <ele>286.337</ele>
        <time>2011-01-19T10:22:51Z</time>
      </trkpt>
      <trkpt lat="49.68452" lon="4.78317">
        <ele>286.2</ele>
        <time>2011-01-19T10:22:53Z</time>
      </trkpt>
      <trkpt lat="49.6845" lon="4.78319">
        <ele>285.885</ele>
        <time>2011-01-19T10:22:54Z</time>
      </trkpt>
      <trkpt lat="49.68444" lon="4.78323">
        <ele>285.157</ele>
        <time>2011-01-19T10:22:56Z</time>
      </trkpt>
      <trkpt lat="49.68436" lon="4.78329">
        <ele>284.071</ele>
        <time>2011-01-19T10:22:58Z</time>
      </trkpt>
      <trkpt lat="49.68429" lon="4.78336">
        <ele>283.021</ele>
        <time>2011-01-19T10:23:00Z</time>
      </trkpt>
      <trkpt lat="49.68425" lon="4.78344">
        <ele>281.993</ele>
        <time>2011-01-19T10:23:02Z</time>
      </trkpt>
      <trkpt lat="49.68423" lon="4.7835">
        <ele>281.06</ele>
        <time>2011-01-19T10:23:04Z</time>
      </trkpt>
      <trkpt lat="49.68421" lon="4.78356">
        <ele>279.74</ele>
        <time>2011-01-19T10:23:06Z</time>
      </trkpt>
      <trkpt lat="49.68419" lon="4.78359">
        <ele>279.28</ele>
        <time>2011-01-19T10:23:07Z</time>
      </trkpt>
      <trkpt lat="49.68416" lon="4.78367">
        <ele>278.69</ele>
        <time>2011-01-19T10:23:09Z</time>
      </trkpt>
      <trkpt lat="49.6841" lon="4.78373">
        <ele>277.81</ele>
        <time>2011-01-19T10:23:11Z</time>
      </trkpt>
      <trkpt lat="49.68404" lon="4.78377">
        <ele>276.31</ele>
        <time>2011-01-19T10:23:13Z</time>
      </trkpt>
      <trkpt lat="49.68401" lon="4.7838">
        <ele>275.76</ele>
        <time>2011-01-19T10:23:14Z</time>
      </trkpt>
      <trkpt lat="49.68398" lon="4.78383">
        <ele>275.36</ele>
        <time>2011-01-19T10:23:15Z</time>
      </trkpt>
      <trkpt lat="49.68394" lon="4.78391">
        <ele>274.374</ele>
        <time>2011-01-19T10:23:17Z</time>
      </trkpt>
      <trkpt lat="49.6839" lon="4.784">
        <ele>273.241</ele>
        <time>2011-01-19T10:23:18Z</time>
      </trkpt>
      <trkpt lat="49.68388" lon="4.78404">
        <ele>272.728</ele>
        <time>2011-01-19T10:23:19Z</time>
      </trkpt>
      <trkpt lat="49.68386" lon="4.78407">
        <ele>272.436</ele>
        <time>2011-01-19T10:23:20Z</time>
      </trkpt>
      <trkpt lat="49.68383" lon="4.78412">
        <ele>272.181</ele>
        <time>2011-01-19T10:23:22Z</time>
      </trkpt>
      <trkpt lat="49.68379" lon="4.78418">
        <ele>271.66</ele>
        <time>2011-01-19T10:23:24Z</time>
      </trkpt>
      <trkpt lat="49.68377" lon="4.78424">
        <ele>271.54</ele>
        <time>2011-01-19T10:23:26Z</time>
      </trkpt>
      <trkpt lat="49.68375" lon="4.78428">
        <ele>271.63</ele>
        <time>2011-01-19T10:23:27Z</time>
      </trkpt>
      <trkpt lat="49.68373" lon="4.78434">
        <ele>272</ele>
        <time>2011-01-19T10:23:28Z</time>
      </trkpt>
      <trkpt lat="49.68371" lon="4.7844">
        <ele>272.56</ele>
        <time>2011-01-19T10:23:30Z</time>
      </trkpt>
      <trkpt lat="49.68368" lon="4.78445">
        <ele>272.67</ele>
        <time>2011-01-19T10:23:32Z</time>
      </trkpt>
      <trkpt lat="49.68367" lon="4.78447">
        <ele>272.68</ele>
        <time>2011-01-19T10:23:33Z</time>
      </trkpt>
      <trkpt lat="49.68365" lon="4.7845">
        <ele>272.71</ele>
        <time>2011-01-19T10:23:34Z</time>
      </trkpt>
      <trkpt lat="49.68362" lon="4.78455">
        <ele>272.57</ele>
        <time>2011-01-19T10:23:35Z</time>
      </trkpt>
      <trkpt lat="49.68358" lon="4.78459">
        <ele>272.04</ele>
        <time>2011-01-19T10:23:37Z</time>
      </trkpt>
      <trkpt lat="49.68357" lon="4.78462">
        <ele>271.74</ele>
        <time>2011-01-19T10:23:38Z</time>
      </trkpt>
      <trkpt lat="49.68354" lon="4.7847">
        <ele>271.43</ele>
        <time>2011-01-19T10:23:40Z</time>
      </trkpt>
      <trkpt lat="49.68352" lon="4.78481">
        <ele>271.23</ele>
        <time>2011-01-19T10:23:42Z</time>
      </trkpt>
      <trkpt lat="49.68352" lon="4.78486">
        <ele>270.98</ele>
        <time>2011-01-19T10:23:43Z</time>
      </trkpt>
      <trkpt lat="49.68351" lon="4.78491">
        <ele>270.73</ele>
        <time>2011-01-19T10:23:44Z</time>
      </trkpt>
      <trkpt lat="49.68349" lon="4.78499">
        <ele>270.5</ele>
        <time>2011-01-19T10:23:45Z</time>
      </trkpt>
      <trkpt lat="49.68347" lon="4.78505">
        <ele>270.29</ele>
        <time>2011-01-19T10:23:47Z</time>
      </trkpt>
      <trkpt lat="49.68345" lon="4.78511">
        <ele>270.21</ele>
        <time>2011-01-19T10:23:48Z</time>
      </trkpt>
      <trkpt lat="49.68343" lon="4.7852">
        <ele>270.57</ele>
        <time>2011-01-19T10:23:50Z</time>
      </trkpt>
      <trkpt lat="49.68342" lon="4.78526">
        <ele>270.84</ele>
        <time>2011-01-19T10:23:52Z</time>
      </trkpt>
      <trkpt lat="49.68341" lon="4.78533">
        <ele>270.98</ele>
        <time>2011-01-19T10:23:53Z</time>
      </trkpt>
      <trkpt lat="49.68339" lon="4.78543">
        <ele>270.95</ele>
        <time>2011-01-19T10:23:55Z</time>
      </trkpt>
      <trkpt lat="49.68338" lon="4.78547">
        <ele>270.8</ele>
        <time>2011-01-19T10:23:57Z</time>
      </trkpt>
      <trkpt lat="49.68335" lon="4.78553">
        <ele>270.86</ele>
        <time>2011-01-19T10:23:59Z</time>
      </trkpt>
      <trkpt lat="49.68331" lon="4.7856">
        <ele>271.22</ele>
        <time>2011-01-19T10:24:00Z</time>
      </trkpt>
      <trkpt lat="49.68326" lon="4.78568">
        <ele>271.64</ele>
        <time>2011-01-19T10:24:02Z</time>
      </trkpt>
      <trkpt lat="49.68324" lon="4.78575">
        <ele>271.87</ele>
        <time>2011-01-19T10:24:04Z</time>
      </trkpt>
      <trkpt lat="49.68323" lon="4.78579">
        <ele>271.8</ele>
        <time>2011-01-19T10:24:05Z</time>
      </trkpt>
      <trkpt lat="49.68322" lon="4.78584">
        <ele>271.63</ele>
        <time>2011-01-19T10:24:06Z</time>
      </trkpt>
      <trkpt lat="49.68319" lon="4.78593">
        <ele>270.96</ele>
        <time>2011-01-19T10:24:07Z</time>
      </trkpt>
      <trkpt lat="49.68318" lon="4.786">
        <ele>270.15</ele>
        <time>2011-01-19T10:24:09Z</time>
      </trkpt>
      <trkpt lat="49.68317" lon="4.78604">
        <ele>269.68</ele>
        <time>2011-01-19T10:24:10Z</time>
      </trkpt>
      <trkpt lat="49.68315" lon="4.78611">
        <ele>268.69</ele>
        <time>2011-01-19T10:24:12Z</time>
      </trkpt>
      <trkpt lat="49.68314" lon="4.78616">
        <ele>268.53</ele>
        <time>2011-01-19T10:24:13Z</time>
      </trkpt>
      <trkpt lat="49.68312" lon="4.78621">
        <ele>268.46</ele>
        <time>2011-01-19T10:24:14Z</time>
      </trkpt>
      <trkpt lat="49.6831" lon="4.78626">
        <ele>268.47</ele>
        <time>2011-01-19T10:24:15Z</time>
      </trkpt>
      <trkpt lat="49.68306" lon="4.78636">
        <ele>268.8</ele>
        <time>2011-01-19T10:24:17Z</time>
      </trkpt>
      <trkpt lat="49.68304" lon="4.7864">
        <ele>269.01</ele>
        <time>2011-01-19T10:24:18Z</time>
      </trkpt>
      <trkpt lat="49.68303" lon="4.78644">
        <ele>269.29</ele>
        <time>2011-01-19T10:24:19Z</time>
      </trkpt>
      <trkpt lat="49.68301" lon="4.78652">
        <ele>270.15</ele>
        <time>2011-01-19T10:24:21Z</time>
      </trkpt>
      <trkpt lat="49.68298" lon="4.78662">
        <ele>271.57</ele>
        <time>2011-01-19T10:24:23Z</time>
      </trkpt>
      <trkpt lat="49.68297" lon="4.78666">
        <ele>272.3</ele>
        <time>2011-01-19T10:24:24Z</time>
      </trkpt>
      <trkpt lat="49.68293" lon="4.78673">
        <ele>273.68</ele>
        <time>2011-01-19T10:24:26Z</time>
      </trkpt>
      <trkpt lat="49.68289" lon="4.7868">
        <ele>274.96</ele>
        <time>2011-01-19T10:24:28Z</time>
      </trkpt>
      <trkpt lat="49.68284" lon="4.78688">
        <ele>275.99</ele>
        <time>2011-01-19T10:24:30Z</time>
      </trkpt>
      <trkpt lat="49.68282" lon="4.78692">
        <ele>276.26</ele>
        <time>2011-01-19T10:24:31Z</time>
      </trkpt>
      <trkpt lat="49.68277" lon="4.78701">
        <ele>275.96</ele>
        <time>2011-01-19T10:24:33Z</time>
      </trkpt>
      <trkpt lat="49.68273" lon="4.7871">
        <ele>275.71</ele>
        <time>2011-01-19T10:24:35Z</time>
      </trkpt>
      <trkpt lat="49.68269" lon="4.78719">
        <ele>275.41</ele>
        <time>2011-01-19T10:24:37Z</time>
      </trkpt>
      <trkpt lat="49.68266" lon="4.78729">
        <ele>274.39</ele>
        <time>2011-01-19T10:24:39Z</time>
      </trkpt>
      <trkpt lat="49.68264" lon="4.78733">
        <ele>274.04</ele>
        <time>2011-01-19T10:24:40Z</time>
      </trkpt>
      <trkpt lat="49.68261" lon="4.78744">
        <ele>273.73</ele>
        <time>2011-01-19T10:24:42Z</time>
      </trkpt>
      <trkpt lat="49.68258" lon="4.78755">
        <ele>272.87</ele>
        <time>2011-01-19T10:24:44Z</time>
      </trkpt>
      <trkpt lat="49.68256" lon="4.78764">
        <ele>271.59</ele>
        <time>2011-01-19T10:24:46Z</time>
      </trkpt>
      <trkpt lat="49.68256" lon="4.78773">
        <ele>270.99</ele>
        <time>2011-01-19T10:24:48Z</time>
      </trkpt>
      <trkpt lat="49.68257" lon="4.7878">
        <ele>270.79</ele>
        <time>2011-01-19T10:24:50Z</time>
      </trkpt>
      <trkpt lat="49.68259" lon="4.78785">
        <ele>270.71</ele>
        <time>2011-01-19T10:24:52Z</time>
      </trkpt>
      <trkpt lat="49.68262" lon="4.78789">
        <ele>271.33</ele>
        <time>2011-01-19T10:24:54Z</time>
      </trkpt>
      <trkpt lat="49.68263" lon="4.78791">
        <ele>271.79</ele>
        <time>2011-01-19T10:24:55Z</time>
      </trkpt>
      <trkpt lat="49.68266" lon="4.78795">
        <ele>272.7</ele>
        <time>2011-01-19T10:24:57Z</time>
      </trkpt>
      <trkpt lat="49.6827" lon="4.78799">
        <ele>273.24</ele>
        <time>2011-01-19T10:24:59Z</time>
      </trkpt>
      <trkpt lat="49.68272" lon="4.78802">
        <ele>273.39</ele>
        <time>2011-01-19T10:25:00Z</time>
      </trkpt>
      <trkpt lat="49.68274" lon="4.78804">
        <ele>273.45</ele>
        <time>2011-01-19T10:25:01Z</time>
      </trkpt>
      <trkpt lat="49.68276" lon="4.78806">
        <ele>273.5</ele>
        <time>2011-01-19T10:25:02Z</time>
      </trkpt>
      <trkpt lat="49.68279" lon="4.78809">
        <ele>273.71</ele>
        <time>2011-01-19T10:25:04Z</time>
      </trkpt>
      <trkpt lat="49.68282" lon="4.78812">
        <ele>273.94</ele>
        <time>2011-01-19T10:25:06Z</time>
      </trkpt>
      <trkpt lat="49.68283" lon="4.78813">
        <ele>274.1</ele>
        <time>2011-01-19T10:25:07Z</time>
      </trkpt>
      <trkpt lat="49.68286" lon="4.78816">
        <ele>274.96</ele>
        <time>2011-01-19T10:25:09Z</time>
      </trkpt>
      <trkpt lat="49.68289" lon="4.7882">
        <ele>276.52</ele>
        <time>2011-01-19T10:25:11Z</time>
      </trkpt>
      <trkpt lat="49.68292" lon="4.78822">
        <ele>278.01</ele>
        <time>2011-01-19T10:25:13Z</time>
      </trkpt>
      <trkpt lat="49.68294" lon="4.78824">
        <ele>278.62</ele>
        <time>2011-01-19T10:25:14Z</time>
      </trkpt>
      <trkpt lat="49.68298" lon="4.78827">
        <ele>279.5</ele>
        <time>2011-01-19T10:25:16Z</time>
      </trkpt>
      <trkpt lat="49.683" lon="4.78829">
        <ele>279.84</ele>
        <time>2011-01-19T10:25:17Z</time>
      </trkpt>
      <trkpt lat="49.68303" lon="4.78833">
        <ele>280.15</ele>
        <time>2011-01-19T10:25:19Z</time>
      </trkpt>
      <trkpt lat="49.68304" lon="4.78836">
        <ele>279.95</ele>
        <time>2011-01-19T10:25:20Z</time>
      </trkpt>
      <trkpt lat="49.68306" lon="4.7884">
        <ele>279.27</ele>
        <time>2011-01-19T10:25:22Z</time>
      </trkpt>
      <trkpt lat="49.68309" lon="4.78844">
        <ele>278.8</ele>
        <time>2011-01-19T10:25:24Z</time>
      </trkpt>
      <trkpt lat="49.6831" lon="4.78845">
        <ele>278.68</ele>
        <time>2011-01-19T10:25:25Z</time>
      </trkpt>
      <trkpt lat="49.68313" lon="4.78846">
        <ele>278.66</ele>
        <time>2011-01-19T10:25:27Z</time>
      </trkpt>
      <trkpt lat="49.68315" lon="4.78848">
        <ele>278.83</ele>
        <time>2011-01-19T10:25:29Z</time>
      </trkpt>
      <trkpt lat="49.68318" lon="4.78851">
        <ele>279.33</ele>
        <time>2011-01-19T10:25:31Z</time>
      </trkpt>
      <trkpt lat="49.6832" lon="4.78854">
        <ele>279.62</ele>
        <time>2011-01-19T10:25:32Z</time>
      </trkpt>
      <trkpt lat="49.68324" lon="4.78859">
        <ele>280.04</ele>
        <time>2011-01-19T10:25:34Z</time>
      </trkpt>
      <trkpt lat="49.68327" lon="4.78863">
        <ele>280.25</ele>
        <time>2011-01-19T10:25:36Z</time>
      </trkpt>
      <trkpt lat="49.6833" lon="4.78867">
        <ele>279.87</ele>
        <time>2011-01-19T10:25:38Z</time>
      </trkpt>
      <trkpt lat="49.68331" lon="4.78869">
        <ele>279.59</ele>
        <time>2011-01-19T10:25:39Z</time>
      </trkpt>
      <trkpt lat="49.68335" lon="4.78874">
        <ele>278.98</ele>
        <time>2011-01-19T10:25:41Z</time>
      </trkpt>
      <trkpt lat="49.68337" lon="4.78877">
        <ele>278.67</ele>
        <time>2011-01-19T10:25:42Z</time>
      </trkpt>
      <trkpt lat="49.6834" lon="4.78882">
        <ele>278.19</ele>
        <time>2011-01-19T10:25:44Z</time>
      </trkpt>
      <trkpt lat="49.68342" lon="4.78884">
        <ele>278.03</ele>
        <time>2011-01-19T10:25:45Z</time>
      </trkpt>
      <trkpt lat="49.68343" lon="4.78886">
        <ele>277.91</ele>
        <time>2011-01-19T10:25:46Z</time>
      </trkpt>
      <trkpt lat="49.68344" lon="4.78887">
        <ele>277.94</ele>
        <time>2011-01-19T10:25:47Z</time>
      </trkpt>
      <trkpt lat="49.68346" lon="4.78889">
        <ele>278.09</ele>
        <time>2011-01-19T10:25:48Z</time>
      </trkpt>
      <trkpt lat="49.68348" lon="4.78893">
        <ele>278.53</ele>
        <time>2011-01-19T10:25:50Z</time>
      </trkpt>
      <trkpt lat="49.68351" lon="4.78897">
        <ele>278.96</ele>
        <time>2011-01-19T10:25:52Z</time>
      </trkpt>
      <trkpt lat="49.68352" lon="4.78899">
        <ele>279.15</ele>
        <time>2011-01-19T10:25:53Z</time>
      </trkpt>
      <trkpt lat="49.68353" lon="4.78901">
        <ele>279.3</ele>
        <time>2011-01-19T10:25:54Z</time>
      </trkpt>
      <trkpt lat="49.68355" lon="4.78906">
        <ele>279.42</ele>
        <time>2011-01-19T10:25:56Z</time>
      </trkpt>
      <trkpt lat="49.68358" lon="4.7891">
        <ele>279</ele>
        <time>2011-01-19T10:25:58Z</time>
      </trkpt>
      <trkpt lat="49.68361" lon="4.78913">
        <ele>278.25</ele>
        <time>2011-01-19T10:26:00Z</time>
      </trkpt>
      <trkpt lat="49.68363" lon="4.78915">
        <ele>277.95</ele>
        <time>2011-01-19T10:26:01Z</time>
      </trkpt>
      <trkpt lat="49.68365" lon="4.78917">
        <ele>277.7</ele>
        <time>2011-01-19T10:26:02Z</time>
      </trkpt>
      <trkpt lat="49.68369" lon="4.78921">
        <ele>277.45</ele>
        <time>2011-01-19T10:26:04Z</time>
      </trkpt>
      <trkpt lat="49.68373" lon="4.78924">
        <ele>277.81</ele>
        <time>2011-01-19T10:26:06Z</time>
      </trkpt>
      <trkpt lat="49.68374" lon="4.78925">
        <ele>278.23</ele>
        <time>2011-01-19T10:26:07Z</time>
      </trkpt>
      <trkpt lat="49.68376" lon="4.78926">
        <ele>278.68</ele>
        <time>2011-01-19T10:26:08Z</time>
      </trkpt>
      <trkpt lat="49.6838" lon="4.7893">
        <ele>279.53</ele>
        <time>2011-01-19T10:26:10Z</time>
      </trkpt>
      <trkpt lat="49.68386" lon="4.78934">
        <ele>279.72</ele>
        <time>2011-01-19T10:26:12Z</time>
      </trkpt>
      <trkpt lat="49.68392" lon="4.78938">
        <ele>279.23</ele>
        <time>2011-01-19T10:26:14Z</time>
      </trkpt>
      <trkpt lat="49.68397" lon="4.78941">
        <ele>278.07</ele>
        <time>2011-01-19T10:26:16Z</time>
      </trkpt>
      <trkpt lat="49.68402" lon="4.78943">
        <ele>276.66</ele>
        <time>2011-01-19T10:26:18Z</time>
      </trkpt>
      <trkpt lat="49.68404" lon="4.78945">
        <ele>275.97</ele>
        <time>2011-01-19T10:26:19Z</time>
      </trkpt>
      <trkpt lat="49.68409" lon="4.78947">
        <ele>274.81</ele>
        <time>2011-01-19T10:26:21Z</time>
      </trkpt>
      <trkpt lat="49.68412" lon="4.78949">
        <ele>274.39</ele>
        <time>2011-01-19T10:26:22Z</time>
      </trkpt>
      <trkpt lat="49.68417" lon="4.78952">
        <ele>273.83</ele>
        <time>2011-01-19T10:26:24Z</time>
      </trkpt>
      <trkpt lat="49.68422" lon="4.78956">
        <ele>273.41</ele>
        <time>2011-01-19T10:26:26Z</time>
      </trkpt>
      <trkpt lat="49.68427" lon="4.7896">
        <ele>273.07</ele>
        <time>2011-01-19T10:26:28Z</time>
      </trkpt>
      <trkpt lat="49.68429" lon="4.78961">
        <ele>272.9</ele>
        <time>2011-01-19T10:26:29Z</time>
      </trkpt>
      <trkpt lat="49.68434" lon="4.78964">
        <ele>272.55</ele>
        <time>2011-01-19T10:26:31Z</time>
      </trkpt>
      <trkpt lat="49.68441" lon="4.78966">
        <ele>272.1</ele>
        <time>2011-01-19T10:26:33Z</time>
      </trkpt>
      <trkpt lat="49.68448" lon="4.78967">
        <ele>271.75</ele>
        <time>2011-01-19T10:26:35Z</time>
      </trkpt>
      <trkpt lat="49.68456" lon="4.7897">
        <ele>271.36</ele>
        <time>2011-01-19T10:26:37Z</time>
      </trkpt>
      <trkpt lat="49.68459" lon="4.78971">
        <ele>271.19</ele>
        <time>2011-01-19T10:26:38Z</time>
      </trkpt>
      <trkpt lat="49.68461" lon="4.78973">
        <ele>271.04</ele>
        <time>2011-01-19T10:26:39Z</time>
      </trkpt>
      <trkpt lat="49.68467" lon="4.78976">
        <ele>270.72</ele>
        <time>2011-01-19T10:26:41Z</time>
      </trkpt>
      <trkpt lat="49.68473" lon="4.78978">
        <ele>270.37</ele>
        <time>2011-01-19T10:26:43Z</time>
      </trkpt>
      <trkpt lat="49.68476" lon="4.7898">
        <ele>270.17</ele>
        <time>2011-01-19T10:26:44Z</time>
      </trkpt>
      <trkpt lat="49.68479" lon="4.78981">
        <ele>269.97</ele>
        <time>2011-01-19T10:26:45Z</time>
      </trkpt>
      <trkpt lat="49.68485" lon="4.78984">
        <ele>269.73</ele>
        <time>2011-01-19T10:26:47Z</time>
      </trkpt>
      <trkpt lat="49.68488" lon="4.78985">
        <ele>269.66</ele>
        <time>2011-01-19T10:26:48Z</time>
      </trkpt>
      <trkpt lat="49.68494" lon="4.78988">
        <ele>269.58</ele>
        <time>2011-01-19T10:26:50Z</time>
      </trkpt>
      <trkpt lat="49.685" lon="4.7899">
        <ele>269.55</ele>
        <time>2011-01-19T10:26:52Z</time>
      </trkpt>
      <trkpt lat="49.68507" lon="4.78993">
        <ele>269.52</ele>
        <time>2011-01-19T10:26:54Z</time>
      </trkpt>
      <trkpt lat="49.68512" lon="4.78996">
        <ele>269.44</ele>
        <time>2011-01-19T10:26:56Z</time>
      </trkpt>
      <trkpt lat="49.68518" lon="4.79">
        <ele>269.33</ele>
        <time>2011-01-19T10:26:58Z</time>
      </trkpt>
      <trkpt lat="49.68523" lon="4.79002">
        <ele>269.19</ele>
        <time>2011-01-19T10:27:00Z</time>
      </trkpt>
      <trkpt lat="49.68526" lon="4.79004">
        <ele>269.16</ele>
        <time>2011-01-19T10:27:01Z</time>
      </trkpt>
      <trkpt lat="49.68528" lon="4.79005">
        <ele>269.14</ele>
        <time>2011-01-19T10:27:02Z</time>
      </trkpt>
      <trkpt lat="49.68534" lon="4.79007">
        <ele>269.16</ele>
        <time>2011-01-19T10:27:04Z</time>
      </trkpt>
      <trkpt lat="49.68539" lon="4.79009">
        <ele>269.2</ele>
        <time>2011-01-19T10:27:06Z</time>
      </trkpt>
      <trkpt lat="49.68542" lon="4.7901">
        <ele>269.23</ele>
        <time>2011-01-19T10:27:07Z</time>
      </trkpt>
      <trkpt lat="49.68548" lon="4.79012">
        <ele>269.24</ele>
        <time>2011-01-19T10:27:09Z</time>
      </trkpt>
      <trkpt lat="49.68554" lon="4.79014">
        <ele>269.25</ele>
        <time>2011-01-19T10:27:11Z</time>
      </trkpt>
      <trkpt lat="49.68557" lon="4.79015">
        <ele>269.24</ele>
        <time>2011-01-19T10:27:12Z</time>
      </trkpt>
      <trkpt lat="49.68559" lon="4.79016">
        <ele>269.23</ele>
        <time>2011-01-19T10:27:13Z</time>
      </trkpt>
      <trkpt lat="49.68565" lon="4.79019">
        <ele>269.31</ele>
        <time>2011-01-19T10:27:15Z</time>
      </trkpt>
      <trkpt lat="49.68571" lon="4.79021">
        <ele>269.25</ele>
        <time>2011-01-19T10:27:17Z</time>
      </trkpt>
      <trkpt lat="49.68577" lon="4.79024">
        <ele>269.22</ele>
        <time>2011-01-19T10:27:19Z</time>
      </trkpt>
      <trkpt lat="49.6858" lon="4.79026">
        <ele>269.23</ele>
        <time>2011-01-19T10:27:20Z</time>
      </trkpt>
      <trkpt lat="49.68583" lon="4.79027">
        <ele>269.24</ele>
        <time>2011-01-19T10:27:21Z</time>
      </trkpt>
      <trkpt lat="49.68589" lon="4.7903">
        <ele>269.24</ele>
        <time>2011-01-19T10:27:23Z</time>
      </trkpt>
      <trkpt lat="49.68592" lon="4.79031">
        <ele>269.24</ele>
        <time>2011-01-19T10:27:24Z</time>
      </trkpt>
      <trkpt lat="49.68596" lon="4.79033">
        <ele>269.24</ele>
        <time>2011-01-19T10:27:25Z</time>
      </trkpt>
      <trkpt lat="49.68602" lon="4.79036">
        <ele>269.303</ele>
        <time>2011-01-19T10:27:27Z</time>
      </trkpt>
      <trkpt lat="49.68608" lon="4.79039">
        <ele>269.232</ele>
        <time>2011-01-19T10:27:29Z</time>
      </trkpt>
      <trkpt lat="49.68611" lon="4.7904">
        <ele>269.142</ele>
        <time>2011-01-19T10:27:30Z</time>
      </trkpt>
      <trkpt lat="49.68617" lon="4.79043">
        <ele>268.95</ele>
        <time>2011-01-19T10:27:32Z</time>
      </trkpt>
      <trkpt lat="49.68623" lon="4.79045">
        <ele>268.745</ele>
        <time>2011-01-19T10:27:34Z</time>
      </trkpt>
      <trkpt lat="49.68629" lon="4.79047">
        <ele>268.527</ele>
        <time>2011-01-19T10:27:36Z</time>
      </trkpt>
      <trkpt lat="49.68634" lon="4.7905">
        <ele>268.697</ele>
        <time>2011-01-19T10:27:38Z</time>
      </trkpt>
      <trkpt lat="49.68636" lon="4.79052">
        <ele>268.806</ele>
        <time>2011-01-19T10:27:39Z</time>
      </trkpt>
      <trkpt lat="49.68638" lon="4.79055">
        <ele>269.23</ele>
        <time>2011-01-19T10:27:40Z</time>
      </trkpt>
      <trkpt lat="49.68641" lon="4.79058">
        <ele>270.274</ele>
        <time>2011-01-19T10:27:41Z</time>
      </trkpt>
      <trkpt lat="49.68642" lon="4.7906">
        <ele>271.65</ele>
        <time>2011-01-19T10:27:43Z</time>
      </trkpt>
      <trkpt lat="49.68645" lon="4.79062">
        <ele>273.28</ele>
        <time>2011-01-19T10:27:44Z</time>
      </trkpt>
      <trkpt lat="49.68646" lon="4.79066">
        <ele>274.96</ele>
        <time>2011-01-19T10:27:46Z</time>
      </trkpt>
      <trkpt lat="49.68647" lon="4.79067">
        <ele>275.97</ele>
        <time>2011-01-19T10:27:47Z</time>
      </trkpt>
      <trkpt lat="49.68649" lon="4.79068">
        <ele>276.81</ele>
        <time>2011-01-19T10:27:48Z</time>
      </trkpt>
      <trkpt lat="49.68653" lon="4.7907">
        <ele>278.45</ele>
        <time>2011-01-19T10:27:50Z</time>
      </trkpt>
      <trkpt lat="49.68656" lon="4.7907">
        <ele>279.15</ele>
        <time>2011-01-19T10:27:51Z</time>
      </trkpt>
      <trkpt lat="49.68662" lon="4.79071">
        <ele>280.31</ele>
        <time>2011-01-19T10:27:52Z</time>
      </trkpt>
      <trkpt lat="49.68664" lon="4.79072">
        <ele>280.9</ele>
        <time>2011-01-19T10:27:53Z</time>
      </trkpt>
      <trkpt lat="49.68667" lon="4.79074">
        <ele>281.95</ele>
        <time>2011-01-19T10:27:55Z</time>
      </trkpt>
      <trkpt lat="49.68669" lon="4.79075">
        <ele>282.3</ele>
        <time>2011-01-19T10:27:56Z</time>
      </trkpt>
      <trkpt lat="49.68673" lon="4.79075">
        <ele>282.77</ele>
        <time>2011-01-19T10:27:57Z</time>
      </trkpt>
      <trkpt lat="49.68677" lon="4.79074">
        <ele>283.09</ele>
        <time>2011-01-19T10:27:59Z</time>
      </trkpt>
      <trkpt lat="49.68679" lon="4.79074">
        <ele>283.22</ele>
        <time>2011-01-19T10:28:00Z</time>
      </trkpt>
      <trkpt lat="49.68684" lon="4.79075">
        <ele>283.52</ele>
        <time>2011-01-19T10:28:02Z</time>
      </trkpt>
      <trkpt lat="49.68691" lon="4.79079">
        <ele>283.96</ele>
        <time>2011-01-19T10:28:04Z</time>
      </trkpt>
      <trkpt lat="49.68694" lon="4.79081">
        <ele>284.29</ele>
        <time>2011-01-19T10:28:05Z</time>
      </trkpt>
      <trkpt lat="49.687" lon="4.79088">
        <ele>284.86</ele>
        <time>2011-01-19T10:28:07Z</time>
      </trkpt>
      <trkpt lat="49.68704" lon="4.79095">
        <ele>285.66</ele>
        <time>2011-01-19T10:28:09Z</time>
      </trkpt>
      <trkpt lat="49.68709" lon="4.79103">
        <ele>286.89</ele>
        <time>2011-01-19T10:28:11Z</time>
      </trkpt>
      <trkpt lat="49.68713" lon="4.7911">
        <ele>287.56</ele>
        <time>2011-01-19T10:28:13Z</time>
      </trkpt>
      <trkpt lat="49.68718" lon="4.79118">
        <ele>287.54</ele>
        <time>2011-01-19T10:28:15Z</time>
      </trkpt>
      <trkpt lat="49.68723" lon="4.79124">
        <ele>287.18</ele>
        <time>2011-01-19T10:28:17Z</time>
      </trkpt>
      <trkpt lat="49.68726" lon="4.79126">
        <ele>286.96</ele>
        <time>2011-01-19T10:28:18Z</time>
      </trkpt>
      <trkpt lat="49.68727" lon="4.79127">
        <ele>286.92</ele>
        <time>2011-01-19T10:28:19Z</time>
      </trkpt>
      <trkpt lat="49.68729" lon="4.79129">
        <ele>286.94</ele>
        <time>2011-01-19T10:28:21Z</time>
      </trkpt>
      <trkpt lat="49.6873" lon="4.7913">
        <ele>287.2</ele>
        <time>2011-01-19T10:28:22Z</time>
      </trkpt>
      <trkpt lat="49.68733" lon="4.79128">
        <ele>288.11</ele>
        <time>2011-01-19T10:28:24Z</time>
      </trkpt>
      <trkpt lat="49.68735" lon="4.79124">
        <ele>289.12</ele>
        <time>2011-01-19T10:28:26Z</time>
      </trkpt>
      <trkpt lat="49.68737" lon="4.79121">
        <ele>289.72</ele>
        <time>2011-01-19T10:28:27Z</time>
      </trkpt>
      <trkpt lat="49.6874" lon="4.79116">
        <ele>290.47</ele>
        <time>2011-01-19T10:28:29Z</time>
      </trkpt>
      <trkpt lat="49.68742" lon="4.79113">
        <ele>290.5</ele>
        <time>2011-01-19T10:28:30Z</time>
      </trkpt>
      <trkpt lat="49.68743" lon="4.79111">
        <ele>290.41</ele>
        <time>2011-01-19T10:28:31Z</time>
      </trkpt>
      <trkpt lat="49.68747" lon="4.79104">
        <ele>290.05</ele>
        <time>2011-01-19T10:28:33Z</time>
      </trkpt>
      <trkpt lat="49.6875" lon="4.79095">
        <ele>289.84</ele>
        <time>2011-01-19T10:28:35Z</time>
      </trkpt>
      <trkpt lat="49.68753" lon="4.79087">
        <ele>289.68</ele>
        <time>2011-01-19T10:28:37Z</time>
      </trkpt>
      <trkpt lat="49.68755" lon="4.79084">
        <ele>289.54</ele>
        <time>2011-01-19T10:28:38Z</time>
      </trkpt>
      <trkpt lat="49.68756" lon="4.7908">
        <ele>289.47</ele>
        <time>2011-01-19T10:28:39Z</time>
      </trkpt>
      <trkpt lat="49.68759" lon="4.79074">
        <ele>289.38</ele>
        <time>2011-01-19T10:28:41Z</time>
      </trkpt>
      <trkpt lat="49.6876" lon="4.79069">
        <ele>289.46</ele>
        <time>2011-01-19T10:28:43Z</time>
      </trkpt>
      <trkpt lat="49.68761" lon="4.79066">
        <ele>289.57</ele>
        <time>2011-01-19T10:28:44Z</time>
      </trkpt>
      <trkpt lat="49.68762" lon="4.79059">
        <ele>289.77</ele>
        <time>2011-01-19T10:28:46Z</time>
      </trkpt>
      <trkpt lat="49.68764" lon="4.79055">
        <ele>289.95</ele>
        <time>2011-01-19T10:28:47Z</time>
      </trkpt>
      <trkpt lat="49.68765" lon="4.7905">
        <ele>290.2</ele>
        <time>2011-01-19T10:28:48Z</time>
      </trkpt>
      <trkpt lat="49.68768" lon="4.79036">
        <ele>290.48</ele>
        <time>2011-01-19T10:28:50Z</time>
      </trkpt>
      <trkpt lat="49.6877" lon="4.79028">
        <ele>290.49</ele>
        <time>2011-01-19T10:28:51Z</time>
      </trkpt>
      <trkpt lat="49.68774" lon="4.7901">
        <ele>290.39</ele>
        <time>2011-01-19T10:28:53Z</time>
      </trkpt>
      <trkpt lat="49.68778" lon="4.78996">
        <ele>290.51</ele>
        <time>2011-01-19T10:28:55Z</time>
      </trkpt>
      <trkpt lat="49.68784" lon="4.78985">
        <ele>290.7</ele>
        <time>2011-01-19T10:28:57Z</time>
      </trkpt>
      <trkpt lat="49.6879" lon="4.78974">
        <ele>290.99</ele>
        <time>2011-01-19T10:28:59Z</time>
      </trkpt>
      <trkpt lat="49.68796" lon="4.78964">
        <ele>291.64</ele>
        <time>2011-01-19T10:29:01Z</time>
      </trkpt>
      <trkpt lat="49.68799" lon="4.78958">
        <ele>291.99</ele>
        <time>2011-01-19T10:29:02Z</time>
      </trkpt>
      <trkpt lat="49.68806" lon="4.78943">
        <ele>291.8</ele>
        <time>2011-01-19T10:29:04Z</time>
      </trkpt>
      <trkpt lat="49.68809" lon="4.78936">
        <ele>291.586</ele>
        <time>2011-01-19T10:29:05Z</time>
      </trkpt>
      <trkpt lat="49.68811" lon="4.78929">
        <ele>291.181</ele>
        <time>2011-01-19T10:29:06Z</time>
      </trkpt>
      <trkpt lat="49.68815" lon="4.78922">
        <ele>290.376</ele>
        <time>2011-01-19T10:29:08Z</time>
      </trkpt>
      <trkpt lat="49.68817" lon="4.78919">
        <ele>289.756</ele>
        <time>2011-01-19T10:29:09Z</time>
      </trkpt>
      <trkpt lat="49.6882" lon="4.78915">
        <ele>288.935</ele>
        <time>2011-01-19T10:29:10Z</time>
      </trkpt>
      <trkpt lat="49.68826" lon="4.78904">
        <ele>285.806</ele>
        <time>2011-01-19T10:29:12Z</time>
      </trkpt>
      <trkpt lat="49.68829" lon="4.78898">
        <ele>284.606</ele>
        <time>2011-01-19T10:29:13Z</time>
      </trkpt>
      <trkpt lat="49.68834" lon="4.78889">
        <ele>282.348</ele>
        <time>2011-01-19T10:29:15Z</time>
      </trkpt>
      <trkpt lat="49.68835" lon="4.78887">
        <ele>281.142</ele>
        <time>2011-01-19T10:29:16Z</time>
      </trkpt>
      <trkpt lat="49.68837" lon="4.78884">
        <ele>279.903</ele>
        <time>2011-01-19T10:29:17Z</time>
      </trkpt>
      <trkpt lat="49.68839" lon="4.7888">
        <ele>278.105</ele>
        <time>2011-01-19T10:29:19Z</time>
      </trkpt>
      <trkpt lat="49.68841" lon="4.78875">
        <ele>276.83</ele>
        <time>2011-01-19T10:29:21Z</time>
      </trkpt>
      <trkpt lat="49.68842" lon="4.78872">
        <ele>275.85</ele>
        <time>2011-01-19T10:29:23Z</time>
      </trkpt>
      <trkpt lat="49.68843" lon="4.7887">
        <ele>275.56</ele>
        <time>2011-01-19T10:29:24Z</time>
      </trkpt>
      <trkpt lat="49.68843" lon="4.7887">
        <ele>275.32</ele>
        <time>2011-01-19T10:29:25Z</time>
      </trkpt>
      <trkpt lat="49.68844" lon="4.78869">
        <ele>274.96</ele>
        <time>2011-01-19T10:29:27Z</time>
      </trkpt>
      <trkpt lat="49.68844" lon="4.78869">
        <ele>275.02</ele>
        <time>2011-01-19T10:29:29Z</time>
      </trkpt>
      <trkpt lat="49.68844" lon="4.78869">
        <ele>275.16</ele>
        <time>2011-01-19T10:29:30Z</time>
      </trkpt>
      <trkpt lat="49.68844" lon="4.78869">
        <ele>275.35</ele>
        <time>2011-01-19T10:29:31Z</time>
      </trkpt>
      <trkpt lat="49.68843" lon="4.78869">
        <ele>275.43</ele>
        <time>2011-01-19T10:29:33Z</time>
      </trkpt>
      <trkpt lat="49.68843" lon="4.78868">
        <ele>275.26</ele>
        <time>2011-01-19T10:29:35Z</time>
      </trkpt>
      <trkpt lat="49.68843" lon="4.78867">
        <ele>275.16</ele>
        <time>2011-01-19T10:29:36Z</time>
      </trkpt>
      <trkpt lat="49.68844" lon="4.78865">
        <ele>274.704</ele>
        <time>2011-01-19T10:29:38Z</time>
      </trkpt>
      <trkpt lat="49.68844" lon="4.78864">
        <ele>274.457</ele>
        <time>2011-01-19T10:29:39Z</time>
      </trkpt>
      <trkpt lat="49.68844" lon="4.78862">
        <ele>273.899</ele>
        <time>2011-01-19T10:29:41Z</time>
      </trkpt>
      <trkpt lat="49.68844" lon="4.78862">
        <ele>273.632</ele>
        <time>2011-01-19T10:29:42Z</time>
      </trkpt>
      <trkpt lat="49.68844" lon="4.78861">
        <ele>273.316</ele>
        <time>2011-01-19T10:29:43Z</time>
      </trkpt>
      <trkpt lat="49.68845" lon="4.7886">
        <ele>272.268</ele>
        <time>2011-01-19T10:29:45Z</time>
      </trkpt>
      <trkpt lat="49.68845" lon="4.7886">
        <ele>271.644</ele>
        <time>2011-01-19T10:29:46Z</time>
      </trkpt>
      <trkpt lat="49.68845" lon="4.78859">
        <ele>270.845</ele>
        <time>2011-01-19T10:29:48Z</time>
      </trkpt>
      <trkpt lat="49.68845" lon="4.78859">
        <ele>270.566</ele>
        <time>2011-01-19T10:29:49Z</time>
      </trkpt>
      <trkpt lat="49.68845" lon="4.78859">
        <ele>270.1</ele>
        <time>2011-01-19T10:29:51Z</time>
      </trkpt>
      <trkpt lat="49.68845" lon="4.78859">
        <ele>269.926</ele>
        <time>2011-01-19T10:29:52Z</time>
      </trkpt>
      <trkpt lat="49.68845" lon="4.78859">
        <ele>269.81</ele>
        <time>2011-01-19T10:29:54Z</time>
      </trkpt>
      <trkpt lat="49.68845" lon="4.78859">
        <ele>269.8</ele>
        <time>2011-01-19T10:29:55Z</time>
      </trkpt>
      <trkpt lat="49.68845" lon="4.78859">
        <ele>269.8</ele>
        <time>2011-01-19T10:29:57Z</time>
      </trkpt>
      <trkpt lat="49.68845" lon="4.78859">
        <ele>269.74</ele>
        <time>2011-01-19T10:29:59Z</time>
      </trkpt>
      <trkpt lat="49.68845" lon="4.7886">
        <ele>269.68</ele>
        <time>2011-01-19T10:30:00Z</time>
      </trkpt>
      <trkpt lat="49.68845" lon="4.7886">
        <ele>269.62</ele>
        <time>2011-01-19T10:30:01Z</time>
      </trkpt>
      <trkpt lat="49.68845" lon="4.78861">
        <ele>269.6</ele>
        <time>2011-01-19T10:30:02Z</time>
      </trkpt>
      <trkpt lat="49.68845" lon="4.78863">
        <ele>269.392</ele>
        <time>2011-01-19T10:30:04Z</time>
      </trkpt>
      <trkpt lat="49.68845" lon="4.78864">
        <ele>268.984</ele>
        <time>2011-01-19T10:30:06Z</time>
      </trkpt>
      <trkpt lat="49.68845" lon="4.78863">
        <ele>268.763</ele>
        <time>2011-01-19T10:30:07Z</time>
      </trkpt>
      <trkpt lat="49.68845" lon="4.78862">
        <ele>268.298</ele>
        <time>2011-01-19T10:30:09Z</time>
      </trkpt>
      <trkpt lat="49.68846" lon="4.78858">
        <ele>267.688</ele>
        <time>2011-01-19T10:30:11Z</time>
      </trkpt>
      <trkpt lat="49.68848" lon="4.78853">
        <ele>267.56</ele>
        <time>2011-01-19T10:30:13Z</time>
      </trkpt>
      <trkpt lat="49.68849" lon="4.7885">
        <ele>267.47</ele>
        <time>2011-01-19T10:30:14Z</time>
      </trkpt>
      <trkpt lat="49.68851" lon="4.78846">
        <ele>267.287</ele>
        <time>2011-01-19T10:30:15Z</time>
      </trkpt>
      <trkpt lat="49.68852" lon="4.7884">
        <ele>267.043</ele>
        <time>2011-01-19T10:30:16Z</time>
      </trkpt>
      <trkpt lat="49.68854" lon="4.78836">
        <ele>266.92</ele>
        <time>2011-01-19T10:30:18Z</time>
      </trkpt>
      <trkpt lat="49.68856" lon="4.78831">
        <ele>266.827</ele>
        <time>2011-01-19T10:30:19Z</time>
      </trkpt>
      <trkpt lat="49.68858" lon="4.78827">
        <ele>266.755</ele>
        <time>2011-01-19T10:30:21Z</time>
      </trkpt>
      <trkpt lat="49.68859" lon="4.78823">
        <ele>266.746</ele>
        <time>2011-01-19T10:30:22Z</time>
      </trkpt>
      <trkpt lat="49.68861" lon="4.78818">
        <ele>266.857</ele>
        <time>2011-01-19T10:30:23Z</time>
      </trkpt>
      <trkpt lat="49.68864" lon="4.78809">
        <ele>266.75</ele>
        <time>2011-01-19T10:30:25Z</time>
      </trkpt>
      <trkpt lat="49.68866" lon="4.78804">
        <ele>266.55</ele>
        <time>2011-01-19T10:30:26Z</time>
      </trkpt>
      <trkpt lat="49.6887" lon="4.78796">
        <ele>266.4</ele>
        <time>2011-01-19T10:30:28Z</time>
      </trkpt>
      <trkpt lat="49.68872" lon="4.78792">
        <ele>266.4</ele>
        <time>2011-01-19T10:30:29Z</time>
      </trkpt>
      <trkpt lat="49.68874" lon="4.78788">
        <ele>266.4</ele>
        <time>2011-01-19T10:30:30Z</time>
      </trkpt>
      <trkpt lat="49.68875" lon="4.78783">
        <ele>266.4</ele>
        <time>2011-01-19T10:30:31Z</time>
      </trkpt>
      <trkpt lat="49.6888" lon="4.78774">
        <ele>265.9</ele>
        <time>2011-01-19T10:30:33Z</time>
      </trkpt>
      <trkpt lat="49.68883" lon="4.78769">
        <ele>265.35</ele>
        <time>2011-01-19T10:30:34Z</time>
      </trkpt>
      <trkpt lat="49.68889" lon="4.78759">
        <ele>264.233</ele>
        <time>2011-01-19T10:30:35Z</time>
      </trkpt>
      <trkpt lat="49.68894" lon="4.78752">
        <ele>263.2</ele>
        <time>2011-01-19T10:30:37Z</time>
      </trkpt>
      <trkpt lat="49.68899" lon="4.78743">
        <ele>263.038</ele>
        <time>2011-01-19T10:30:39Z</time>
      </trkpt>
      <trkpt lat="49.68903" lon="4.78732">
        <ele>262.92</ele>
        <time>2011-01-19T10:30:41Z</time>
      </trkpt>
      <trkpt lat="49.68908" lon="4.7872">
        <ele>262.71</ele>
        <time>2011-01-19T10:30:43Z</time>
      </trkpt>
      <trkpt lat="49.68914" lon="4.78709">
        <ele>262.53</ele>
        <time>2011-01-19T10:30:45Z</time>
      </trkpt>
      <trkpt lat="49.68917" lon="4.78703">
        <ele>262.42</ele>
        <time>2011-01-19T10:30:46Z</time>
      </trkpt>
      <trkpt lat="49.68923" lon="4.78691">
        <ele>262.127</ele>
        <time>2011-01-19T10:30:48Z</time>
      </trkpt>
      <trkpt lat="49.68928" lon="4.78679">
        <ele>261.81</ele>
        <time>2011-01-19T10:30:50Z</time>
      </trkpt>
      <trkpt lat="49.68933" lon="4.78667">
        <ele>261.525</ele>
        <time>2011-01-19T10:30:52Z</time>
      </trkpt>
      <trkpt lat="49.68938" lon="4.78657">
        <ele>261.29</ele>
        <time>2011-01-19T10:30:54Z</time>
      </trkpt>
      <trkpt lat="49.68942" lon="4.78649">
        <ele>260.944</ele>
        <time>2011-01-19T10:30:56Z</time>
      </trkpt>
      <trkpt lat="49.68946" lon="4.78643">
        <ele>260.453</ele>
        <time>2011-01-19T10:30:58Z</time>
      </trkpt>
      <trkpt lat="49.68948" lon="4.7864">
        <ele>260.186</ele>
        <time>2011-01-19T10:30:59Z</time>
      </trkpt>
      <trkpt lat="49.68951" lon="4.78637">
        <ele>259.753</ele>
        <time>2011-01-19T10:31:01Z</time>
      </trkpt>
      <trkpt lat="49.68952" lon="4.78635">
        <ele>259.576</ele>
        <time>2011-01-19T10:31:02Z</time>
      </trkpt>
      <trkpt lat="49.68954" lon="4.78631">
        <ele>259.352</ele>
        <time>2011-01-19T10:31:04Z</time>
      </trkpt>
      <trkpt lat="49.68959" lon="4.78625">
        <ele>259.228</ele>
        <time>2011-01-19T10:31:06Z</time>
      </trkpt>
      <trkpt lat="49.68961" lon="4.78621">
        <ele>259.192</ele>
        <time>2011-01-19T10:31:07Z</time>
      </trkpt>
      <trkpt lat="49.68966" lon="4.78614">
        <ele>259.35</ele>
        <time>2011-01-19T10:31:09Z</time>
      </trkpt>
      <trkpt lat="49.68972" lon="4.78608">
        <ele>259.414</ele>
        <time>2011-01-19T10:31:11Z</time>
      </trkpt>
      <trkpt lat="49.68975" lon="4.78606">
        <ele>259.401</ele>
        <time>2011-01-19T10:31:12Z</time>
      </trkpt>
      <trkpt lat="49.68979" lon="4.78604">
        <ele>259.225</ele>
        <time>2011-01-19T10:31:13Z</time>
      </trkpt>
      <trkpt lat="49.68986" lon="4.786">
        <ele>258.61</ele>
        <time>2011-01-19T10:31:15Z</time>
      </trkpt>
      <trkpt lat="49.68989" lon="4.78599">
        <ele>258.259</ele>
        <time>2011-01-19T10:31:16Z</time>
      </trkpt>
      <trkpt lat="49.68995" lon="4.78596">
        <ele>257.243</ele>
        <time>2011-01-19T10:31:18Z</time>
      </trkpt>
      <trkpt lat="49.68997" lon="4.78594">
        <ele>256.52</ele>
        <time>2011-01-19T10:31:19Z</time>
      </trkpt>
      <trkpt lat="49.69001" lon="4.78592">
        <ele>255.264</ele>
        <time>2011-01-19T10:31:21Z</time>
      </trkpt>
      <trkpt lat="49.69005" lon="4.7859">
        <ele>254.371</ele>
        <time>2011-01-19T10:31:23Z</time>
      </trkpt>
      <trkpt lat="49.69007" lon="4.78589">
        <ele>254.19</ele>
        <time>2011-01-19T10:31:24Z</time>
      </trkpt>
      <trkpt lat="49.69011" lon="4.78588">
        <ele>253.957</ele>
        <time>2011-01-19T10:31:26Z</time>
      </trkpt>
      <trkpt lat="49.69017" lon="4.78586">
        <ele>253.877</ele>
        <time>2011-01-19T10:31:28Z</time>
      </trkpt>
      <trkpt lat="49.69019" lon="4.78586">
        <ele>253.834</ele>
        <time>2011-01-19T10:31:29Z</time>
      </trkpt>
      <trkpt lat="49.69025" lon="4.78584">
        <ele>253.49</ele>
        <time>2011-01-19T10:31:31Z</time>
      </trkpt>
      <trkpt lat="49.69031" lon="4.78583">
        <ele>252.72</ele>
        <time>2011-01-19T10:31:33Z</time>
      </trkpt>
      <trkpt lat="49.69033" lon="4.78583">
        <ele>252.11</ele>
        <time>2011-01-19T10:31:34Z</time>
      </trkpt>
      <trkpt lat="49.69037" lon="4.78582">
        <ele>250.76</ele>
        <time>2011-01-19T10:31:36Z</time>
      </trkpt>
      <trkpt lat="49.6904" lon="4.78581">
        <ele>250.05</ele>
        <time>2011-01-19T10:31:37Z</time>
      </trkpt>
      <trkpt lat="49.69044" lon="4.7858">
        <ele>248.57</ele>
        <time>2011-01-19T10:31:39Z</time>
      </trkpt>
      <trkpt lat="49.6905" lon="4.78576">
        <ele>247.33</ele>
        <time>2011-01-19T10:31:41Z</time>
      </trkpt>
      <trkpt lat="49.69054" lon="4.78574">
        <ele>246.87</ele>
        <time>2011-01-19T10:31:42Z</time>
      </trkpt>
      <trkpt lat="49.69064" lon="4.7857">
        <ele>246.17</ele>
        <time>2011-01-19T10:31:44Z</time>
      </trkpt>
      <trkpt lat="49.6907" lon="4.78569">
        <ele>245.9</ele>
        <time>2011-01-19T10:31:45Z</time>
      </trkpt>
      <trkpt lat="49.69081" lon="4.78569">
        <ele>244.989</ele>
        <time>2011-01-19T10:31:47Z</time>
      </trkpt>
      <trkpt lat="49.69091" lon="4.78568">
        <ele>243.767</ele>
        <time>2011-01-19T10:31:49Z</time>
      </trkpt>
      <trkpt lat="49.69101" lon="4.78565">
        <ele>242.057</ele>
        <time>2011-01-19T10:31:51Z</time>
      </trkpt>
      <trkpt lat="49.6911" lon="4.78562">
        <ele>239.756</ele>
        <time>2011-01-19T10:31:53Z</time>
      </trkpt>
      <trkpt lat="49.69118" lon="4.78559">
        <ele>237.027</ele>
        <time>2011-01-19T10:31:55Z</time>
      </trkpt>
      <trkpt lat="49.69127" lon="4.78556">
        <ele>234.58</ele>
        <time>2011-01-19T10:31:57Z</time>
      </trkpt>
      <trkpt lat="49.69135" lon="4.78552">
        <ele>232.44</ele>
        <time>2011-01-19T10:31:59Z</time>
      </trkpt>
      <trkpt lat="49.69143" lon="4.78547">
        <ele>230.31</ele>
        <time>2011-01-19T10:32:01Z</time>
      </trkpt>
      <trkpt lat="49.69147" lon="4.78544">
        <ele>229.18</ele>
        <time>2011-01-19T10:32:02Z</time>
      </trkpt>
      <trkpt lat="49.69153" lon="4.78536">
        <ele>226.398</ele>
        <time>2011-01-19T10:32:04Z</time>
      </trkpt>
      <trkpt lat="49.69156" lon="4.78532">
        <ele>225.353</ele>
        <time>2011-01-19T10:32:05Z</time>
      </trkpt>
      <trkpt lat="49.69162" lon="4.78523">
        <ele>223.325</ele>
        <time>2011-01-19T10:32:07Z</time>
      </trkpt>
      <trkpt lat="49.69164" lon="4.78517">
        <ele>222.419</ele>
        <time>2011-01-19T10:32:08Z</time>
      </trkpt>
      <trkpt lat="49.69167" lon="4.78506">
        <ele>220.701</ele>
        <time>2011-01-19T10:32:10Z</time>
      </trkpt>
      <trkpt lat="49.69169" lon="4.78493">
        <ele>219.37</ele>
        <time>2011-01-19T10:32:12Z</time>
      </trkpt>
      <trkpt lat="49.6917" lon="4.78479">
        <ele>218.03</ele>
        <time>2011-01-19T10:32:14Z</time>
      </trkpt>
      <trkpt lat="49.6917" lon="4.78465">
        <ele>216.78</ele>
        <time>2011-01-19T10:32:16Z</time>
      </trkpt>
      <trkpt lat="49.6917" lon="4.78457">
        <ele>216.23</ele>
        <time>2011-01-19T10:32:17Z</time>
      </trkpt>
      <trkpt lat="49.69169" lon="4.7845">
        <ele>215.71</ele>
        <time>2011-01-19T10:32:18Z</time>
      </trkpt>
      <trkpt lat="49.69168" lon="4.78435">
        <ele>214.82</ele>
        <time>2011-01-19T10:32:20Z</time>
      </trkpt>
      <trkpt lat="49.69167" lon="4.78428">
        <ele>214.43</ele>
        <time>2011-01-19T10:32:21Z</time>
      </trkpt>
      <trkpt lat="49.69166" lon="4.78413">
        <ele>213.5</ele>
        <time>2011-01-19T10:32:23Z</time>
      </trkpt>
      <trkpt lat="49.69165" lon="4.78397">
        <ele>212.43</ele>
        <time>2011-01-19T10:32:25Z</time>
      </trkpt>
      <trkpt lat="49.69164" lon="4.78388">
        <ele>211.92</ele>
        <time>2011-01-19T10:32:26Z</time>
      </trkpt>
      <trkpt lat="49.69164" lon="4.7838">
        <ele>211.41</ele>
        <time>2011-01-19T10:32:27Z</time>
      </trkpt>
      <trkpt lat="49.69163" lon="4.78371">
        <ele>210.88</ele>
        <time>2011-01-19T10:32:28Z</time>
      </trkpt>
      <trkpt lat="49.69161" lon="4.78353">
        <ele>209.84</ele>
        <time>2011-01-19T10:32:30Z</time>
      </trkpt>
      <trkpt lat="49.69161" lon="4.78344">
        <ele>209.29</ele>
        <time>2011-01-19T10:32:31Z</time>
      </trkpt>
      <trkpt lat="49.69159" lon="4.78325">
        <ele>208.25</ele>
        <time>2011-01-19T10:32:33Z</time>
      </trkpt>
      <trkpt lat="49.69159" lon="4.78315">
        <ele>207.78</ele>
        <time>2011-01-19T10:32:34Z</time>
      </trkpt>
      <trkpt lat="49.69158" lon="4.78297">
        <ele>206.77</ele>
        <time>2011-01-19T10:32:36Z</time>
      </trkpt>
      <trkpt lat="49.69159" lon="4.78278">
        <ele>205.65</ele>
        <time>2011-01-19T10:32:38Z</time>
      </trkpt>
      <trkpt lat="49.69159" lon="4.7827">
        <ele>205.01</ele>
        <time>2011-01-19T10:32:39Z</time>
      </trkpt>
      <trkpt lat="49.6916" lon="4.78252">
        <ele>203.71</ele>
        <time>2011-01-19T10:32:41Z</time>
      </trkpt>
      <trkpt lat="49.69162" lon="4.78235">
        <ele>202.47</ele>
        <time>2011-01-19T10:32:43Z</time>
      </trkpt>
      <trkpt lat="49.69162" lon="4.78226">
        <ele>201.88</ele>
        <time>2011-01-19T10:32:44Z</time>
      </trkpt>
      <trkpt lat="49.69164" lon="4.78208">
        <ele>200.81</ele>
        <time>2011-01-19T10:32:46Z</time>
      </trkpt>
      <trkpt lat="49.69165" lon="4.78192">
        <ele>200.02</ele>
        <time>2011-01-19T10:32:48Z</time>
      </trkpt>
      <trkpt lat="49.69165" lon="4.78184">
        <ele>199.68</ele>
        <time>2011-01-19T10:32:49Z</time>
      </trkpt>
      <trkpt lat="49.69166" lon="4.78168">
        <ele>198.93</ele>
        <time>2011-01-19T10:32:51Z</time>
      </trkpt>
      <trkpt lat="49.69167" lon="4.78151">
        <ele>198.07</ele>
        <time>2011-01-19T10:32:53Z</time>
      </trkpt>
      <trkpt lat="49.69167" lon="4.78137">
        <ele>197.2</ele>
        <time>2011-01-19T10:32:54Z</time>
      </trkpt>
      <trkpt lat="49.69167" lon="4.78123">
        <ele>196.24</ele>
        <time>2011-01-19T10:32:56Z</time>
      </trkpt>
      <trkpt lat="49.69168" lon="4.7811">
        <ele>195.47</ele>
        <time>2011-01-19T10:32:58Z</time>
      </trkpt>
      <trkpt lat="49.69172" lon="4.781">
        <ele>194.769</ele>
        <time>2011-01-19T10:32:59Z</time>
      </trkpt>
      <trkpt lat="49.69181" lon="4.78092">
        <ele>194.299</ele>
        <time>2011-01-19T10:33:01Z</time>
      </trkpt>
      <trkpt lat="49.69186" lon="4.78089">
        <ele>194.047</ele>
        <time>2011-01-19T10:33:02Z</time>
      </trkpt>
      <trkpt lat="49.69197" lon="4.78086">
        <ele>193.485</ele>
        <time>2011-01-19T10:33:04Z</time>
      </trkpt>
      <trkpt lat="49.69202" lon="4.78084">
        <ele>193.098</ele>
        <time>2011-01-19T10:33:05Z</time>
      </trkpt>
      <trkpt lat="49.69213" lon="4.78077">
        <ele>192.152</ele>
        <time>2011-01-19T10:33:07Z</time>
      </trkpt>
      <trkpt lat="49.69226" lon="4.78069">
        <ele>190.534</ele>
        <time>2011-01-19T10:33:09Z</time>
      </trkpt>
      <trkpt lat="49.6924" lon="4.7806">
        <ele>189.258</ele>
        <time>2011-01-19T10:33:11Z</time>
      </trkpt>
      <trkpt lat="49.69246" lon="4.78056">
        <ele>188.582</ele>
        <time>2011-01-19T10:33:12Z</time>
      </trkpt>
      <trkpt lat="49.69259" lon="4.78046">
        <ele>187.619</ele>
        <time>2011-01-19T10:33:14Z</time>
      </trkpt>
      <trkpt lat="49.69273" lon="4.78037">
        <ele>187.012</ele>
        <time>2011-01-19T10:33:16Z</time>
      </trkpt>
      <trkpt lat="49.69287" lon="4.7803">
        <ele>186.696</ele>
        <time>2011-01-19T10:33:18Z</time>
      </trkpt>
      <trkpt lat="49.693" lon="4.78024">
        <ele>186.5</ele>
        <time>2011-01-19T10:33:20Z</time>
      </trkpt>
      <trkpt lat="49.69314" lon="4.78017">
        <ele>186.3</ele>
        <time>2011-01-19T10:33:22Z</time>
      </trkpt>
      <trkpt lat="49.69321" lon="4.78013">
        <ele>186.17</ele>
        <time>2011-01-19T10:33:23Z</time>
      </trkpt>
      <trkpt lat="49.69328" lon="4.7801">
        <ele>185.99</ele>
        <time>2011-01-19T10:33:24Z</time>
      </trkpt>
      <trkpt lat="49.69342" lon="4.78005">
        <ele>185.32</ele>
        <time>2011-01-19T10:33:26Z</time>
      </trkpt>
      <trkpt lat="49.69356" lon="4.78003">
        <ele>184.51</ele>
        <time>2011-01-19T10:33:28Z</time>
      </trkpt>
      <trkpt lat="49.69372" lon="4.78004">
        <ele>183.26</ele>
        <time>2011-01-19T10:33:30Z</time>
      </trkpt>
      <trkpt lat="49.69389" lon="4.78004">
        <ele>181.91</ele>
        <time>2011-01-19T10:33:32Z</time>
      </trkpt>
      <trkpt lat="49.69408" lon="4.78004">
        <ele>180.19</ele>
        <time>2011-01-19T10:33:34Z</time>
      </trkpt>
      <trkpt lat="49.69426" lon="4.78004">
        <ele>178.3</ele>
        <time>2011-01-19T10:33:36Z</time>
      </trkpt>
      <trkpt lat="49.69445" lon="4.78002">
        <ele>176.54</ele>
        <time>2011-01-19T10:33:38Z</time>
      </trkpt>
      <trkpt lat="49.69453" lon="4.78002">
        <ele>175.88</ele>
        <time>2011-01-19T10:33:39Z</time>
      </trkpt>
      <trkpt lat="49.69469" lon="4.78002">
        <ele>174.75</ele>
        <time>2011-01-19T10:33:41Z</time>
      </trkpt>
      <trkpt lat="49.69476" lon="4.78003">
        <ele>174.25</ele>
        <time>2011-01-19T10:33:42Z</time>
      </trkpt>
      <trkpt lat="49.69491" lon="4.78004">
        <ele>173.469</ele>
        <time>2011-01-19T10:33:44Z</time>
      </trkpt>
      <trkpt lat="49.69506" lon="4.78001">
        <ele>172.802</ele>
        <time>2011-01-19T10:33:46Z</time>
      </trkpt>
      <trkpt lat="49.6952" lon="4.77992">
        <ele>172.002</ele>
        <time>2011-01-19T10:33:48Z</time>
      </trkpt>
      <trkpt lat="49.69531" lon="4.7798">
        <ele>171.191</ele>
        <time>2011-01-19T10:33:50Z</time>
      </trkpt>
      <trkpt lat="49.69541" lon="4.77965">
        <ele>170.487</ele>
        <time>2011-01-19T10:33:52Z</time>
      </trkpt>
      <trkpt lat="49.69551" lon="4.7795">
        <ele>169.822</ele>
        <time>2011-01-19T10:33:54Z</time>
      </trkpt>
      <trkpt lat="49.69562" lon="4.77936">
        <ele>168.986</ele>
        <time>2011-01-19T10:33:56Z</time>
      </trkpt>
      <trkpt lat="49.69574" lon="4.77919">
        <ele>168.102</ele>
        <time>2011-01-19T10:33:58Z</time>
      </trkpt>
      <trkpt lat="49.69585" lon="4.77904">
        <ele>167.075</ele>
        <time>2011-01-19T10:34:00Z</time>
      </trkpt>
      <trkpt lat="49.69598" lon="4.77891">
        <ele>165.484</ele>
        <time>2011-01-19T10:34:02Z</time>
      </trkpt>
      <trkpt lat="49.6961" lon="4.77879">
        <ele>163.882</ele>
        <time>2011-01-19T10:34:04Z</time>
      </trkpt>
      <trkpt lat="49.69615" lon="4.77873">
        <ele>163.195</ele>
        <time>2011-01-19T10:34:05Z</time>
      </trkpt>
      <trkpt lat="49.6962" lon="4.77867">
        <ele>162.496</ele>
        <time>2011-01-19T10:34:06Z</time>
      </trkpt>
      <trkpt lat="49.69631" lon="4.77855">
        <ele>161.113</ele>
        <time>2011-01-19T10:34:08Z</time>
      </trkpt>
      <trkpt lat="49.69642" lon="4.77843">
        <ele>159.716</ele>
        <time>2011-01-19T10:34:10Z</time>
      </trkpt>
      <trkpt lat="49.69654" lon="4.77832">
        <ele>158.232</ele>
        <time>2011-01-19T10:34:12Z</time>
      </trkpt>
      <trkpt lat="49.69667" lon="4.77824">
        <ele>156.665</ele>
        <time>2011-01-19T10:34:14Z</time>
      </trkpt>
      <trkpt lat="49.69673" lon="4.7782">
        <ele>155.999</ele>
        <time>2011-01-19T10:34:15Z</time>
      </trkpt>
      <trkpt lat="49.69678" lon="4.77818">
        <ele>155.295</ele>
        <time>2011-01-19T10:34:16Z</time>
      </trkpt>
      <trkpt lat="49.69685" lon="4.77814">
        <ele>154.138</ele>
        <time>2011-01-19T10:34:18Z</time>
      </trkpt>
      <trkpt lat="49.69687" lon="4.77812">
        <ele>153.745</ele>
        <time>2011-01-19T10:34:19Z</time>
      </trkpt>
      <trkpt lat="49.69687" lon="4.77809">
        <ele>153.457</ele>
        <time>2011-01-19T10:34:20Z</time>
      </trkpt>
      <trkpt lat="49.69685" lon="4.77801">
        <ele>153.187</ele>
        <time>2011-01-19T10:34:22Z</time>
      </trkpt>
      <trkpt lat="49.69682" lon="4.77788">
        <ele>152.905</ele>
        <time>2011-01-19T10:34:24Z</time>
      </trkpt>
      <trkpt lat="49.69681" lon="4.77781">
        <ele>152.783</ele>
        <time>2011-01-19T10:34:25Z</time>
      </trkpt>
      <trkpt lat="49.69677" lon="4.77766">
        <ele>152.77</ele>
        <time>2011-01-19T10:34:27Z</time>
      </trkpt>
      <trkpt lat="49.69673" lon="4.77753">
        <ele>152.815</ele>
        <time>2011-01-19T10:34:29Z</time>
      </trkpt>
      <trkpt lat="49.69671" lon="4.77747">
        <ele>152.735</ele>
        <time>2011-01-19T10:34:30Z</time>
      </trkpt>
      <trkpt lat="49.6967" lon="4.77735">
        <ele>152.305</ele>
        <time>2011-01-19T10:34:32Z</time>
      </trkpt>
      <trkpt lat="49.69675" lon="4.77718">
        <ele>151.54</ele>
        <time>2011-01-19T10:34:34Z</time>
      </trkpt>
      <trkpt lat="49.69683" lon="4.77698">
        <ele>150.94</ele>
        <time>2011-01-19T10:34:36Z</time>
      </trkpt>
      <trkpt lat="49.69687" lon="4.77689">
        <ele>150.58</ele>
        <time>2011-01-19T10:34:37Z</time>
      </trkpt>
      <trkpt lat="49.69693" lon="4.77674">
        <ele>149.952</ele>
        <time>2011-01-19T10:34:39Z</time>
      </trkpt>
      <trkpt lat="49.69699" lon="4.77659">
        <ele>149.514</ele>
        <time>2011-01-19T10:34:41Z</time>
      </trkpt>
      <trkpt lat="49.69706" lon="4.77643">
        <ele>149.645</ele>
        <time>2011-01-19T10:34:43Z</time>
      </trkpt>
      <trkpt lat="49.69714" lon="4.77627">
        <ele>149.685</ele>
        <time>2011-01-19T10:34:45Z</time>
      </trkpt>
      <trkpt lat="49.69716" lon="4.7762">
        <ele>149.583</ele>
        <time>2011-01-19T10:34:46Z</time>
      </trkpt>
      <trkpt lat="49.69718" lon="4.77615">
        <ele>149.481</ele>
        <time>2011-01-19T10:34:47Z</time>
      </trkpt>
      <trkpt lat="49.6972" lon="4.77607">
        <ele>149.35</ele>
        <time>2011-01-19T10:34:49Z</time>
      </trkpt>
      <trkpt lat="49.6972" lon="4.77603">
        <ele>149.309</ele>
        <time>2011-01-19T10:34:50Z</time>
      </trkpt>
      <trkpt lat="49.69721" lon="4.776">
        <ele>149.233</ele>
        <time>2011-01-19T10:34:51Z</time>
      </trkpt>
      <trkpt lat="49.69722" lon="4.77596">
        <ele>149.111</ele>
        <time>2011-01-19T10:34:53Z</time>
      </trkpt>
      <trkpt lat="49.69722" lon="4.77596">
        <ele>149.487</ele>
        <time>2011-01-19T10:34:55Z</time>
      </trkpt>
      <trkpt lat="49.69723" lon="4.77596">
        <ele>149.775</ele>
        <time>2011-01-19T10:34:56Z</time>
      </trkpt>
      <trkpt lat="49.69723" lon="4.77597">
        <ele>150.288</ele>
        <time>2011-01-19T10:34:58Z</time>
      </trkpt>
      <trkpt lat="49.69725" lon="4.77595">
        <ele>150.745</ele>
        <time>2011-01-19T10:35:00Z</time>
      </trkpt>
      <trkpt lat="49.69726" lon="4.77591">
        <ele>150.987</ele>
        <time>2011-01-19T10:35:02Z</time>
      </trkpt>
      <trkpt lat="49.69725" lon="4.77589">
        <ele>150.994</ele>
        <time>2011-01-19T10:35:03Z</time>
      </trkpt>
      <trkpt lat="49.69723" lon="4.77585">
        <ele>150.777</ele>
        <time>2011-01-19T10:35:05Z</time>
      </trkpt>
      <trkpt lat="49.69721" lon="4.77583">
        <ele>150.645</ele>
        <time>2011-01-19T10:35:06Z</time>
      </trkpt>
      <trkpt lat="49.69714" lon="4.77579">
        <ele>150.675</ele>
        <time>2011-01-19T10:35:07Z</time>
      </trkpt>
      <trkpt lat="49.6971" lon="4.77576">
        <ele>150.72</ele>
        <time>2011-01-19T10:35:08Z</time>
      </trkpt>
      <trkpt lat="49.69703" lon="4.7757">
        <ele>150.66</ele>
        <time>2011-01-19T10:35:10Z</time>
      </trkpt>
      <trkpt lat="49.69694" lon="4.77565">
        <ele>150.86</ele>
        <time>2011-01-19T10:35:12Z</time>
      </trkpt>
      <trkpt lat="49.69688" lon="4.77562">
        <ele>150.913</ele>
        <time>2011-01-19T10:35:13Z</time>
      </trkpt>
      <trkpt lat="49.69675" lon="4.77557">
        <ele>151.164</ele>
        <time>2011-01-19T10:35:15Z</time>
      </trkpt>
      <trkpt lat="49.69668" lon="4.77554">
        <ele>151.2</ele>
        <time>2011-01-19T10:35:16Z</time>
      </trkpt>
      <trkpt lat="49.69656" lon="4.77546">
        <ele>150.914</ele>
        <time>2011-01-19T10:35:18Z</time>
      </trkpt>
      <trkpt lat="49.69646" lon="4.77537">
        <ele>150.578</ele>
        <time>2011-01-19T10:35:20Z</time>
      </trkpt>
      <trkpt lat="49.69641" lon="4.77533">
        <ele>150.376</ele>
        <time>2011-01-19T10:35:21Z</time>
      </trkpt>
      <trkpt lat="49.69629" lon="4.77526">
        <ele>150.342</ele>
        <time>2011-01-19T10:35:23Z</time>
      </trkpt>
      <trkpt lat="49.69623" lon="4.77522">
        <ele>150.333</ele>
        <time>2011-01-19T10:35:24Z</time>
      </trkpt>
      <trkpt lat="49.69616" lon="4.77519">
        <ele>150.528</ele>
        <time>2011-01-19T10:35:25Z</time>
      </trkpt>
      <trkpt lat="49.69604" lon="4.77512">
        <ele>151.078</ele>
        <time>2011-01-19T10:35:27Z</time>
      </trkpt>
      <trkpt lat="49.69591" lon="4.77506">
        <ele>151.618</ele>
        <time>2011-01-19T10:35:29Z</time>
      </trkpt>
      <trkpt lat="49.69584" lon="4.77503">
        <ele>151.78</ele>
        <time>2011-01-19T10:35:30Z</time>
      </trkpt>
      <trkpt lat="49.69577" lon="4.775">
        <ele>151.96</ele>
        <time>2011-01-19T10:35:31Z</time>
      </trkpt>
      <trkpt lat="49.6957" lon="4.77496">
        <ele>152.22</ele>
        <time>2011-01-19T10:35:32Z</time>
      </trkpt>
      <trkpt lat="49.69562" lon="4.77492">
        <ele>152.868</ele>
        <time>2011-01-19T10:35:33Z</time>
      </trkpt>
      <trkpt lat="49.6955" lon="4.77485">
        <ele>153.966</ele>
        <time>2011-01-19T10:35:35Z</time>
      </trkpt>
      <trkpt lat="49.69542" lon="4.77481">
        <ele>154.739</ele>
        <time>2011-01-19T10:35:37Z</time>
      </trkpt>
      <trkpt lat="49.69538" lon="4.7748">
        <ele>155.127</ele>
        <time>2011-01-19T10:35:38Z</time>
      </trkpt>
      <trkpt lat="49.69534" lon="4.77478">
        <ele>155.563</ele>
        <time>2011-01-19T10:35:39Z</time>
      </trkpt>
      <trkpt lat="49.69528" lon="4.77474">
        <ele>156.365</ele>
        <time>2011-01-19T10:35:41Z</time>
      </trkpt>
      <trkpt lat="49.69526" lon="4.77471">
        <ele>156.7</ele>
        <time>2011-01-19T10:35:42Z</time>
      </trkpt>
      <trkpt lat="49.69521" lon="4.77464">
        <ele>157.66</ele>
        <time>2011-01-19T10:35:44Z</time>
      </trkpt>
      <trkpt lat="49.69519" lon="4.77461">
        <ele>158.12</ele>
        <time>2011-01-19T10:35:45Z</time>
      </trkpt>
      <trkpt lat="49.69514" lon="4.77457">
        <ele>158.99</ele>
        <time>2011-01-19T10:35:47Z</time>
      </trkpt>
      <trkpt lat="49.69509" lon="4.77454">
        <ele>159.79</ele>
        <time>2011-01-19T10:35:49Z</time>
      </trkpt>
      <trkpt lat="49.69506" lon="4.77453">
        <ele>160.12</ele>
        <time>2011-01-19T10:35:50Z</time>
      </trkpt>
      <trkpt lat="49.69502" lon="4.7745">
        <ele>160.41</ele>
        <time>2011-01-19T10:35:51Z</time>
      </trkpt>
      <trkpt lat="49.69495" lon="4.77442">
        <ele>161.08</ele>
        <time>2011-01-19T10:35:53Z</time>
      </trkpt>
      <trkpt lat="49.69491" lon="4.77438">
        <ele>161.15</ele>
        <time>2011-01-19T10:35:54Z</time>
      </trkpt>
      <trkpt lat="49.69483" lon="4.77431">
        <ele>161.242</ele>
        <time>2011-01-19T10:35:56Z</time>
      </trkpt>
      <trkpt lat="49.69478" lon="4.77428">
        <ele>161.322</ele>
        <time>2011-01-19T10:35:57Z</time>
      </trkpt>
      <trkpt lat="49.69469" lon="4.77422">
        <ele>161.419</ele>
        <time>2011-01-19T10:35:59Z</time>
      </trkpt>
      <trkpt lat="49.6946" lon="4.77416">
        <ele>161.155</ele>
        <time>2011-01-19T10:36:01Z</time>
      </trkpt>
      <trkpt lat="49.69452" lon="4.77409">
        <ele>160.328</ele>
        <time>2011-01-19T10:36:03Z</time>
      </trkpt>
      <trkpt lat="49.69449" lon="4.77405">
        <ele>160.14</ele>
        <time>2011-01-19T10:36:04Z</time>
      </trkpt>
      <trkpt lat="49.69445" lon="4.77401">
        <ele>160.14</ele>
        <time>2011-01-19T10:36:05Z</time>
      </trkpt>
      <trkpt lat="49.69438" lon="4.77391">
        <ele>160.33</ele>
        <time>2011-01-19T10:36:07Z</time>
      </trkpt>
      <trkpt lat="49.69435" lon="4.77388">
        <ele>160.37</ele>
        <time>2011-01-19T10:36:08Z</time>
      </trkpt>
      <trkpt lat="49.69427" lon="4.77381">
        <ele>160.69</ele>
        <time>2011-01-19T10:36:10Z</time>
      </trkpt>
      <trkpt lat="49.69418" lon="4.77373">
        <ele>161.1</ele>
        <time>2011-01-19T10:36:12Z</time>
      </trkpt>
      <trkpt lat="49.69414" lon="4.77369">
        <ele>161.17</ele>
        <time>2011-01-19T10:36:13Z</time>
      </trkpt>
      <trkpt lat="49.69405" lon="4.77359">
        <ele>161.27</ele>
        <time>2011-01-19T10:36:15Z</time>
      </trkpt>
      <trkpt lat="49.69397" lon="4.7735">
        <ele>161.46</ele>
        <time>2011-01-19T10:36:17Z</time>
      </trkpt>
      <trkpt lat="49.69389" lon="4.77341">
        <ele>161.69</ele>
        <time>2011-01-19T10:36:19Z</time>
      </trkpt>
      <trkpt lat="49.69385" lon="4.77338">
        <ele>161.8</ele>
        <time>2011-01-19T10:36:20Z</time>
      </trkpt>
      <trkpt lat="49.69378" lon="4.77329">
        <ele>162.31</ele>
        <time>2011-01-19T10:36:22Z</time>
      </trkpt>
      <trkpt lat="49.69371" lon="4.77318">
        <ele>163.14</ele>
        <time>2011-01-19T10:36:24Z</time>
      </trkpt>
      <trkpt lat="49.69368" lon="4.77311">
        <ele>163.61</ele>
        <time>2011-01-19T10:36:25Z</time>
      </trkpt>
      <trkpt lat="49.69365" lon="4.77304">
        <ele>164.01</ele>
        <time>2011-01-19T10:36:26Z</time>
      </trkpt>
      <trkpt lat="49.69358" lon="4.77291">
        <ele>164.61</ele>
        <time>2011-01-19T10:36:28Z</time>
      </trkpt>
      <trkpt lat="49.69352" lon="4.77281">
        <ele>165.2</ele>
        <time>2011-01-19T10:36:30Z</time>
      </trkpt>
      <trkpt lat="49.69345" lon="4.77271">
        <ele>165.66</ele>
        <time>2011-01-19T10:36:32Z</time>
      </trkpt>
      <trkpt lat="49.69342" lon="4.77265">
        <ele>165.72</ele>
        <time>2011-01-19T10:36:33Z</time>
      </trkpt>
      <trkpt lat="49.69335" lon="4.77254">
        <ele>165.47</ele>
        <time>2011-01-19T10:36:35Z</time>
      </trkpt>
      <trkpt lat="49.69328" lon="4.77242">
        <ele>165.01</ele>
        <time>2011-01-19T10:36:37Z</time>
      </trkpt>
      <trkpt lat="49.69321" lon="4.77232">
        <ele>164.58</ele>
        <time>2011-01-19T10:36:39Z</time>
      </trkpt>
      <trkpt lat="49.69315" lon="4.77224">
        <ele>164.12</ele>
        <time>2011-01-19T10:36:41Z</time>
      </trkpt>
      <trkpt lat="49.69312" lon="4.77221">
        <ele>163.92</ele>
        <time>2011-01-19T10:36:42Z</time>
      </trkpt>
      <trkpt lat="49.69309" lon="4.77217">
        <ele>163.61</ele>
        <time>2011-01-19T10:36:44Z</time>
      </trkpt>
      <trkpt lat="49.69308" lon="4.77217">
        <ele>163.51</ele>
        <time>2011-01-19T10:36:45Z</time>
      </trkpt>
      <trkpt lat="49.69308" lon="4.77217">
        <ele>163.13</ele>
        <time>2011-01-19T10:36:47Z</time>
      </trkpt>
      <trkpt lat="49.69309" lon="4.77218">
        <ele>162.94</ele>
        <time>2011-01-19T10:36:48Z</time>
      </trkpt>
      <trkpt lat="49.69309" lon="4.77217">
        <ele>162.76</ele>
        <time>2011-01-19T10:36:49Z</time>
      </trkpt>
      <trkpt lat="49.69309" lon="4.77216">
        <ele>162.12</ele>
        <time>2011-01-19T10:36:51Z</time>
      </trkpt>
      <trkpt lat="49.69307" lon="4.77214">
        <ele>161.217</ele>
        <time>2011-01-19T10:36:53Z</time>
      </trkpt>
      <trkpt lat="49.69303" lon="4.77213">
        <ele>159.917</ele>
        <time>2011-01-19T10:36:55Z</time>
      </trkpt>
      <trkpt lat="49.693" lon="4.77212">
        <ele>158.25</ele>
        <time>2011-01-19T10:36:57Z</time>
      </trkpt>
      <trkpt lat="49.69299" lon="4.77213">
        <ele>156.009</ele>
        <time>2011-01-19T10:36:59Z</time>
      </trkpt>
      <trkpt lat="49.69299" lon="4.77216">
        <ele>153.31</ele>
        <time>2011-01-19T10:37:01Z</time>
      </trkpt>
      <trkpt lat="49.693" lon="4.77219">
        <ele>152.42</ele>
        <time>2011-01-19T10:37:02Z</time>
      </trkpt>
      <trkpt lat="49.69301" lon="4.77223">
        <ele>150.69</ele>
        <time>2011-01-19T10:37:04Z</time>
      </trkpt>
      <trkpt lat="49.69302" lon="4.77222">
        <ele>149.86</ele>
        <time>2011-01-19T10:37:05Z</time>
      </trkpt>
      <trkpt lat="49.69301" lon="4.77219">
        <ele>148.45</ele>
        <time>2011-01-19T10:37:07Z</time>
      </trkpt>
      <trkpt lat="49.693" lon="4.77215">
        <ele>147.26</ele>
        <time>2011-01-19T10:37:09Z</time>
      </trkpt>
      <trkpt lat="49.693" lon="4.77214">
        <ele>146.86</ele>
        <time>2011-01-19T10:37:10Z</time>
      </trkpt>
      <trkpt lat="49.693" lon="4.77214">
        <ele>146.88</ele>
        <time>2011-01-19T10:37:11Z</time>
      </trkpt>
      <trkpt lat="49.693" lon="4.77214">
        <ele>147.39</ele>
        <time>2011-01-19T10:37:13Z</time>
      </trkpt>
      <trkpt lat="49.693" lon="4.77215">
        <ele>148.07</ele>
        <time>2011-01-19T10:37:15Z</time>
      </trkpt>
      <trkpt lat="49.693" lon="4.77217">
        <ele>148.607</ele>
        <time>2011-01-19T10:37:17Z</time>
      </trkpt>
      <trkpt lat="49.693" lon="4.77217">
        <ele>148.812</ele>
        <time>2011-01-19T10:37:18Z</time>
      </trkpt>
      <trkpt lat="49.69299" lon="4.77217">
        <ele>148.895</ele>
        <time>2011-01-19T10:37:20Z</time>
      </trkpt>
      <trkpt lat="49.69299" lon="4.77217">
        <ele>148.728</ele>
        <time>2011-01-19T10:37:21Z</time>
      </trkpt>
      <trkpt lat="49.69298" lon="4.77216">
        <ele>148.17</ele>
        <time>2011-01-19T10:37:23Z</time>
      </trkpt>
      <trkpt lat="49.69298" lon="4.77216">
        <ele>147.852</ele>
        <time>2011-01-19T10:37:25Z</time>
      </trkpt>
      <trkpt lat="49.69298" lon="4.77215">
        <ele>147.693</ele>
        <time>2011-01-19T10:37:27Z</time>
      </trkpt>
      <trkpt lat="49.69298" lon="4.77215">
        <ele>147.644</ele>
        <time>2011-01-19T10:37:29Z</time>
      </trkpt>
      <trkpt lat="49.69298" lon="4.77215">
        <ele>147.64</ele>
        <time>2011-01-19T10:37:31Z</time>
      </trkpt>
      <trkpt lat="49.69298" lon="4.77215">
        <ele>147.602</ele>
        <time>2011-01-19T10:37:33Z</time>
      </trkpt>
      <trkpt lat="49.69298" lon="4.77215">
        <ele>147.585</ele>
        <time>2011-01-19T10:37:34Z</time>
      </trkpt>
      <trkpt lat="49.69298" lon="4.77215">
        <ele>147.55</ele>
        <time>2011-01-19T10:37:36Z</time>
      </trkpt>
      <trkpt lat="49.69298" lon="4.77215">
        <ele>147.52</ele>
        <time>2011-01-19T10:37:38Z</time>
      </trkpt>
      <trkpt lat="49.69298" lon="4.77215">
        <ele>147.478</ele>
        <time>2011-01-19T10:37:40Z</time>
      </trkpt>
      <trkpt lat="49.69298" lon="4.77215">
        <ele>147.449</ele>
        <time>2011-01-19T10:37:41Z</time>
      </trkpt>
      <trkpt lat="49.69298" lon="4.77215">
        <ele>147.404</ele>
        <time>2011-01-19T10:37:43Z</time>
      </trkpt>
      <trkpt lat="49.69298" lon="4.77215">
        <ele>147.337</ele>
        <time>2011-01-19T10:37:45Z</time>
      </trkpt>
      <trkpt lat="49.69298" lon="4.77215">
        <ele>147.296</ele>
        <time>2011-01-19T10:37:46Z</time>
      </trkpt>
      <trkpt lat="49.69298" lon="4.77215">
        <ele>147.276</ele>
        <time>2011-01-19T10:37:47Z</time>
      </trkpt>
      <trkpt lat="49.69298" lon="4.77215">
        <ele>147.243</ele>
        <time>2011-01-19T10:37:49Z</time>
      </trkpt>
      <trkpt lat="49.69298" lon="4.77215">
        <ele>147.234</ele>
        <time>2011-01-19T10:37:50Z</time>
      </trkpt>
      <trkpt lat="49.69298" lon="4.77215">
        <ele>147.222</ele>
        <time>2011-01-19T10:37:52Z</time>
      </trkpt>
      <trkpt lat="49.69298" lon="4.77215">
        <ele>147.186</ele>
        <time>2011-01-19T10:37:54Z</time>
      </trkpt>
      <trkpt lat="49.69298" lon="4.77215">
        <ele>147.178</ele>
        <time>2011-01-19T10:37:55Z</time>
      </trkpt>
      <trkpt lat="49.69298" lon="4.77215">
        <ele>147.156</ele>
        <time>2011-01-19T10:37:57Z</time>
      </trkpt>
      <trkpt lat="49.69298" lon="4.77215">
        <ele>147.142</ele>
        <time>2011-01-19T10:37:58Z</time>
      </trkpt>
      <trkpt lat="49.69298" lon="4.77215">
        <ele>147.088</ele>
        <time>2011-01-19T10:38:00Z</time>
      </trkpt>
      <trkpt lat="49.69298" lon="4.77215">
        <ele>147.052</ele>
        <time>2011-01-19T10:38:02Z</time>
      </trkpt>
      <trkpt lat="49.69298" lon="4.77215">
        <ele>147.006</ele>
        <time>2011-01-19T10:38:04Z</time>
      </trkpt>
      <trkpt lat="49.69298" lon="4.77215">
        <ele>146.972</ele>
        <time>2011-01-19T10:38:06Z</time>
      </trkpt>
      <trkpt lat="49.69298" lon="4.77215">
        <ele>146.923</ele>
        <time>2011-01-19T10:38:08Z</time>
      </trkpt>
      <trkpt lat="49.69298" lon="4.77215">
        <ele>146.904</ele>
        <time>2011-01-19T10:38:09Z</time>
      </trkpt>
      <trkpt lat="49.69298" lon="4.77215">
        <ele>146.869</ele>
        <time>2011-01-19T10:38:11Z</time>
      </trkpt>
      <trkpt lat="49.69298" lon="4.77215">
        <ele>146.852</ele>
        <time>2011-01-19T10:38:12Z</time>
      </trkpt>
      <trkpt lat="49.69298" lon="4.77215">
        <ele>146.833</ele>
        <time>2011-01-19T10:38:14Z</time>
      </trkpt>
      <trkpt lat="49.69298" lon="4.77215">
        <ele>146.823</ele>
        <time>2011-01-19T10:38:15Z</time>
      </trkpt>
      <trkpt lat="49.69298" lon="4.77215">
        <ele>146.8</ele>
        <time>2011-01-19T10:38:17Z</time>
      </trkpt>
      <trkpt lat="49.69298" lon="4.77215">
        <ele>146.8</ele>
        <time>2011-01-19T10:38:18Z</time>
      </trkpt>
      <trkpt lat="49.69298" lon="4.77215">
        <ele>146.8</ele>
        <time>2011-01-19T10:38:20Z</time>
      </trkpt>
      <trkpt lat="49.69298" lon="4.77215">
        <ele>146.8</ele>
        <time>2011-01-19T10:38:21Z</time>
      </trkpt>
      <trkpt lat="49.69298" lon="4.77215">
        <ele>146.8</ele>
        <time>2011-01-19T10:38:23Z</time>
      </trkpt>
      <trkpt lat="49.69298" lon="4.77215">
        <ele>146.8</ele>
        <time>2011-01-19T10:38:24Z</time>
      </trkpt>
      <trkpt lat="49.69298" lon="4.77215">
        <ele>146.8</ele>
        <time>2011-01-19T10:38:25Z</time>
      </trkpt>
      <trkpt lat="49.69298" lon="4.77215">
        <ele>146.8</ele>
        <time>2011-01-19T10:38:27Z</time>
      </trkpt>
      <trkpt lat="49.69298" lon="4.77215">
        <ele>146.8</ele>
        <time>2011-01-19T10:38:29Z</time>
      </trkpt>
      <trkpt lat="49.69298" lon="4.77215">
        <ele>146.8</ele>
        <time>2011-01-19T10:38:31Z</time>
      </trkpt>
      <trkpt lat="49.69298" lon="4.77215">
        <ele>146.788</ele>
        <time>2011-01-19T10:38:32Z</time>
      </trkpt>
      <trkpt lat="49.69298" lon="4.77215">
        <ele>146.777</ele>
        <time>2011-01-19T10:38:33Z</time>
      </trkpt>
      <trkpt lat="49.69298" lon="4.77215">
        <ele>146.767</ele>
        <time>2011-01-19T10:38:35Z</time>
      </trkpt>
      <trkpt lat="49.69298" lon="4.77215">
        <ele>146.766</ele>
        <time>2011-01-19T10:38:37Z</time>
      </trkpt>
      <trkpt lat="49.69298" lon="4.77215">
        <ele>146.764</ele>
        <time>2011-01-19T10:38:38Z</time>
      </trkpt>
      <trkpt lat="49.69298" lon="4.77213">
        <ele>147.005</ele>
        <time>2011-01-19T10:38:40Z</time>
      </trkpt>
      <trkpt lat="49.69296" lon="4.77211">
        <ele>147.391</ele>
        <time>2011-01-19T10:38:41Z</time>
      </trkpt>
      <trkpt lat="49.69294" lon="4.77208">
        <ele>148.26</ele>
        <time>2011-01-19T10:38:43Z</time>
      </trkpt>
      <trkpt lat="49.69291" lon="4.77207">
        <ele>149.283</ele>
        <time>2011-01-19T10:38:45Z</time>
      </trkpt>
      <trkpt lat="49.69287" lon="4.77206">
        <ele>150.51</ele>
        <time>2011-01-19T10:38:47Z</time>
      </trkpt>
      <trkpt lat="49.69284" lon="4.77206">
        <ele>151.13</ele>
        <time>2011-01-19T10:38:48Z</time>
      </trkpt>
      <trkpt lat="49.69278" lon="4.77204">
        <ele>152.097</ele>
        <time>2011-01-19T10:38:50Z</time>
      </trkpt>
      <trkpt lat="49.69275" lon="4.77203">
        <ele>152.462</ele>
        <time>2011-01-19T10:38:51Z</time>
      </trkpt>
      <trkpt lat="49.69271" lon="4.77202">
        <ele>152.899</ele>
        <time>2011-01-19T10:38:52Z</time>
      </trkpt>
      <trkpt lat="49.69268" lon="4.772">
        <ele>153.345</ele>
        <time>2011-01-19T10:38:53Z</time>
      </trkpt>
      <trkpt lat="49.69261" lon="4.77198">
        <ele>154.329</ele>
        <time>2011-01-19T10:38:55Z</time>
      </trkpt>
      <trkpt lat="49.69255" lon="4.77195">
        <ele>154.988</ele>
        <time>2011-01-19T10:38:57Z</time>
      </trkpt>
      <trkpt lat="49.69251" lon="4.77194">
        <ele>155.343</ele>
        <time>2011-01-19T10:38:58Z</time>
      </trkpt>
      <trkpt lat="49.69244" lon="4.77193">
        <ele>156.25</ele>
        <time>2011-01-19T10:39:00Z</time>
      </trkpt>
      <trkpt lat="49.69241" lon="4.77191">
        <ele>156.82</ele>
        <time>2011-01-19T10:39:01Z</time>
      </trkpt>
      <trkpt lat="49.69238" lon="4.77189">
        <ele>157.33</ele>
        <time>2011-01-19T10:39:02Z</time>
      </trkpt>
      <trkpt lat="49.69232" lon="4.77185">
        <ele>158.22</ele>
        <time>2011-01-19T10:39:04Z</time>
      </trkpt>
      <trkpt lat="49.69228" lon="4.77183">
        <ele>158.61</ele>
        <time>2011-01-19T10:39:05Z</time>
      </trkpt>
      <trkpt lat="49.69219" lon="4.77181">
        <ele>159.1</ele>
        <time>2011-01-19T10:39:07Z</time>
      </trkpt>
      <trkpt lat="49.69208" lon="4.77177">
        <ele>159.37</ele>
        <time>2011-01-19T10:39:09Z</time>
      </trkpt>
      <trkpt lat="49.69197" lon="4.77173">
        <ele>159.38</ele>
        <time>2011-01-19T10:39:11Z</time>
      </trkpt>
      <trkpt lat="49.69187" lon="4.77168">
        <ele>158.92</ele>
        <time>2011-01-19T10:39:13Z</time>
      </trkpt>
      <trkpt lat="49.69177" lon="4.77166">
        <ele>157.867</ele>
        <time>2011-01-19T10:39:15Z</time>
      </trkpt>
      <trkpt lat="49.69166" lon="4.77164">
        <ele>157.087</ele>
        <time>2011-01-19T10:39:17Z</time>
      </trkpt>
      <trkpt lat="49.69162" lon="4.77162">
        <ele>156.777</ele>
        <time>2011-01-19T10:39:18Z</time>
      </trkpt>
      <trkpt lat="49.69154" lon="4.77159">
        <ele>156.41</ele>
        <time>2011-01-19T10:39:20Z</time>
      </trkpt>
      <trkpt lat="49.69149" lon="4.77156">
        <ele>156.377</ele>
        <time>2011-01-19T10:39:22Z</time>
      </trkpt>
      <trkpt lat="49.69142" lon="4.77153">
        <ele>156.45</ele>
        <time>2011-01-19T10:39:24Z</time>
      </trkpt>
      <trkpt lat="49.69135" lon="4.77152">
        <ele>156.45</ele>
        <time>2011-01-19T10:39:26Z</time>
      </trkpt>
      <trkpt lat="49.69129" lon="4.77151">
        <ele>156.232</ele>
        <time>2011-01-19T10:39:27Z</time>
      </trkpt>
      <trkpt lat="49.69118" lon="4.7715">
        <ele>155.646</ele>
        <time>2011-01-19T10:39:29Z</time>
      </trkpt>
      <trkpt lat="49.69107" lon="4.77146">
        <ele>155.262</ele>
        <time>2011-01-19T10:39:31Z</time>
      </trkpt>
      <trkpt lat="49.69103" lon="4.77144">
        <ele>155.113</ele>
        <time>2011-01-19T10:39:32Z</time>
      </trkpt>
      <trkpt lat="49.69094" lon="4.7714">
        <ele>155.243</ele>
        <time>2011-01-19T10:39:34Z</time>
      </trkpt>
      <trkpt lat="49.69088" lon="4.77139">
        <ele>155.503</ele>
        <time>2011-01-19T10:39:35Z</time>
      </trkpt>
      <trkpt lat="49.69076" lon="4.77135">
        <ele>156.02</ele>
        <time>2011-01-19T10:39:37Z</time>
      </trkpt>
      <trkpt lat="49.6907" lon="4.77134">
        <ele>156.34</ele>
        <time>2011-01-19T10:39:38Z</time>
      </trkpt>
      <trkpt lat="49.69058" lon="4.7713">
        <ele>156.93</ele>
        <time>2011-01-19T10:39:40Z</time>
      </trkpt>
      <trkpt lat="49.69053" lon="4.77128">
        <ele>157.077</ele>
        <time>2011-01-19T10:39:41Z</time>
      </trkpt>
      <trkpt lat="49.69047" lon="4.77127">
        <ele>157.216</ele>
        <time>2011-01-19T10:39:42Z</time>
      </trkpt>
      <trkpt lat="49.69039" lon="4.77124">
        <ele>157.243</ele>
        <time>2011-01-19T10:39:44Z</time>
      </trkpt>
      <trkpt lat="49.69031" lon="4.7712">
        <ele>157.286</ele>
        <time>2011-01-19T10:39:45Z</time>
      </trkpt>
      <trkpt lat="49.69028" lon="4.77119">
        <ele>157.524</ele>
        <time>2011-01-19T10:39:46Z</time>
      </trkpt>
      <trkpt lat="49.6902" lon="4.77115">
        <ele>158.011</ele>
        <time>2011-01-19T10:39:48Z</time>
      </trkpt>
      <trkpt lat="49.69008" lon="4.77113">
        <ele>158.2</ele>
        <time>2011-01-19T10:39:50Z</time>
      </trkpt>
      <trkpt lat="49.69002" lon="4.77111">
        <ele>158.385</ele>
        <time>2011-01-19T10:39:51Z</time>
      </trkpt>
      <trkpt lat="49.68988" lon="4.77107">
        <ele>158.63</ele>
        <time>2011-01-19T10:39:53Z</time>
      </trkpt>
      <trkpt lat="49.68984" lon="4.77105">
        <ele>158.57</ele>
        <time>2011-01-19T10:39:54Z</time>
      </trkpt>
      <trkpt lat="49.68975" lon="4.771">
        <ele>158.21</ele>
        <time>2011-01-19T10:39:56Z</time>
      </trkpt>
      <trkpt lat="49.68972" lon="4.77098">
        <ele>157.93</ele>
        <time>2011-01-19T10:39:57Z</time>
      </trkpt>
      <trkpt lat="49.68966" lon="4.77096">
        <ele>157.64</ele>
        <time>2011-01-19T10:39:58Z</time>
      </trkpt>
      <trkpt lat="49.68954" lon="4.77093">
        <ele>157.5</ele>
        <time>2011-01-19T10:40:00Z</time>
      </trkpt>
      <trkpt lat="49.68947" lon="4.77092">
        <ele>157.44</ele>
        <time>2011-01-19T10:40:01Z</time>
      </trkpt>
      <trkpt lat="49.68935" lon="4.7709">
        <ele>157.39</ele>
        <time>2011-01-19T10:40:03Z</time>
      </trkpt>
      <trkpt lat="49.68924" lon="4.77086">
        <ele>157.42</ele>
        <time>2011-01-19T10:40:05Z</time>
      </trkpt>
      <trkpt lat="49.68919" lon="4.77085">
        <ele>157.44</ele>
        <time>2011-01-19T10:40:06Z</time>
      </trkpt>
      <trkpt lat="49.68908" lon="4.77081">
        <ele>157.6</ele>
        <time>2011-01-19T10:40:07Z</time>
      </trkpt>
      <trkpt lat="49.68898" lon="4.77078">
        <ele>157.72</ele>
        <time>2011-01-19T10:40:09Z</time>
      </trkpt>
      <trkpt lat="49.6889" lon="4.77076">
        <ele>157.68</ele>
        <time>2011-01-19T10:40:11Z</time>
      </trkpt>
      <trkpt lat="49.68882" lon="4.77072">
        <ele>157.66</ele>
        <time>2011-01-19T10:40:12Z</time>
      </trkpt>
      <trkpt lat="49.68878" lon="4.77071">
        <ele>157.674</ele>
        <time>2011-01-19T10:40:13Z</time>
      </trkpt>
      <trkpt lat="49.68872" lon="4.77068">
        <ele>157.747</ele>
        <time>2011-01-19T10:40:15Z</time>
      </trkpt>
      <trkpt lat="49.68868" lon="4.77065">
        <ele>157.77</ele>
        <time>2011-01-19T10:40:16Z</time>
      </trkpt>
      <trkpt lat="49.68861" lon="4.7706">
        <ele>157.806</ele>
        <time>2011-01-19T10:40:18Z</time>
      </trkpt>
      <trkpt lat="49.68852" lon="4.77056">
        <ele>158.028</ele>
        <time>2011-01-19T10:40:20Z</time>
      </trkpt>
      <trkpt lat="49.68842" lon="4.77054">
        <ele>158.272</ele>
        <time>2011-01-19T10:40:22Z</time>
      </trkpt>
      <trkpt lat="49.68833" lon="4.77052">
        <ele>158.414</ele>
        <time>2011-01-19T10:40:24Z</time>
      </trkpt>
      <trkpt lat="49.68829" lon="4.77051">
        <ele>158.479</ele>
        <time>2011-01-19T10:40:25Z</time>
      </trkpt>
      <trkpt lat="49.68824" lon="4.77048">
        <ele>158.572</ele>
        <time>2011-01-19T10:40:26Z</time>
      </trkpt>
      <trkpt lat="49.68815" lon="4.77044">
        <ele>158.718</ele>
        <time>2011-01-19T10:40:28Z</time>
      </trkpt>
      <trkpt lat="49.68811" lon="4.77042">
        <ele>158.718</ele>
        <time>2011-01-19T10:40:29Z</time>
      </trkpt>
      <trkpt lat="49.68801" lon="4.77039">
        <ele>158.716</ele>
        <time>2011-01-19T10:40:31Z</time>
      </trkpt>
      <trkpt lat="49.68791" lon="4.77037">
        <ele>158.526</ele>
        <time>2011-01-19T10:40:32Z</time>
      </trkpt>
      <trkpt lat="49.68782" lon="4.77035">
        <ele>158.042</ele>
        <time>2011-01-19T10:40:34Z</time>
      </trkpt>
      <trkpt lat="49.68775" lon="4.77033">
        <ele>157.432</ele>
        <time>2011-01-19T10:40:36Z</time>
      </trkpt>
      <trkpt lat="49.6877" lon="4.77032">
        <ele>157.005</ele>
        <time>2011-01-19T10:40:38Z</time>
      </trkpt>
      <trkpt lat="49.68768" lon="4.77031">
        <ele>156.78</ele>
        <time>2011-01-19T10:40:39Z</time>
      </trkpt>
      <trkpt lat="49.68761" lon="4.7703">
        <ele>155.926</ele>
        <time>2011-01-19T10:40:40Z</time>
      </trkpt>
      <trkpt lat="49.68757" lon="4.77028">
        <ele>155.563</ele>
        <time>2011-01-19T10:40:41Z</time>
      </trkpt>
      <trkpt lat="49.6875" lon="4.77025">
        <ele>154.906</ele>
        <time>2011-01-19T10:40:43Z</time>
      </trkpt>
      <trkpt lat="49.68749" lon="4.77022">
        <ele>154.591</ele>
        <time>2011-01-19T10:40:44Z</time>
      </trkpt>
      <trkpt lat="49.68749" lon="4.77015">
        <ele>153.929</ele>
        <time>2011-01-19T10:40:45Z</time>
      </trkpt>
      <trkpt lat="49.6875" lon="4.7701">
        <ele>153.577</ele>
        <time>2011-01-19T10:40:46Z</time>
      </trkpt>
      <trkpt lat="49.68752" lon="4.76997">
        <ele>152.986</ele>
        <time>2011-01-19T10:40:48Z</time>
      </trkpt>
      <trkpt lat="49.68753" lon="4.7699">
        <ele>152.978</ele>
        <time>2011-01-19T10:40:49Z</time>
      </trkpt>
      <trkpt lat="49.68754" lon="4.76972">
        <ele>153.095</ele>
        <time>2011-01-19T10:40:51Z</time>
      </trkpt>
      <trkpt lat="49.68757" lon="4.76957">
        <ele>152.679</ele>
        <time>2011-01-19T10:40:53Z</time>
      </trkpt>
      <trkpt lat="49.68759" lon="4.76948">
        <ele>151.789</ele>
        <time>2011-01-19T10:40:54Z</time>
      </trkpt>
      <trkpt lat="49.68764" lon="4.7693">
        <ele>150.138</ele>
        <time>2011-01-19T10:40:56Z</time>
      </trkpt>
      <trkpt lat="49.68767" lon="4.76923">
        <ele>149.431</ele>
        <time>2011-01-19T10:40:57Z</time>
      </trkpt>
      <trkpt lat="49.68774" lon="4.76914">
        <ele>147.674</ele>
        <time>2011-01-19T10:40:59Z</time>
      </trkpt>
      <trkpt lat="49.68778" lon="4.76915">
        <ele>146.987</ele>
        <time>2011-01-19T10:41:00Z</time>
      </trkpt>
      <trkpt lat="49.68782" lon="4.76916">
        <ele>146.474</ele>
        <time>2011-01-19T10:41:01Z</time>
      </trkpt>
      <trkpt lat="49.68787" lon="4.76917">
        <ele>145.835</ele>
        <time>2011-01-19T10:41:02Z</time>
      </trkpt>
      <trkpt lat="49.68791" lon="4.76919">
        <ele>145.514</ele>
        <time>2011-01-19T10:41:03Z</time>
      </trkpt>
      <trkpt lat="49.68797" lon="4.76923">
        <ele>145.8</ele>
        <time>2011-01-19T10:41:05Z</time>
      </trkpt>
      <trkpt lat="49.68805" lon="4.76926">
        <ele>146.363</ele>
        <time>2011-01-19T10:41:07Z</time>
      </trkpt>
      <trkpt lat="49.68815" lon="4.76928">
        <ele>147.3</ele>
        <time>2011-01-19T10:41:09Z</time>
      </trkpt>
      <trkpt lat="49.68825" lon="4.76931">
        <ele>147.431</ele>
        <time>2011-01-19T10:41:11Z</time>
      </trkpt>
      <trkpt lat="49.68835" lon="4.76933">
        <ele>147.144</ele>
        <time>2011-01-19T10:41:13Z</time>
      </trkpt>
      <trkpt lat="49.68841" lon="4.76934">
        <ele>147.003</ele>
        <time>2011-01-19T10:41:14Z</time>
      </trkpt>
      <trkpt lat="49.68852" lon="4.76934">
        <ele>146.611</ele>
        <time>2011-01-19T10:41:16Z</time>
      </trkpt>
      <trkpt lat="49.68863" lon="4.76932">
        <ele>146.074</ele>
        <time>2011-01-19T10:41:18Z</time>
      </trkpt>
      <trkpt lat="49.68874" lon="4.76928">
        <ele>145.61</ele>
        <time>2011-01-19T10:41:20Z</time>
      </trkpt>
      <trkpt lat="49.68885" lon="4.76924">
        <ele>145.02</ele>
        <time>2011-01-19T10:41:22Z</time>
      </trkpt>
      <trkpt lat="49.68891" lon="4.76921">
        <ele>144.78</ele>
        <time>2011-01-19T10:41:23Z</time>
      </trkpt>
      <trkpt lat="49.68903" lon="4.76917">
        <ele>144.43</ele>
        <time>2011-01-19T10:41:25Z</time>
      </trkpt>
      <trkpt lat="49.68909" lon="4.76914">
        <ele>144.317</ele>
        <time>2011-01-19T10:41:26Z</time>
      </trkpt>
      <trkpt lat="49.68921" lon="4.76907">
        <ele>144.356</ele>
        <time>2011-01-19T10:41:28Z</time>
      </trkpt>
      <trkpt lat="49.68927" lon="4.76903">
        <ele>144.335</ele>
        <time>2011-01-19T10:41:29Z</time>
      </trkpt>
      <trkpt lat="49.68937" lon="4.76896">
        <ele>144.673</ele>
        <time>2011-01-19T10:41:31Z</time>
      </trkpt>
      <trkpt lat="49.68948" lon="4.76887">
        <ele>145.404</ele>
        <time>2011-01-19T10:41:33Z</time>
      </trkpt>
      <trkpt lat="49.68958" lon="4.76878">
        <ele>145.949</ele>
        <time>2011-01-19T10:41:35Z</time>
      </trkpt>
      <trkpt lat="49.68963" lon="4.76873">
        <ele>146.07</ele>
        <time>2011-01-19T10:41:36Z</time>
      </trkpt>
      <trkpt lat="49.68968" lon="4.76869">
        <ele>146.2</ele>
        <time>2011-01-19T10:41:37Z</time>
      </trkpt>
      <trkpt lat="49.68978" lon="4.76859">
        <ele>146.61</ele>
        <time>2011-01-19T10:41:39Z</time>
      </trkpt>
      <trkpt lat="49.68989" lon="4.76849">
        <ele>147.19</ele>
        <time>2011-01-19T10:41:41Z</time>
      </trkpt>
      <trkpt lat="49.68999" lon="4.7684">
        <ele>147.358</ele>
        <time>2011-01-19T10:41:43Z</time>
      </trkpt>
      <trkpt lat="49.6901" lon="4.76831">
        <ele>147.4</ele>
        <time>2011-01-19T10:41:45Z</time>
      </trkpt>
      <trkpt lat="49.69021" lon="4.76821">
        <ele>147.463</ele>
        <time>2011-01-19T10:41:47Z</time>
      </trkpt>
      <trkpt lat="49.69026" lon="4.76818">
        <ele>147.484</ele>
        <time>2011-01-19T10:41:48Z</time>
      </trkpt>
      <trkpt lat="49.69036" lon="4.76812">
        <ele>147.442</ele>
        <time>2011-01-19T10:41:50Z</time>
      </trkpt>
      <trkpt lat="49.69041" lon="4.76809">
        <ele>147.368</ele>
        <time>2011-01-19T10:41:51Z</time>
      </trkpt>
      <trkpt lat="49.69052" lon="4.76804">
        <ele>147.24</ele>
        <time>2011-01-19T10:41:53Z</time>
      </trkpt>
      <trkpt lat="49.69056" lon="4.76802">
        <ele>147.25</ele>
        <time>2011-01-19T10:41:54Z</time>
      </trkpt>
      <trkpt lat="49.69067" lon="4.76798">
        <ele>147.42</ele>
        <time>2011-01-19T10:41:56Z</time>
      </trkpt>
      <trkpt lat="49.69076" lon="4.76794">
        <ele>147.6</ele>
        <time>2011-01-19T10:41:58Z</time>
      </trkpt>
      <trkpt lat="49.6908" lon="4.76792">
        <ele>147.65</ele>
        <time>2011-01-19T10:41:59Z</time>
      </trkpt>
      <trkpt lat="49.69085" lon="4.7679">
        <ele>147.74</ele>
        <time>2011-01-19T10:42:00Z</time>
      </trkpt>
      <trkpt lat="49.69094" lon="4.76788">
        <ele>148.02</ele>
        <time>2011-01-19T10:42:02Z</time>
      </trkpt>
      <trkpt lat="49.69098" lon="4.76788">
        <ele>148.26</ele>
        <time>2011-01-19T10:42:03Z</time>
      </trkpt>
      <trkpt lat="49.69106" lon="4.76787">
        <ele>148.61</ele>
        <time>2011-01-19T10:42:05Z</time>
      </trkpt>
      <trkpt lat="49.69111" lon="4.76787">
        <ele>148.69</ele>
        <time>2011-01-19T10:42:06Z</time>
      </trkpt>
      <trkpt lat="49.69119" lon="4.76785">
        <ele>148.79</ele>
        <time>2011-01-19T10:42:08Z</time>
      </trkpt>
      <trkpt lat="49.69124" lon="4.76784">
        <ele>148.86</ele>
        <time>2011-01-19T10:42:09Z</time>
      </trkpt>
      <trkpt lat="49.69129" lon="4.76784">
        <ele>148.89</ele>
        <time>2011-01-19T10:42:10Z</time>
      </trkpt>
      <trkpt lat="49.69138" lon="4.76782">
        <ele>148.98</ele>
        <time>2011-01-19T10:42:12Z</time>
      </trkpt>
      <trkpt lat="49.69146" lon="4.7678">
        <ele>149.09</ele>
        <time>2011-01-19T10:42:14Z</time>
      </trkpt>
      <trkpt lat="49.69155" lon="4.76779">
        <ele>149.24</ele>
        <time>2011-01-19T10:42:16Z</time>
      </trkpt>
      <trkpt lat="49.69159" lon="4.76779">
        <ele>149.35</ele>
        <time>2011-01-19T10:42:17Z</time>
      </trkpt>
      <trkpt lat="49.69167" lon="4.76778">
        <ele>149.56</ele>
        <time>2011-01-19T10:42:18Z</time>
      </trkpt>
      <trkpt lat="49.69171" lon="4.76778">
        <ele>149.6</ele>
        <time>2011-01-19T10:42:19Z</time>
      </trkpt>
      <trkpt lat="49.6918" lon="4.76777">
        <ele>149.53</ele>
        <time>2011-01-19T10:42:21Z</time>
      </trkpt>
      <trkpt lat="49.69184" lon="4.76777">
        <ele>149.38</ele>
        <time>2011-01-19T10:42:22Z</time>
      </trkpt>
      <trkpt lat="49.69188" lon="4.76777">
        <ele>149.22</ele>
        <time>2011-01-19T10:42:23Z</time>
      </trkpt>
      <trkpt lat="49.69197" lon="4.76777">
        <ele>149.04</ele>
        <time>2011-01-19T10:42:25Z</time>
      </trkpt>
      <trkpt lat="49.69201" lon="4.76778">
        <ele>148.96</ele>
        <time>2011-01-19T10:42:26Z</time>
      </trkpt>
      <trkpt lat="49.6921" lon="4.76776">
        <ele>148.96</ele>
        <time>2011-01-19T10:42:28Z</time>
      </trkpt>
      <trkpt lat="49.69214" lon="4.76775">
        <ele>149.04</ele>
        <time>2011-01-19T10:42:29Z</time>
      </trkpt>
      <trkpt lat="49.69222" lon="4.76774">
        <ele>149.12</ele>
        <time>2011-01-19T10:42:31Z</time>
      </trkpt>
      <trkpt lat="49.6923" lon="4.76773">
        <ele>149.61</ele>
        <time>2011-01-19T10:42:33Z</time>
      </trkpt>
      <trkpt lat="49.6924" lon="4.76773">
        <ele>150.09</ele>
        <time>2011-01-19T10:42:35Z</time>
      </trkpt>
      <trkpt lat="49.69244" lon="4.76772">
        <ele>150.32</ele>
        <time>2011-01-19T10:42:36Z</time>
      </trkpt>
      <trkpt lat="49.69253" lon="4.76772">
        <ele>150.517</ele>
        <time>2011-01-19T10:42:38Z</time>
      </trkpt>
      <trkpt lat="49.69258" lon="4.76772">
        <ele>150.517</ele>
        <time>2011-01-19T10:42:39Z</time>
      </trkpt>
      <trkpt lat="49.69267" lon="4.76771">
        <ele>150.35</ele>
        <time>2011-01-19T10:42:41Z</time>
      </trkpt>
      <trkpt lat="49.69272" lon="4.7677">
        <ele>150.078</ele>
        <time>2011-01-19T10:42:42Z</time>
      </trkpt>
      <trkpt lat="49.69281" lon="4.76768">
        <ele>149.41</ele>
        <time>2011-01-19T10:42:44Z</time>
      </trkpt>
      <trkpt lat="49.69289" lon="4.76767">
        <ele>148.597</ele>
        <time>2011-01-19T10:42:46Z</time>
      </trkpt>
      <trkpt lat="49.69297" lon="4.76766">
        <ele>148.06</ele>
        <time>2011-01-19T10:42:48Z</time>
      </trkpt>
      <trkpt lat="49.69301" lon="4.76765">
        <ele>147.84</ele>
        <time>2011-01-19T10:42:49Z</time>
      </trkpt>
      <trkpt lat="49.6931" lon="4.76765">
        <ele>147.77</ele>
        <time>2011-01-19T10:42:51Z</time>
      </trkpt>
      <trkpt lat="49.69318" lon="4.76764">
        <ele>147.88</ele>
        <time>2011-01-19T10:42:53Z</time>
      </trkpt>
      <trkpt lat="49.69326" lon="4.76763">
        <ele>148.07</ele>
        <time>2011-01-19T10:42:55Z</time>
      </trkpt>
      <trkpt lat="49.69329" lon="4.76763">
        <ele>148.19</ele>
        <time>2011-01-19T10:42:56Z</time>
      </trkpt>
      <trkpt lat="49.69335" lon="4.76763">
        <ele>148.35</ele>
        <time>2011-01-19T10:42:58Z</time>
      </trkpt>
      <trkpt lat="49.69339" lon="4.76763">
        <ele>148.42</ele>
        <time>2011-01-19T10:42:59Z</time>
      </trkpt>
      <trkpt lat="49.69346" lon="4.76762">
        <ele>148.77</ele>
        <time>2011-01-19T10:43:01Z</time>
      </trkpt>
      <trkpt lat="49.69349" lon="4.76762">
        <ele>148.85</ele>
        <time>2011-01-19T10:43:02Z</time>
      </trkpt>
      <trkpt lat="49.69356" lon="4.7676">
        <ele>148.94</ele>
        <time>2011-01-19T10:43:04Z</time>
      </trkpt>
      <trkpt lat="49.69362" lon="4.76759">
        <ele>148.95</ele>
        <time>2011-01-19T10:43:06Z</time>
      </trkpt>
      <trkpt lat="49.69369" lon="4.76758">
        <ele>149.18</ele>
        <time>2011-01-19T10:43:08Z</time>
      </trkpt>
      <trkpt lat="49.69373" lon="4.76757">
        <ele>149.36</ele>
        <time>2011-01-19T10:43:09Z</time>
      </trkpt>
      <trkpt lat="49.69381" lon="4.76754">
        <ele>149.32</ele>
        <time>2011-01-19T10:43:11Z</time>
      </trkpt>
      <trkpt lat="49.69384" lon="4.76753">
        <ele>149.33</ele>
        <time>2011-01-19T10:43:12Z</time>
      </trkpt>
      <trkpt lat="49.69386" lon="4.76751">
        <ele>149.42</ele>
        <time>2011-01-19T10:43:13Z</time>
      </trkpt>
      <trkpt lat="49.69389" lon="4.76749">
        <ele>149.73</ele>
        <time>2011-01-19T10:43:15Z</time>
      </trkpt>
      <trkpt lat="49.6939" lon="4.76747">
        <ele>149.88</ele>
        <time>2011-01-19T10:43:17Z</time>
      </trkpt>
      <trkpt lat="49.69392" lon="4.76746">
        <ele>149.8</ele>
        <time>2011-01-19T10:43:19Z</time>
      </trkpt>
      <trkpt lat="49.69396" lon="4.76745">
        <ele>149.58</ele>
        <time>2011-01-19T10:43:21Z</time>
      </trkpt>
      <trkpt lat="49.69398" lon="4.76745">
        <ele>149.45</ele>
        <time>2011-01-19T10:43:22Z</time>
      </trkpt>
      <trkpt lat="49.69402" lon="4.76744">
        <ele>149.03</ele>
        <time>2011-01-19T10:43:24Z</time>
      </trkpt>
      <trkpt lat="49.69407" lon="4.76744">
        <ele>148.74</ele>
        <time>2011-01-19T10:43:26Z</time>
      </trkpt>
      <trkpt lat="49.69411" lon="4.76744">
        <ele>148.75</ele>
        <time>2011-01-19T10:43:28Z</time>
      </trkpt>
      <trkpt lat="49.69413" lon="4.76745">
        <ele>148.84</ele>
        <time>2011-01-19T10:43:29Z</time>
      </trkpt>
      <trkpt lat="49.69415" lon="4.76745">
        <ele>149.08</ele>
        <time>2011-01-19T10:43:31Z</time>
      </trkpt>
      <trkpt lat="49.69415" lon="4.76745">
        <ele>148.74</ele>
        <time>2011-01-19T10:43:33Z</time>
      </trkpt>
      <trkpt lat="49.69414" lon="4.76743">
        <ele>148.14</ele>
        <time>2011-01-19T10:43:35Z</time>
      </trkpt>
      <trkpt lat="49.69412" lon="4.76742">
        <ele>147.15</ele>
        <time>2011-01-19T10:43:37Z</time>
      </trkpt>
      <trkpt lat="49.69412" lon="4.76741">
        <ele>146.5</ele>
        <time>2011-01-19T10:43:39Z</time>
      </trkpt>
      <trkpt lat="49.69412" lon="4.7674">
        <ele>146.36</ele>
        <time>2011-01-19T10:43:40Z</time>
      </trkpt>
      <trkpt lat="49.69413" lon="4.76739">
        <ele>146.7</ele>
        <time>2011-01-19T10:43:42Z</time>
      </trkpt>
      <trkpt lat="49.69414" lon="4.76738">
        <ele>147.19</ele>
        <time>2011-01-19T10:43:43Z</time>
      </trkpt>
      <trkpt lat="49.69414" lon="4.76738">
        <ele>147.91</ele>
        <time>2011-01-19T10:43:44Z</time>
      </trkpt>
      <trkpt lat="49.69415" lon="4.76737">
        <ele>149.52</ele>
        <time>2011-01-19T10:43:46Z</time>
      </trkpt>
      <trkpt lat="49.69415" lon="4.76737">
        <ele>150.29</ele>
        <time>2011-01-19T10:43:47Z</time>
      </trkpt>
      <trkpt lat="49.69415" lon="4.76737">
        <ele>151.33</ele>
        <time>2011-01-19T10:43:49Z</time>
      </trkpt>
      <trkpt lat="49.69415" lon="4.76738">
        <ele>151.86</ele>
        <time>2011-01-19T10:43:51Z</time>
      </trkpt>
      <trkpt lat="49.69415" lon="4.76737">
        <ele>152.08</ele>
        <time>2011-01-19T10:43:52Z</time>
      </trkpt>
      <trkpt lat="49.69415" lon="4.76737">
        <ele>152.09</ele>
        <time>2011-01-19T10:43:54Z</time>
      </trkpt>
      <trkpt lat="49.69415" lon="4.76737">
        <ele>151.69</ele>
        <time>2011-01-19T10:43:56Z</time>
      </trkpt>
      <trkpt lat="49.69415" lon="4.76736">
        <ele>151.51</ele>
        <time>2011-01-19T10:43:57Z</time>
      </trkpt>
      <trkpt lat="49.69415" lon="4.76736">
        <ele>151.17</ele>
        <time>2011-01-19T10:43:59Z</time>
      </trkpt>
      <trkpt lat="49.69415" lon="4.76736">
        <ele>150.82</ele>
        <time>2011-01-19T10:44:01Z</time>
      </trkpt>
    </trkseg>
  </trk>
</gpx>